[[{"header":{"parameterUnit":"m.s-1","parameterCategory":1,"la1":30.6,"la2":29.2853,"lo1":-89.7004,"lo2":-87.6739,"dy":0.0162,"dx":0.0183,"nx":112,"ny":82,"refTime":"2023-05-02T18:00:00:Z","depth":0,"parameterNumber":2,"parameterNumberName":"U-component_of_WINDS"},"data":[0.0,0.0,0.0,0.0,0.0,0.0,0.0,0.0,0.0,0.0,0.0,0.0,0.0,0.0,0.0,0.0,0.0,0.0,0.0,0.0,0.0,0.0,0.0,0.0,0.0,0.0,0.0,0.0,0.0,0.0,0.0,0.0,0.0,0.0,0.0,0.0,0.0,0.0,0.0,0.0,0.0,0.0,0.0,0.0,0.0,0.0,0.0,0.0,0.0,0.0,0.0,0.0,0.0,0.0,0.0,0.0,0.0,0.0,0.0,0.0,0.0,0.0,0.0,0.0,0.0,0.0,0.0,0.0,0.0,0.0,0.0,0.0,0.0,0.0,0.0,0.0,0.0,0.0,0.0,0.0,0.0,0.0,0.0,0.0,0.0,0.0,0.0,0.0,0.0,0.0,-1.2661,-2.0716,-2.7114,-3.1455,-3.2914,-3.6545,-3.7546,-3.4575,0.0,0.0,0.0,0.0,0.0,0.0,0.0,0.0,0.0,0.0,0.0,0.0,0.0,0.0,0.0,0.0,0.0,0.0,0.0,0.0,0.0,0.0,0.0,0.0,0.0,0.0,0.0,0.0,0.0,0.0,0.0,0.0,0.0,0.0,0.0,0.0,0.0,0.0,0.0,0.0,0.0,0.0,0.0,0.0,0.0,0.0,0.0,0.0,0.0,0.0,0.0,0.0,0.0,0.0,0.0,0.0,0.0,0.0,0.0,0.0,0.0,0.0,0.0,0.0,0.0,0.0,0.0,0.0,0.0,0.0,0.0,0.0,0.0,0.0,0.0,0.0,0.0,0.0,0.0,0.0,0.0,0.0,0.0,0.0,0.0,0.0,0.0,0.0,0.0,0.0,0.0,0.0,0.0,0.0,0.0,0.0,0.0,0.0,0.0,0.0,0.0,0.0,0.0,0.0,-1.9137,-2.5026,-2.9642,-3.3061,-3.5258,-3.7145,-3.7182,-3.4792,0.0,0.0,0.0,0.0,0.0,0.0,0.0,0.0,0.0,0.0,0.0,0.0,0.0,0.0,0.0,0.0,0.0,0.0,0.0,0.0,0.0,0.0,0.0,0.0,0.0,0.0,0.0,0.0,0.0,0.0,0.0,0.0,0.0,0.0,0.0,0.0,0.0,0.0,0.0,0.0,0.0,0.0,0.0,0.0,0.0,0.0,0.0,0.0,0.0,0.0,0.0,0.0,0.0,0.0,0.0,0.0,0.0,0.0,0.0,0.0,0.0,0.0,0.0,0.0,0.0,0.0,0.0,0.0,0.0,0.0,0.0,0.0,0.0,0.0,0.0,0.0,0.0,0.0,0.0,0.0,0.0,0.0,0.0,0.0,0.0,0.0,0.0,0.0,0.0,0.0,0.0,0.0,0.0,0.0,0.0,0.0,0.0,0.0,0.0,0.0,0.0,0.0,0.0,-2.023,-2.3749,-2.6815,-3.1528,-3.4867,-3.595,-3.7824,-3.7713,-3.4901,-3.3972,0.0,0.0,0.0,0.0,0.0,0.0,0.0,0.0,0.0,0.0,0.0,0.0,0.0,0.0,0.0,0.0,0.0,0.0,0.0,0.0,0.0,0.0,0.0,0.0,0.0,0.0,0.0,0.0,0.0,0.0,0.0,0.0,0.0,0.0,0.0,0.0,0.0,0.0,0.0,0.0,0.0,0.0,0.0,0.0,0.0,0.0,0.0,0.0,0.0,0.0,0.0,0.0,0.0,0.0,0.0,0.0,0.0,0.0,0.0,0.0,0.0,0.0,0.0,0.0,0.0,0.0,0.0,0.0,0.0,0.0,0.0,0.0,0.0,0.0,0.0,0.0,0.0,0.0,0.0,0.0,0.0,0.0,0.0,0.0,0.0,0.0,0.0,0.0,0.0,0.0,0.0,0.0,0.0,0.0,0.0,0.0,0.0,0.0,0.0,0.0,0.0,0.0,-2.3343,-2.6843,-2.8228,-3.2891,-3.6099,-3.6416,-3.8138,-3.7852,-3.4914,-3.3834,0.0,0.0,0.0,0.0,0.0,0.0,0.0,0.0,0.0,0.0,0.0,0.0,0.0,0.0,0.0,0.0,0.0,0.0,0.0,0.0,0.0,0.0,0.0,0.0,0.0,0.0,0.0,0.0,0.0,0.0,0.0,0.0,0.0,0.0,0.0,0.0,0.0,0.0,0.0,0.0,0.0,0.0,0.0,0.0,0.0,0.0,0.0,0.0,0.0,0.0,0.0,0.0,0.0,0.0,0.0,0.0,0.0,0.0,0.0,0.0,0.0,0.0,0.0,0.0,0.0,0.0,0.0,0.0,0.0,0.0,0.0,0.0,0.0,0.0,0.0,0.0,0.0,0.0,0.0,0.0,0.0,0.0,0.0,0.0,0.0,0.0,0.0,0.0,0.0,0.0,0.0,0.0,0.0,0.0,0.0,0.0,0.0,0.0,0.0,0.0,0.0,0.0,-2.4725,-2.825,-3.0012,-3.3702,-3.6529,-3.7792,-3.76,-3.6609,-3.4826,-3.2742,0.0,0.0,0.0,0.0,0.0,0.0,0.0,0.0,0.0,0.0,0.0,0.0,0.0,0.0,0.0,0.0,0.0,0.0,0.0,0.0,0.0,0.0,0.0,0.0,0.0,0.0,0.0,0.0,0.0,0.0,0.0,0.0,0.0,0.0,0.0,0.0,0.0,0.0,0.0,0.0,0.0,0.0,0.0,0.0,0.0,0.0,0.0,0.0,0.0,0.0,0.0,0.0,0.0,0.0,0.0,0.0,0.0,0.0,0.0,0.0,0.0,0.0,0.0,0.0,0.0,0.0,0.0,0.0,0.0,0.0,0.0,0.0,0.0,0.0,0.0,0.0,0.0,0.0,0.0,0.0,0.0,0.0,0.0,0.0,0.0,0.0,0.0,0.0,0.0,0.0,0.0,0.0,0.0,0.0,0.0,0.0,0.0,0.0,0.0,0.0,0.0,0.0,-2.6533,-2.9667,0.0,-3.4945,-3.7469,-3.8002,-3.8467,-3.76,-3.4889,0.0,0.0,0.0,0.0,0.0,0.0,0.0,0.0,0.0,0.0,0.0,0.0,0.0,0.0,0.0,0.0,0.0,0.0,0.0,0.0,0.0,0.0,0.0,0.0,0.0,0.0,0.0,0.0,0.0,0.0,0.0,0.0,0.0,0.0,0.0,0.0,0.0,0.0,0.0,0.0,0.0,0.0,0.0,0.0,0.0,0.0,0.0,0.0,0.0,0.0,0.0,0.0,0.0,0.0,0.0,0.0,0.0,0.0,0.0,0.0,0.0,0.0,0.0,0.0,0.0,0.0,0.0,0.0,0.0,0.0,0.0,0.0,0.0,0.0,0.0,0.0,0.0,0.0,0.0,0.0,0.0,0.0,0.0,0.0,0.0,0.0,0.0,0.0,0.0,0.0,0.0,0.0,0.0,0.0,0.0,0.0,0.0,0.0,0.0,0.0,0.0,0.0,-2.4135,-2.7524,-3.0479,0.0,-3.5753,-3.809,-3.8266,-3.8492,-3.7415,-3.4396,0.0,0.0,0.0,0.0,0.0,0.0,0.0,0.0,0.0,0.0,0.0,0.0,0.0,0.0,0.0,0.0,0.0,0.0,0.0,0.0,0.0,0.0,0.0,0.0,0.0,0.0,0.0,0.0,0.0,0.0,0.0,0.0,0.0,0.0,0.0,0.0,0.0,0.0,0.0,0.0,0.0,0.0,0.0,0.0,0.0,0.0,0.0,0.0,0.0,0.0,0.0,0.0,0.0,0.0,0.0,0.0,0.0,0.0,0.0,0.0,0.0,0.0,0.0,0.0,0.0,0.0,0.0,0.0,0.0,0.0,0.0,0.0,0.0,0.0,0.0,0.0,0.0,0.0,0.0,0.0,0.0,0.0,0.0,0.0,0.0,0.0,0.0,0.0,0.0,0.0,0.0,0.0,0.0,0.0,0.0,0.0,0.0,0.0,0.0,0.0,0.0,0.0,-2.4135,-2.7524,-3.0606,-3.2871,-3.6084,-3.8241,-3.8818,-3.7349,-3.5506,0.0,0.0,0.0,0.0,0.0,0.0,0.0,0.0,0.0,0.0,0.0,0.0,0.0,0.0,0.0,0.0,0.0,0.0,0.0,0.0,0.0,0.0,0.0,0.0,0.0,0.0,0.0,0.0,0.0,0.0,0.0,0.0,0.0,0.0,0.0,0.0,0.0,0.0,0.0,0.0,0.0,0.0,0.0,0.0,0.0,0.0,0.0,0.0,0.0,0.0,0.0,0.0,0.0,0.0,0.0,0.0,0.0,0.0,0.0,0.0,0.0,0.0,0.0,0.0,0.0,0.0,0.0,0.0,0.0,0.0,0.0,0.0,0.0,0.0,0.0,0.0,0.0,0.0,0.0,0.0,0.0,0.0,0.0,0.0,0.0,0.0,0.0,0.0,0.0,0.0,0.0,0.0,0.0,0.0,0.0,0.0,0.0,0.0,0.0,0.0,0.0,0.0,0.0,-2.5705,-2.8248,-3.1122,-3.4459,-3.6718,-3.8241,-3.8818,-3.7538,-3.5682,-3.3215,0.0,0.0,0.0,0.0,0.0,0.0,0.0,0.0,0.0,0.0,0.0,0.0,0.0,0.0,0.0,0.0,0.0,0.0,0.0,0.0,0.0,0.0,0.0,0.0,0.0,0.0,0.0,0.0,0.0,0.0,0.0,0.0,0.0,0.0,0.0,0.0,0.0,0.0,0.0,0.0,0.0,0.0,0.0,0.0,0.0,0.0,0.0,0.0,0.0,0.0,0.0,0.0,0.0,0.0,0.0,0.0,0.0,0.0,0.0,0.0,0.0,0.0,0.0,0.0,0.0,0.0,0.0,0.0,0.0,0.0,0.0,0.0,0.0,0.0,0.0,0.0,0.0,0.0,0.0,0.0,0.0,0.0,0.0,0.0,0.0,0.0,0.0,0.0,0.0,0.0,0.0,0.0,0.0,0.0,0.0,0.0,0.0,0.0,0.0,0.0,0.0,0.0,-2.6667,-2.8649,-3.1158,-3.4588,-3.6235,-3.7161,-3.7397,-3.6296,-3.4414,-3.167,0.0,0.0,0.0,0.0,0.0,0.0,0.0,0.0,0.0,0.0,0.0,0.0,0.0,0.0,0.0,0.0,0.0,0.0,0.0,0.0,0.0,0.0,0.0,0.0,0.0,0.0,0.0,0.0,0.0,0.0,0.0,0.0,0.0,0.0,0.0,0.0,0.0,0.0,0.0,0.0,0.0,0.0,0.0,0.0,0.0,0.0,0.0,0.0,0.0,0.0,0.0,0.0,0.0,0.0,0.0,0.0,0.0,0.0,0.0,0.0,0.0,0.0,0.0,0.0,0.0,0.0,0.0,0.0,0.0,0.0,0.0,0.0,0.0,0.0,0.0,0.0,0.0,0.0,0.0,0.0,0.0,0.0,0.0,0.0,0.0,0.0,0.0,0.0,0.0,0.0,0.0,0.0,0.0,0.0,0.0,0.0,0.0,0.0,0.0,0.0,0.0,0.0,-2.6897,-2.8688,-3.0742,-3.3805,-3.5011,-3.5492,-3.532,-3.4274,-3.2372,-2.9487,0.0,0.0,0.0,0.0,0.0,0.0,0.0,0.0,0.0,0.0,0.0,0.0,0.0,0.0,0.0,0.0,0.0,0.0,0.0,0.0,0.0,0.0,0.0,0.0,0.0,0.0,0.0,0.0,0.0,0.0,0.0,0.0,0.0,0.0,0.0,0.0,0.0,0.0,0.0,0.0,0.0,0.0,0.0,0.0,0.0,0.0,0.0,0.0,0.0,0.0,0.0,0.0,0.0,0.0,0.0,0.0,0.0,0.0,0.0,0.0,-2.7495,0.0,0.0,0.0,0.0,0.0,0.0,0.0,0.0,0.0,0.0,0.0,0.0,0.0,0.0,0.0,0.0,0.0,0.0,0.0,0.0,0.0,0.0,0.0,0.0,0.0,0.0,0.0,0.0,0.0,0.0,0.0,0.0,0.0,0.0,0.0,0.0,0.0,0.0,0.0,0.0,0.0,-2.62,-2.7447,-2.9437,-3.287,-3.3878,-3.4532,-3.521,-3.3421,-3.1487,-2.9897,-2.7435,0.0,0.0,0.0,0.0,0.0,0.0,0.0,0.0,0.0,0.0,0.0,0.0,0.0,0.0,0.0,0.0,0.0,0.0,0.0,0.0,0.0,0.0,0.0,0.0,0.0,0.0,0.0,0.0,0.0,0.0,0.0,0.0,0.0,0.0,0.0,0.0,0.0,0.0,0.0,0.0,0.0,0.0,0.0,0.0,0.0,0.0,0.0,0.0,0.0,0.0,0.0,0.0,0.0,0.0,0.0,0.0,0.0,0.0,0.0,0.0,-2.9566,0.0,0.0,0.0,0.0,0.0,0.0,0.0,0.0,0.0,0.0,0.0,0.0,0.0,0.0,0.0,0.0,0.0,0.0,0.0,0.0,0.0,0.0,0.0,0.0,0.0,0.0,0.0,0.0,0.0,0.0,0.0,0.0,0.0,0.0,0.0,0.0,0.0,0.0,0.0,0.0,-2.6219,-2.7199,-2.8721,-3.1365,-3.213,-3.2588,-3.2881,-3.156,-3.0272,-2.9154,-2.7141,0.0,0.0,0.0,0.0,0.0,0.0,0.0,0.0,0.0,0.0,0.0,0.0,0.0,0.0,0.0,0.0,0.0,0.0,0.0,0.0,0.0,0.0,0.0,0.0,0.0,0.0,0.0,0.0,0.0,0.0,0.0,0.0,0.0,0.0,0.0,0.0,0.0,0.0,0.0,0.0,0.0,0.0,0.0,0.0,0.0,0.0,0.0,0.0,0.0,0.0,0.0,0.0,0.0,-3.6671,-3.7168,-3.5944,-3.7186,-3.7027,-3.5768,-3.3682,-3.268,-3.2453,0.0,0.0,0.0,0.0,0.0,0.0,0.0,0.0,0.0,0.0,0.0,0.0,0.0,0.0,0.0,0.0,0.0,0.0,0.0,0.0,0.0,0.0,0.0,0.0,0.0,-2.7645,-2.6858,0.0,0.0,0.0,0.0,0.0,0.0,0.0,0.0,0.0,0.0,0.0,0.0,-2.6207,-2.6993,-2.797,-2.9601,-3.0315,-3.0513,-3.0133,-2.9697,-2.9121,-2.834,-2.709,-2.5869,0.0,0.0,0.0,0.0,0.0,0.0,0.0,0.0,0.0,0.0,0.0,0.0,0.0,0.0,0.0,0.0,0.0,0.0,0.0,0.0,0.0,0.0,0.0,0.0,0.0,0.0,0.0,0.0,0.0,0.0,0.0,0.0,-3.3968,-3.5867,0.0,0.0,0.0,0.0,0.0,0.0,0.0,0.0,0.0,0.0,0.0,0.0,0.0,0.0,-3.6288,-3.8558,-3.9233,-3.8341,-3.9772,-4.0308,-4.0061,-3.9829,-3.9925,-4.006,-3.8679,0.0,-3.3596,-3.2541,0.0,0.0,0.0,0.0,0.0,0.0,0.0,0.0,0.0,0.0,0.0,0.0,0.0,0.0,0.0,0.0,0.0,0.0,0.0,0.0,0.0,0.0,-2.6616,-2.677,-2.739,-2.7476,0.0,-2.5143,-2.4629,-2.3721,-2.332,0.0,0.0,0.0,0.0,0.0,0.0,0.0,-2.5164,-2.5727,-2.6576,-2.8308,-2.8869,-2.9331,-2.9609,-2.9258,-2.8799,-2.832,-2.709,-2.6143,-2.5586,-2.4258,0.0,0.0,0.0,0.0,0.0,0.0,0.0,0.0,0.0,0.0,0.0,0.0,0.0,0.0,0.0,0.0,0.0,0.0,0.0,0.0,0.0,0.0,0.0,0.0,0.0,0.0,0.0,0.0,0.0,-3.1443,-3.6029,-3.6195,-3.5548,-3.4528,0.0,0.0,0.0,0.0,0.0,0.0,0.0,0.0,0.0,-3.6739,-3.8279,-3.9417,-4.0142,-4.1833,-4.2467,-4.2016,-4.2982,-4.339,-4.3307,-4.3142,-4.2998,-4.2885,-4.1517,-3.9748,-3.7609,-3.5059,-3.3759,-3.3156,0.0,0.0,0.0,0.0,-3.121,-3.121,-3.1587,-3.1888,0.0,0.0,0.0,0.0,0.0,0.0,0.0,0.0,0.0,0.0,0.0,0.0,0.0,-2.8022,-2.8256,-2.7981,-2.731,-2.6836,-2.6201,0.0,-2.4727,-2.4385,-2.3701,0.0,0.0,0.0,0.0,-2.3975,-2.5273,-2.583,-2.667,-2.8135,-2.8457,-2.874,-2.917,-2.9033,-2.8838,-2.8662,-2.7676,-2.6807,-2.6133,-2.4844,-2.4033,0.0,0.0,0.0,0.0,0.0,0.0,0.0,0.0,0.0,0.0,0.0,0.0,0.0,0.0,0.0,0.0,0.0,0.0,0.0,0.0,0.0,0.0,0.0,0.0,0.0,0.0,0.0,0.0,-3.5921,-3.7809,-3.7017,-3.7466,-3.6963,0.0,0.0,0.0,0.0,0.0,0.0,-3.818,-3.8731,-3.9554,-4.0761,-4.1836,-4.2701,-4.3359,-4.4511,-4.508,-4.508,-4.5574,-4.5798,-4.5798,-4.5798,-4.5439,-4.4835,-4.3252,-4.2045,-4.0946,-3.7386,-3.5554,-3.4826,-3.3721,-3.2943,-3.2491,-3.2918,-3.2893,-3.2767,-3.3608,-3.3897,-3.3696,-3.2288,0.0,-2.9916,-2.7847,0.0,0.0,0.0,0.0,-2.4661,-2.6696,-2.6881,-2.692,-2.8656,-2.8685,-2.8291,-2.8291,-2.7959,-2.7353,0.0,-2.5977,-2.5625,-2.4736,0.0,0.0,0.0,0.0,-2.4336,-2.543,-2.6055,-2.6787,-2.7851,-2.8164,-2.8418,-2.873,-2.876,-2.876,-2.876,-2.8066,-2.7334,-2.6582,-2.5391,-2.4502,-2.3965,0.0,0.0,0.0,0.0,0.0,0.0,0.0,0.0,0.0,0.0,0.0,0.0,0.0,0.0,0.0,0.0,0.0,0.0,0.0,0.0,0.0,0.0,0.0,0.0,0.0,0.0,0.0,0.0,0.0,-4.0487,-4.1171,0.0,0.0,0.0,0.0,-3.8904,-4.0839,-4.2052,-4.212,-4.2469,-4.3251,-4.4607,-4.494,-4.5424,-4.6112,-4.6815,-4.716,-4.716,-4.7189,-4.7204,-4.7204,-4.7204,-4.6875,-4.6051,-4.3721,-4.2606,-4.2123,-3.8587,-3.6471,-3.5391,-3.4286,-3.352,-3.3031,-3.3068,-3.3382,-3.3822,-3.3884,-3.3897,-3.3972,-3.436,-3.3024,-3.1233,-3.056,-2.8449,0.0,0.0,-2.5918,-2.5205,-2.6212,-2.667,-2.71,-2.7653,-2.8084,-2.8291,-2.8291,-2.7959,-2.7529,0.0,-2.6631,-2.6074,-2.5185,0.0,-2.4853,-2.4414,-2.4365,-2.456,-2.5039,-2.585,-2.6562,-2.7031,-2.7803,-2.8301,-2.832,-2.833,-2.833,-2.833,-2.791,-2.7461,-2.7002,-2.6143,-2.5264,-2.4404,-2.2531,0.0,0.0,0.0,0.0,0.0,0.0,0.0,0.0,0.0,0.0,0.0,0.0,0.0,0.0,0.0,0.0,0.0,0.0,0.0,0.0,0.0,0.0,0.0,0.0,0.0,0.0,0.0,0.0,-4.3277,-4.5098,0.0,-4.3814,-4.4086,-4.4316,-4.4091,-4.5261,-4.6107,-4.6422,-4.6981,-4.7141,-4.678,-4.7327,-4.7395,-4.695,-4.7189,-4.7309,-4.7309,-4.7309,-4.7085,-4.6681,-4.6681,-4.6307,-4.5481,-4.3112,-4.2026,-4.1801,-3.8897,-3.7487,-3.7023,-3.5918,-3.514,-3.4713,-3.5064,-3.509,-3.5014,-3.5353,-3.5491,-3.5341,-3.4474,-3.3408,-3.224,-3.0987,-2.9875,-2.9041,-2.8743,-2.8337,-2.8183,-2.9042,-2.8729,-2.835,-2.9198,-2.879,-2.8223,-2.7949,-2.7988,-2.7939,-2.7519,-2.709,-2.6602,-2.6016,-2.5684,-2.5254,-2.4521,-2.4658,-2.5,-2.5439,-2.6025,-2.666,-2.7363,-2.7705,-2.7998,-2.8271,-2.8291,-2.8174,-2.791,-2.7754,-2.7353,-2.6641,-2.5771,-2.5029,-2.4424,-2.2938,-2.1627,0.0,0.0,0.0,0.0,0.0,0.0,0.0,0.0,0.0,0.0,0.0,0.0,0.0,0.0,0.0,0.0,0.0,0.0,0.0,0.0,0.0,0.0,0.0,0.0,0.0,0.0,-4.5516,-4.5516,-4.7922,-4.8923,-4.7316,-4.7596,-4.7917,-4.7911,-4.8832,-4.9544,-4.9926,-5.0248,-5.0042,-4.9202,-4.8901,-4.8444,-4.7834,-4.7452,-4.7309,-4.7309,-4.7309,-4.707,-4.6651,-4.6426,-4.5948,-4.5191,-4.2997,-4.1736,-4.1182,-3.8985,-3.7927,-3.7651,-3.6923,-3.6307,-3.5868,-3.6219,-3.6132,-3.5868,-3.6232,-3.6119,-3.5629,-3.4537,-3.3809,-3.3158,-3.1871,-3.1424,-3.1229,-3.0743,-3.05,-3.0442,-3.1166,-3.0383,-2.9419,-2.9982,-2.9201,-2.8135,-2.7568,-2.7891,-2.8164,-2.7744,-2.7549,-2.7314,-2.6894,-2.6455,-2.5967,-2.5381,-2.5293,-2.5459,-2.5898,-2.6211,-2.6602,-2.7178,-2.749,-2.7715,-2.7851,-2.7998,-2.79,-2.7471,-2.7314,-2.6914,-2.6201,-2.5459,-2.4795,-2.4219,-2.2582,-2.1093,-1.9732,0.0,0.0,0.0,0.0,0.0,0.0,0.0,0.0,0.0,0.0,0.0,0.0,0.0,0.0,0.0,0.0,0.0,0.0,0.0,0.0,0.0,0.0,0.0,-4.0991,-4.4587,-4.7259,-4.7332,-4.9675,-5.0608,-4.9089,-4.9711,-5.0248,-5.0202,-5.1522,-5.2334,-5.2334,-5.2054,-5.1921,-5.1921,-4.9915,-4.8825,-4.8825,-4.7834,-4.7309,-4.7309,-4.7309,-4.7279,-4.7219,-4.6576,-4.5903,-4.5102,-4.3306,-4.188,-4.0495,-3.8772,-3.7738,-3.7161,-3.7161,-3.6835,-3.6358,-3.6358,-3.6358,-3.6358,-3.6358,-3.5655,-3.4751,-3.4751,-3.4361,-3.3809,-3.3307,-3.3048,-3.2909,-3.2816,-3.2306,-3.1923,-3.2297,-3.1396,-3.0274,-2.9842,-2.8968,-2.8018,-2.7178,-2.7656,-2.8125,-2.7705,-2.7969,-2.8125,-2.7734,-2.7314,-2.7021,-2.7002,-2.6289,0.0,-2.6318,-2.6387,-2.6396,-2.6406,-2.7158,-2.75,-2.707,-2.7422,-2.7471,-2.7002,-2.6592,-2.6162,-2.5713,-2.5264,-2.4629,-2.3779,-2.1453,-1.9033,-1.6712,0.0,0.0,0.0,0.0,0.0,0.0,0.0,0.0,0.0,0.0,0.0,0.0,0.0,0.0,0.0,0.0,0.0,0.0,0.0,0.0,0.0,0.0,-4.2741,-4.5233,-4.8024,-5.0707,-5.2999,-5.3976,-5.4273,-5.3794,-5.3554,-5.3163,-5.2619,-5.2942,-5.3179,-5.3179,-5.3078,-5.2714,-5.1921,-5.0611,-4.9615,-4.8825,-4.7834,-4.7309,-4.7309,-4.7309,-4.68,-4.5843,-4.5663,-4.4945,-4.3787,-4.2446,-4.1256,-4.0032,-3.8626,-3.7505,-3.6584,-3.6584,-3.6496,-3.6358,-3.6358,-3.6358,-3.6358,-3.6358,-3.5906,-3.5316,-3.5316,-3.4675,-3.4022,-3.4675,-3.4516,-3.4322,-3.4626,-3.4649,-3.4503,-3.4542,-3.2727,-3.0855,-3.1075,-2.9185,-2.7217,-2.668,-2.6982,-2.7246,-2.6826,-2.708,-2.7432,-2.7627,-2.7568,-2.7275,-2.665,-2.6357,0.0,-2.5947,-2.6191,-2.6504,-2.6807,-2.7334,-2.7617,-2.75,-2.7598,-2.7217,-2.6152,-2.5977,-2.5576,-2.4814,-2.4365,-2.3877,-2.333,-2.1776,-2.0262,0.0,0.0,0.0,0.0,0.0,0.0,0.0,0.0,0.0,0.0,0.0,0.0,0.0,0.0,0.0,0.0,0.0,0.0,0.0,0.0,0.0,0.0,-4.1767,-4.4939,-4.8519,-5.0459,-5.2479,-5.5301,-5.543,-5.5358,-5.5671,-5.4774,-5.3929,-5.3501,-5.3501,-5.3501,-5.3501,-5.3179,-5.2842,-5.254,-5.0879,-4.9785,-4.9456,-4.7988,-4.7309,-4.7309,-4.7025,-4.6486,-4.5708,-4.514,-4.4466,0.0,-4.2747,-4.1684,-4.0575,-3.9858,-3.8741,0.0,0.0,0.0,0.0,0.0,-3.5881,-3.5667,-3.5667,-3.5316,-3.4851,-3.4851,-3.4424,-3.3972,-3.4387,-3.4613,-3.4738,-3.4826,-3.5014,-3.5203,-3.5203,-3.303,-3.0908,-3.1072,-2.9006,-2.6846,-2.625,-2.6592,-2.6894,-2.6465,-2.6728,0.0,-2.7353,-2.7246,-2.7021,-2.6699,-2.6348,-2.6094,-2.6016,-2.6074,-2.6211,-2.6455,-2.6875,-2.706,-2.6875,-2.7021,0.0,0.0,0.0,-2.4795,-2.3916,-2.3652,0.0,0.0,0.0,-2.1244,-1.9984,0.0,0.0,0.0,-1.5933,-1.5578,0.0,0.0,0.0,0.0,0.0,0.0,0.0,0.0,0.0,0.0,0.0,0.0,0.0,0.0,0.0,0.0,-4.4401,-4.7094,-5.0638,-5.1703,-5.298,-5.5428,-5.5032,-5.4878,-5.5477,-5.4345,-5.3501,-5.3501,-5.3501,-5.3467,-5.3365,0.0,0.0,0.0,0.0,-4.9613,-5.0157,-4.8232,-4.7234,-4.707,-4.6561,-4.6247,-4.6052,-4.4855,-4.4272,-4.4167,-4.3584,-4.2644,-4.1587,-4.1515,-4.0336,-3.8478,-3.6935,-3.6357,-3.6119,-3.5629,-3.514,-3.4726,-3.4726,0.0,0.0,-3.3972,-3.3909,-3.3734,-3.337,-3.3897,-3.4537,-3.411,-3.4349,-3.4635,-3.4532,-3.2663,-3.0695,-3.0153,-2.8338,-2.666,-2.5898,-2.6338,-2.6758,-2.6387,-2.6611,-2.6865,-2.6865,-2.6641,-2.6572,-2.6894,-2.6299,-2.5937,-2.6269,-2.6016,-2.581,-2.581,0.0,0.0,-2.585,-2.6162,-2.6006,-2.5127,-2.4619,-2.3984,-2.3174,-2.3135,-2.2959,-2.2588,-2.2398,-2.1768,-2.0517,-1.9276,-1.8289,-1.7505,-1.6292,-1.5832,0.0,0.0,0.0,0.0,0.0,0.0,0.0,0.0,0.0,0.0,0.0,0.0,0.0,0.0,0.0,-4.3741,-4.5517,-4.7454,-4.9977,-5.0952,-5.2486,-5.5373,-5.5073,-5.4651,-5.4818,-5.3994,-5.3501,-5.3501,-5.3501,-5.3213,-5.257,-5.2384,0.0,-5.1674,-5.0089,-4.9133,-4.8701,-4.7773,-4.6756,-4.5678,0.0,0.0,-4.4691,-4.4436,-4.4018,-4.3524,-4.3389,-4.2644,-4.1558,-4.104,-3.9187,-3.6737,-3.6433,-3.5801,-3.5027,-3.4926,-3.4813,-3.4726,-3.4726,-3.4361,-3.3972,-3.4412,-3.396,-3.3382,-3.4161,-3.4248,0.0,-3.4462,-3.4638,-3.4441,-3.3477,-3.1821,-3.0069,-2.8956,-2.7309,-2.5937,-2.5771,-2.5869,-2.5957,-2.5879,-2.5928,-2.5986,-2.5986,-2.6484,-2.6807,-2.6543,-2.6367,-2.6162,-2.5898,-2.6103,-2.626,-2.626,-2.6641,-2.6728,-2.6299,-2.6338,-2.6006,-2.5127,-2.4346,-2.3682,-2.3164,-2.3135,-2.3096,-2.3018,-2.2007,-2.0918,-1.9751,-1.8493,-1.7345,-1.6204,-1.592,-1.5832,0.0,0.0,0.0,0.0,0.0,0.0,0.0,0.0,0.0,0.0,0.0,-3.4738,0.0,0.0,-4.3183,-4.5821,-4.687,-4.7986,-4.983,-5.0422,-5.1657,-5.429,-5.4257,-5.4218,-5.4527,-5.3946,-5.3501,-5.3501,-5.3129,-5.2723,-5.2317,-5.1606,-5.12,-5.1217,-4.9257,-4.8301,-4.8285,-4.6946,-4.5963,-4.5289,-4.5304,-4.496,-4.4302,-4.3973,-4.3464,-4.2851,-4.2851,-4.2312,-4.1454,-4.0808,-3.9022,-3.675,-3.6356,-3.545,-3.4311,-3.4311,-3.4135,-3.3897,-3.3897,-3.3721,-3.3533,-3.3809,-3.3533,-3.3181,-3.3734,-3.3709,-3.3545,-3.3822,-3.3897,-3.3619,-3.2394,-3.0894,-2.9498,-2.8306,-2.683,-2.5742,-2.5742,-2.5742,-2.5742,-2.5742,-2.5742,-2.5742,-2.5742,-2.6094,-2.6299,-2.6094,-2.6064,-2.5986,-2.5762,-2.5928,-2.6064,-2.6064,-2.625,-2.6289,-2.6084,-2.5859,-2.5439,-2.4785,-2.4141,-2.3594,-2.3154,-2.3135,-2.3135,-2.3135,-2.2492,-2.1578,-2.0395,-1.9222,-1.7948,-1.6763,-1.6109,-1.5832,0.0,0.0,0.0,0.0,0.0,0.0,0.0,0.0,-2.4345,-2.8675,-3.2805,-3.6668,-4.0063,-4.2543,-4.4908,-4.7496,-4.8037,-4.8545,-4.9712,-4.9999,-5.0759,-5.2605,-5.2994,-5.3275,-5.3863,-5.3372,-5.3061,-5.3061,-5.2452,-5.2029,-5.1877,-5.0744,-5.0304,-5.0777,-4.8425,-4.7396,-4.7885,-4.6134,-4.517,-4.4915,-4.4511,-4.4242,-4.4107,-4.3584,-4.297,-4.2434,-4.2222,-4.1803,-4.1145,-4.0621,-3.903,-3.6916,-3.6405,-3.5163,-3.3746,-3.3746,-3.3382,-3.2918,-3.3031,-3.293,-3.278,-3.3006,-3.3006,-3.293,-3.3043,-3.3081,-3.3081,-3.3081,-3.3081,-3.2797,-3.1223,-3.0135,-2.9039,-2.7589,-2.6476,-2.5742,-2.5742,-2.5674,-2.5635,-2.5723,-2.5664,-2.5635,-2.5723,-2.5742,-2.5742,-2.5742,-2.5742,-2.5742,-2.5742,-2.5742,-2.5742,-2.5742,-2.5742,-2.5703,-2.5615,-2.5195,-2.4756,-2.4316,-2.3975,-2.3594,-2.3154,-2.3135,-2.3135,-2.3135,-2.2862,-2.2129,-2.0935,-1.9761,-1.8495,-1.7318,-1.6292,-1.5832,-0.6699,-0.7996,-0.9927,-1.2011,-1.3913,-1.6557,0.0,0.0,-2.6904,-3.1618,-3.5931,-3.9723,-4.2451,-4.4816,-4.6735,-4.775,-4.846,-4.8934,-4.9103,-4.9678,-5.0215,-5.043,-5.1061,-5.1471,-5.1566,-5.1536,-5.1471,-5.1471,-5.1386,-5.1048,-5.0371,-5.0185,-4.983,-4.9272,-4.7903,-4.6917,-4.6413,-4.5675,-4.4706,-4.3554,-4.4062,-4.4003,-4.3449,-4.3359,-4.297,-4.2404,-4.1743,-4.1115,-4.0502,-4.0427,-3.8739,-3.6294,-3.6225,-3.5006,-3.3169,-3.3169,-3.2805,-3.239,-3.2893,-3.2416,-3.175,-3.2754,-3.2729,-3.2403,-3.2918,-3.3081,-3.3081,-3.3081,-3.3081,-3.2525,-3.0226,-2.9498,-2.8855,-2.6476,-2.583,-2.5742,-2.5742,-2.543,-2.5264,-2.5664,-2.541,-2.5273,-2.5674,-2.5742,-2.5742,-2.5742,-2.5742,-2.5742,-2.5742,-2.5742,-2.5742,-2.5742,-2.5742,-2.5576,-2.5176,-2.4736,-2.4307,-2.3887,-2.3818,-2.3594,-2.3154,-2.3135,-2.3135,-2.3135,-2.2031,-2.0935,-1.967,-1.8503,-1.7217,-1.6015,-1.5825,-1.5832,-0.6195,-0.8172,0.0,0.0,-1.5602,-1.9261,-2.2611,-2.5599,-2.8599,-3.1875,-3.5247,-3.8446,-4.1278,-4.3768,-4.5989,0.0,-4.8528,-4.8849,-4.8426,-4.8646,-4.8663,-4.8223,-4.8443,-4.9323,-5.1048,-5.1217,-5.1217,-5.1217,-5.0811,-5.0422,-5.0101,-4.9678,-4.9323,-4.9018,-4.7968,-4.7054,-4.6173,-4.5415,-4.4395,-4.3329,-4.3614,-4.3404,-4.2776,-4.2776,-4.2207,-4.119,-4.0531,-4.0083,-3.9828,-3.9828,-3.8234,-3.5742,-3.6073,-3.4526,-3.2127,-3.2453,-3.2416,-3.2202,-3.2114,-3.1788,-3.1461,-3.1938,-3.1938,-3.1775,-3.2014,-3.2102,-3.2102,-3.2102,-3.2328,-3.2031,-2.961,-2.9194,-2.8762,-2.6294,-2.5742,-2.5664,-2.54,-2.5205,-2.5049,-2.498,-2.4814,-2.4746,-2.4932,-2.4971,-2.4971,-2.4971,-2.541,-2.5742,-2.5742,-2.5508,-2.5254,-2.5,-2.4971,-2.4893,-2.4707,-2.4521,-2.4238,-2.3818,-2.3789,-2.3306,-2.2138,-2.2031,-2.1756,-2.1042,-2.0486,-1.967,-1.8411,-1.7963,-1.7037,-1.5832,-1.5832,-1.5832,-0.4825,0.0,0.0,-1.2623,-1.6771,-2.0793,-2.337,-2.6029,-2.8709,-3.1203,-3.3595,-3.6354,-3.9725,-4.2285,-4.466,-4.7207,-4.8223,-4.8528,-4.8003,-4.7733,-4.7411,-4.6853,-4.6616,-4.7411,-4.9763,-4.9999,-4.9999,-4.9999,-4.9678,-4.9492,-4.9492,-4.9187,-4.8917,-4.8714,-4.7797,-4.678,-4.5613,-4.4721,-4.373,-4.2791,-4.2791,-4.2551,-4.2087,-4.1908,-4.1205,-4.0113,-3.9634,-3.932,-3.9155,-3.9015,-3.7543,-3.5397,-3.5483,-3.3847,-3.1424,-3.1675,-3.1775,-3.1738,-3.1474,-3.1198,-3.0997,-3.1298,-3.1298,-3.1198,-3.1348,-3.1386,-3.1304,-3.1046,-3.1249,-3.1016,-2.8555,-2.8274,-2.8001,-2.5829,-2.5371,-2.5283,-2.4961,-2.4795,-2.4658,-2.4453,-2.4326,-2.4277,-2.4394,-2.4414,-2.4414,-2.4414,-2.4961,-2.5371,-2.5371,-2.5088,-2.4766,-2.4453,-2.4316,-2.4248,-2.4248,-2.4131,-2.3935,-2.3633,-2.3613,-2.2904,-2.1391,-2.1293,-2.0747,-1.9497,-1.9131,-1.8588,-1.7692,-1.7318,-1.6669,-1.5832,-1.5832,-1.5832,0.0,0.0,-1.0474,-1.399,-1.6998,-2.0175,-2.3941,-2.5263,-2.6579,-2.9843,-3.1681,-3.4145,-3.8806,-4.096,-4.3108,-4.6338,-4.7462,-4.7953,-4.7919,-4.7293,-4.6819,-4.6786,-4.6177,-4.6058,0.0,-4.6921,-4.6921,-4.6921,-4.7581,-4.7986,-4.7986,-4.8629,-4.868,-4.797,-4.7048,-4.575,-4.4173,-4.3224,-4.2337,-4.1444,-4.1444,-4.1429,-4.1384,-4.0756,-4.0083,-3.9454,-3.9424,-3.9035,-3.8396,-3.8031,-3.6912,-3.5278,-3.4246,-3.2888,-3.1336,-3.0846,-3.067,-3.0733,-3.1223,-3.0708,-3.0018,-3.1047,-3.1047,-3.0733,-3.1235,-3.1386,-3.121,-3.0109,-2.9869,-2.935,-2.6985,-2.6383,-2.6045,-2.472,-2.4453,-2.4453,-2.4443,-2.4111,-2.3945,-2.4346,-2.4092,-2.3935,-2.4346,-2.4414,-2.4414,-2.4414,-2.4443,-2.4453,-2.4453,-2.4443,-2.4434,-2.4414,-2.4053,-2.3809,-2.3809,-2.3418,-2.3174,-2.3154,-2.3154,-2.2599,-2.1382,-2.1293,-2.0747,-1.9497,-1.8319,-1.7777,-1.7692,-1.648,-1.5825,-1.5832,-1.5832,-1.5832,-0.1714,0.0,-1.082,-1.3034,-1.6866,-2.073,-2.2784,-2.4819,-2.6252,-2.6265,-2.7299,-2.9008,-3.1471,-3.4906,-3.8616,-4.2608,-4.5394,-4.72,-4.763,-4.7509,-4.7143,-4.662,-4.6323,0.0,0.0,0.0,0.0,-4.7374,-4.7614,-4.7751,-4.7751,-4.7597,-4.7428,-4.7175,-4.6885,-4.6167,-4.4967,-4.4109,-4.3161,-4.2276,-4.1219,-4.0726,-4.0696,-3.9574,-3.8945,-3.8706,-3.8272,-3.7958,-3.7749,-3.7608,-3.6259,-3.4242,-3.4175,-3.2618,-3.0357,-3.0545,-3.0382,-3.0093,-3.0269,-3.0093,-2.9854,-3.0218,-3.0218,-3.0093,-3.0281,-2.9806,-2.9129,-2.8793,-2.8385,-2.7799,-2.616,-2.6041,-2.6003,-2.468,-2.4414,-2.4346,-2.4062,-2.3896,-2.375,-2.3594,-2.3457,-2.3408,-2.3545,-2.3564,-2.3564,-2.3564,-2.4053,-2.4316,-2.4033,-2.4004,-2.3887,-2.3594,-2.3447,-2.3359,-2.3359,-2.3223,-2.2765,-2.1943,-2.1933,-2.1033,-1.8948,-1.8956,-1.8311,-1.7117,-1.6662,-1.648,-1.648,-1.6015,-1.5832,-1.5832,-1.5832,-1.5832,-0.0722,-0.565,-0.9789,-1.1767,-1.5458,-1.9048,-2.0175,-2.2126,-2.3535,-2.2929,-2.3211,-2.4345,-2.6773,-3.0554,-3.4602,-3.8724,-4.2293,-4.4935,-4.6099,-4.6035,-4.6088,-4.655,-4.6269,-4.6187,0.0,0.0,0.0,-4.723,-4.7298,-4.7311,-4.7311,-4.6988,-4.6667,-4.6413,-4.6143,-4.5471,-4.4294,-4.3439,-4.2409,-4.1241,-4.0512,-3.9888,-3.9305,-3.8437,-3.7928,-3.7704,-3.7494,-3.7285,-3.709,-3.6941,-3.5539,-3.3619,-3.3561,-3.2038,-2.9829,-3.0193,-3.0093,-2.9792,-2.9792,-2.9792,-2.9792,-2.9792,-2.9792,-2.9702,-2.9287,-2.8676,-2.7924,-2.7105,-2.6673,-2.6097,-2.4912,-2.4876,-2.4903,-2.4136,-2.3955,-2.3887,-2.3613,-2.3555,-2.3477,-2.3193,-2.3135,-2.3135,-2.3135,-2.3135,-2.3135,-2.3135,-2.3613,-2.3857,-2.3594,-2.3555,-2.3447,-2.3164,-2.3135,-2.296,-2.2492,-2.2501,-2.1952,-2.0755,-2.0666,-1.9761,-1.7777,-1.7692,-1.7131,-1.5825,-1.5832,-1.5832,-1.5832,-1.5832,-1.5832,-1.5832,-1.5832,-1.5832,0.0816,-0.3624,-0.7726,-1.0294,-1.2975,-1.5253,-1.6439,-1.7644,-1.8811,-1.9847,-1.9514,-2.0381,0.0,0.0,-3.1165,-3.5004,-3.8675,-4.1725,-4.3774,-4.3501,-4.4064,0.0,0.0,0.0,0.0,0.0,0.0,-4.6518,0.0,-4.6603,-4.6603,-4.6635,-4.6353,-4.5618,-4.4857,-4.3742,-4.2211,-4.1387,-4.0188,-3.8627,-3.9327,-3.8846,-3.7404,-3.7375,-3.7045,-3.6522,-3.7075,-3.6985,-3.641,-3.6064,-3.4967,-3.3449,-3.2439,-3.1099,-2.9792,-2.9792,-2.9792,-2.9792,-2.9792,-2.9792,-2.9792,-2.9792,-2.9792,-2.9624,-2.8438,-2.8084,-2.7591,-2.5452,-2.4787,-2.4457,-2.3387,-2.3135,-2.3135,-2.3135,-2.3135,-2.3135,-2.3135,-2.3135,-2.3135,-2.3135,-2.3135,-2.3135,-2.3135,-2.3135,-2.3135,-2.3135,-2.3135,-2.3135,-2.3135,-2.3135,-2.3135,-2.3135,-2.3135,-2.2589,-2.1382,-2.132,-2.0782,-1.9497,-1.9405,-1.8864,-1.7692,-1.7598,-1.7037,-1.5825,-1.5832,-1.5832,-1.5832,-1.5832,-1.5832,-1.5832,-1.5832,-1.5832,0.2158,-0.2818,-0.725,-0.791,-1.0777,-1.353,-1.386,-1.6002,-1.7691,-1.6436,-1.5834,-1.5961,0.0,0.0,0.0,-3.3945,-3.9874,0.0,-4.5978,-4.6541,0.0,-4.7834,0.0,-4.8423,-4.8436,-4.8475,0.0,0.0,-4.7093,-4.6966,-4.6491,-4.5527,-4.4729,-4.4012,-4.3267,-4.2723,-4.2286,-4.1425,-4.0188,-3.8627,-3.8797,-3.8335,-3.7389,-3.6926,-3.6641,-3.6477,-3.6133,-3.5908,-3.5774,-3.5644,-3.4513,-3.2828,-3.254,-3.1325,-2.9792,-2.9792,-2.9792,-2.9792,-2.9792,-2.9792,-2.9792,-2.9792,-2.9792,-2.9624,-2.8438,-2.7522,-2.6625,-2.5199,-2.4211,-2.3464,-2.3135,-2.3135,-2.3135,-2.3135,-2.3135,-2.3135,-2.3135,-2.3135,-2.3135,-2.3135,-2.3135,-2.3135,-2.3135,-2.3135,-2.3135,-2.3135,-2.3135,-2.3135,-2.3135,-2.3135,-2.3135,-2.3135,-2.3135,-2.2589,-2.1382,-2.1302,-2.0404,-1.8326,-1.8141,-1.7591,-1.6386,-1.6292,-1.6109,-1.5832,-1.5832,-1.5832,-1.5832,-1.5832,-1.5832,-1.5832,-1.5832,-1.5832,0.2821,-0.0872,-0.445,-0.6596,-0.8782,-1.0373,-1.0353,-1.2608,-1.4027,-1.1824,-1.1169,0.0,0.0,0.0,0.0,0.0,0.0,0.0,-4.5601,-4.6013,-4.6652,0.0,-4.8437,0.0,-4.8305,-4.7991,-4.7516,0.0,-4.6837,-4.6442,-4.5421,-4.4418,-4.358,-4.2929,-4.2202,-4.166,-4.1322,-4.1167,-4.0099,-3.8277,-3.8576,-3.7944,-3.6567,-3.6222,-3.6058,-3.6028,0.0,-3.5504,-3.5504,-3.5504,-3.4341,-3.2593,-3.2593,-3.1476,-2.9792,-2.9792,-2.9792,-2.9792,-2.9792,-2.9792,-2.9792,-2.9792,-2.9456,-2.8858,-2.7695,-2.6625,-2.5546,-2.4382,-2.3551,-2.3135,-2.3135,-2.3135,-2.3135,-2.3135,-2.3135,-2.3135,-2.3135,-2.3135,-2.3135,-2.3135,-2.3135,-2.3135,-2.3135,-2.3135,-2.3135,-2.3135,-2.3135,-2.2872,-2.2403,-2.2775,-2.3135,-2.3135,-2.2589,-2.1854,-2.0576,-2.0034,-1.8856,-1.7037,-1.685,-1.6574,-1.5832,-1.5832,-1.5832,-1.5832,-1.5832,-1.5832,-1.5832,-1.5832,-1.5832,-1.5832,-1.5832,-1.5832,0.3432,0.1511,-0.0711,-0.4812,-0.6034,-0.6186,-0.6234,-0.7795,-0.865,-0.6574,0.0,-0.7534,-1.2248,-1.8437,-2.4417,-2.9438,0.0,-4.0395,-4.4094,-4.4128,-4.4976,-4.8178,-4.7707,-4.7245,-4.7467,-4.6911,-4.6445,-4.6257,-4.6121,-4.5534,-4.4281,-4.3535,-4.2804,-4.2052,-4.139,-4.0747,-4.0087,-4.073,-3.998,-3.7822,-3.8472,-3.7635,-3.5504,-3.5504,-3.5504,-3.5504,0.0,0.0,-3.5504,-3.5359,-3.4259,-3.2593,-3.2464,-3.1341,-2.9792,-2.9792,-2.9792,-2.9792,-2.9792,-2.9792,-2.9792,-2.9792,-2.9106,-2.8096,-2.6883,-2.5808,-2.4798,-2.3474,-2.3135,-2.3135,-2.3135,-2.3135,-2.3135,-2.3135,-2.3135,-2.3135,-2.3135,-2.3135,-2.3135,-2.3135,-2.3135,-2.3135,-2.3135,-2.3135,-2.3135,-2.3135,-2.3135,-2.2677,-2.1658,-2.2306,-2.2775,-2.2687,-2.1667,-2.0567,-1.9405,-1.8319,-1.7131,-1.5927,-1.5832,-1.5832,-1.5832,-1.5832,-1.5832,-1.5832,-1.5832,-1.5832,-1.5832,-1.5832,-1.5832,-1.5832,-1.5832,-1.5832,0.4849,0.306,0.1559,0.0692,-0.0509,-0.1649,-0.189,-0.2138,0.0,0.0,-0.13,-0.2467,-0.6681,-1.359,-2.0746,-2.7216,0.0,0.0,0.0,0.0,-4.66,0.0,0.0,0.0,0.0,0.0,0.0,0.0,0.0,-4.5239,-4.4844,-4.3685,-4.2242,-4.0527,-4.0341,-4.0206,-4.007,-4.0206,-3.9465,-3.7822,-3.7934,-3.7121,-3.5504,-3.5504,-3.5504,-3.5504,-3.5504,0.0,-3.5439,-3.461,-3.3602,-3.2522,-3.1742,-3.0771,-2.9792,-2.9792,-2.9792,-2.9792,-2.9792,-2.9792,-2.9792,-2.9792,-2.9702,-2.9118,-2.7139,-2.6389,-2.5808,-2.3724,-2.3135,-2.3135,-2.3135,-2.3135,-2.3135,-2.3135,-2.3135,-2.3135,-2.3135,-2.3135,-2.3135,-2.3135,-2.3135,-2.3135,-2.3135,-2.3135,-2.3135,-2.3135,-2.3135,-2.3047,-2.2775,-2.212,-2.1212,-2.0223,-1.9943,-1.9314,-1.8141,-1.7777,-1.7131,-1.5927,-1.5832,-1.5832,-1.5832,-1.5832,-1.5832,-1.5832,-1.5832,-1.5832,-1.5832,-1.5832,-1.5832,-1.5832,-1.5832,-1.5832,0.7831,0.6902,0.6392,0.5928,0.522,0.421,0.2756,0.0,0.0,0.0,0.2867,0.0885,-0.6185,0.0,0.0,0.0,0.0,0.0,0.0,0.0,0.0,0.0,0.0,0.0,0.0,0.0,0.0,0.0,0.0,-4.4175,-4.3833,-4.2597,-4.1279,-3.9997,-3.9676,-3.9326,-3.8954,-3.9326,-3.8583,-3.6718,-3.707,-3.626,-3.4457,-3.4457,-3.4457,-3.4457,-3.4457,0.0,-3.4394,-3.3471,-3.25,-3.1585,-3.0699,-2.9727,-2.8913,-2.8913,-2.8913,-2.8963,-2.9239,-2.9151,-2.9013,-2.9603,-2.904,-2.7879,-2.6812,-2.5641,-2.4478,-2.3387,-2.3135,-2.3135,-2.3135,-2.3135,-2.3135,-2.3135,-2.3135,-2.3135,-2.3135,-2.3135,-2.3135,-2.3135,-2.3135,-2.3135,-2.3135,-2.3135,-2.3135,-2.3135,-2.2589,-2.1943,-2.1311,-2.0133,-1.9679,-2.0395,-1.9314,-1.8326,-1.7785,-1.7131,-1.648,-1.5825,-1.5832,-1.5832,-1.5832,-1.5832,-1.5832,-1.5832,-1.5832,-1.5832,-1.5832,-1.5832,-1.5832,-1.5832,-1.5832,-1.5832,1.1727,1.1226,1.1211,1.0145,0.968,0.8927,0.6495,0.561,0.0,0.0,0.5664,0.3113,-0.5343,0.0,0.0,0.0,0.0,0.0,0.0,0.0,0.0,0.0,0.0,0.0,0.0,0.0,0.0,0.0,0.0,0.0,-4.2461,-4.1386,-4.0366,-3.9569,-3.9144,-3.8608,-3.7922,-3.8464,-3.7735,-3.571,-3.6309,-3.5488,-3.3499,-3.3499,-3.3499,-3.3499,-3.3499,0.0,0.0,-3.2347,-3.1476,-3.0663,-2.9591,-2.8782,-2.8109,-2.8109,-2.8109,-2.8172,-2.8599,-2.8461,-2.8174,-2.8898,-2.8028,-2.6665,-2.6521,-2.5062,-2.3387,-2.3135,-2.3135,-2.3135,-2.3135,-2.3135,-2.3135,-2.3135,-2.3135,-2.3135,-2.3135,-2.3135,-2.3135,-2.3135,-2.3135,-2.3135,-2.3135,-2.3135,-2.3135,-2.3135,-2.2306,-2.1212,-2.0034,-1.8864,-1.868,-2.0395,-1.8588,-1.7318,-1.7318,-1.6386,-1.5832,-1.5832,-1.5832,-1.5832,-1.5832,-1.5832,-1.5832,-1.5832,-1.5832,-1.5832,-1.5832,-1.5832,-1.5832,-1.5832,-1.5832,-1.5832,1.6461,1.5197,1.3808,1.2335,1.1051,0.9745,0.8139,0.0,0.0,0.6189,0.5769,0.4212,0.0264,0.0,0.0,0.0,0.0,0.0,0.0,0.0,0.0,0.0,0.0,0.0,0.0,0.0,0.0,0.0,0.0,0.0,-4.154,-4.0741,-3.9793,-3.8737,-3.8666,-3.8414,-3.7905,-3.7973,-3.7253,-3.5694,-3.5774,-3.4992,-3.3499,-3.3499,-3.3499,-3.3499,-3.3499,0.0,0.0,-3.1608,-3.0865,-3.0596,-2.8912,-2.817,-2.8109,-2.8109,-2.8109,-2.8109,-2.816,-2.8147,-2.7963,-2.7184,-2.7067,-2.7152,-2.6665,-2.5641,-2.4457,-2.3387,-2.3135,-2.3135,-2.3135,-2.3135,-2.3135,-2.3135,-2.3135,-2.3135,-2.3135,-2.3135,-2.3135,-2.3135,-2.3135,-2.3135,-2.3135,-2.3135,-2.3135,-2.3135,-2.3047,-2.2492,-2.1293,-2.0124,-1.9047,-1.8141,-1.6756,-1.6015,-1.6015,-1.5825,-1.5832,-1.5832,-1.5832,-1.5832,-1.5832,-1.5832,-1.5832,-1.5832,-1.5832,-1.5832,-1.5832,-1.5832,-1.5832,-1.5832,-1.5832,-1.5832,1.9442,1.8884,1.7934,1.527,1.3776,1.2283,0.9945,0.0,0.0,0.7088,0.6519,0.5202,0.202,0.0,0.0,0.0,0.0,0.0,0.0,0.0,0.0,0.0,0.0,0.0,0.0,0.0,0.0,0.0,0.0,0.0,-4.0513,-4.0293,-3.9689,-3.8538,-3.8146,-3.748,-3.6535,-3.6535,-3.5783,-3.4364,-3.4011,-3.3061,-3.1692,-3.1347,-3.1345,-3.1674,-3.13,0.0,0.0,-2.9812,-2.9118,-2.8926,-2.7237,-2.6804,-2.7067,-2.6728,-2.6816,-2.7155,-2.7494,-2.7394,-2.7076,-2.6709,-2.6066,-2.537,-2.5223,-2.4503,-2.3714,-2.3222,-2.3135,-2.3135,-2.3135,-2.3135,-2.3135,-2.3135,-2.3135,-2.3135,-2.3135,-2.3135,-2.3135,-2.3135,-2.3135,-2.3135,-2.3135,-2.3135,-2.3135,-2.3135,-2.1854,-2.0764,-2.0305,-1.848,-1.7117,-1.6574,-1.6109,-1.5832,-1.5832,-1.5832,-1.5832,-1.5832,-1.5832,-1.5832,-1.5832,-1.5832,-1.5832,-1.5832,-1.5832,-1.5832,-1.5832,-1.5832,-1.5832,-1.5832,-1.5832,-1.5832,2.174,2.1493,2.0805,1.7725,1.59,1.4102,0.0,0.0,0.0,0.755,0.6911,0.5424,0.1593,-0.5819,0.0,0.0,0.0,-3.3585,0.0,0.0,0.0,0.0,0.0,0.0,0.0,0.0,0.0,0.0,0.0,0.0,0.0,-3.9021,-3.8688,-3.7932,-3.711,-3.6219,-3.5163,-3.5006,-3.4348,-3.3162,-3.2353,-3.148,-3.049,-2.9675,-2.9639,-3.0208,0.0,0.0,0.0,-2.8369,-2.7646,-2.7277,-2.5923,-2.5611,-2.5925,-2.5523,-2.5624,-2.6038,-2.6427,-2.6302,-2.5909,-2.5551,-2.4797,-2.3895,-2.3475,-2.3076,-2.2793,-2.292,-2.2949,-2.2949,-2.2949,-2.2949,-2.2988,-2.3105,-2.3135,-2.3135,-2.3135,-2.3135,-2.3135,-2.3135,-2.3135,-2.3135,-2.3135,-2.3135,-2.296,-2.2589,-2.1123,-1.9761,-1.9039,-1.7397,-1.6197,-1.5825,-1.5832,-1.5832,-1.5832,-1.5832,-1.5832,-1.5832,-1.5832,-1.5832,-1.5832,-1.5832,-1.5832,-1.5832,-1.5832,-1.5832,-1.5832,-1.5832,-1.5832,-1.5832,-1.5832,-1.5832,2.3327,2.2716,2.1514,1.9376,1.7073,1.462,0.0,0.0,0.0,0.7459,0.6748,0.4681,-0.0807,-0.7635,-1.4038,-1.9208,0.0,0.0,0.0,0.0,0.0,0.0,0.0,0.0,0.0,0.0,0.0,0.0,0.0,0.0,0.0,-3.65,-3.6444,-3.6705,-3.5508,-3.4602,-3.4103,-3.3656,-3.3091,-3.2393,-3.1124,-3.0481,-3.0474,-2.9191,-2.8966,0.0,0.0,0.0,0.0,-2.7547,-2.6788,-2.6021,-2.5129,-2.4833,-2.4845,-2.4833,-2.4833,-2.4845,-2.4845,-2.4845,-2.4583,-2.3213,-2.2978,-2.3012,-2.1639,-2.1553,-2.1992,-2.2402,-2.2519,-2.2519,-2.2519,-2.2519,-2.2627,-2.3047,-2.3135,-2.3135,-2.3135,-2.3135,-2.3135,-2.3135,-2.3135,-2.3135,-2.3135,-2.3135,-2.2677,-2.148,-2.1293,-2.0395,-1.8056,-1.7692,-1.7225,-1.592,-1.5832,-1.5832,-1.5832,-1.5832,-1.5832,-1.5832,-1.5832,-1.5832,-1.5832,-1.5832,-1.5832,-1.5832,-1.5832,-1.5832,-1.5832,-1.5832,-1.5832,-1.5832,-1.5832,-1.5832,2.3748,2.3241,2.2256,1.9795,1.7498,1.5227,1.2732,0.0,0.0,0.8193,0.6328,0.3395,-0.1536,-0.8894,-1.5618,-1.9847,-2.7108,0.0,0.0,0.0,0.0,0.0,0.0,0.0,0.0,0.0,0.0,0.0,0.0,0.0,0.0,-3.5813,-3.5561,-3.5065,-3.4902,-3.4057,-3.2547,-3.2105,-3.155,-3.0804,-2.9996,-2.9383,-2.8979,-2.8217,0.0,0.0,0.0,0.0,0.0,-2.6874,-2.5887,-2.4813,-2.4404,-2.4255,-2.4255,-2.4255,-2.4506,-2.482,-2.482,-2.482,-2.457,-2.319,-2.2816,-2.2604,-2.1235,-2.1299,-2.1914,-2.2041,-2.209,-2.209,-2.209,-2.209,-2.2119,-2.2246,-2.25,-2.2715,-2.2715,-2.2939,-2.3135,-2.3135,-2.3135,-2.3135,-2.3135,-2.3135,-2.2677,-2.148,-2.0576,-1.9497,-1.787,-1.6943,-1.6292,-1.5825,-1.5832,-1.5832,-1.5832,-1.5832,-1.5832,-1.5832,-1.5832,-1.5832,-1.5832,-1.5832,-1.5832,-1.5832,-1.5832,-1.5832,-1.5832,-1.5832,-1.5832,-1.5832,-1.5832,-1.5832,0.0,2.2658,2.1744,1.971,1.7688,0.0,0.0,0.0,0.0,0.0,0.4326,0.0734,-0.4637,-1.1783,-1.8081,-2.178,-2.7798,0.0,0.0,0.0,0.0,0.0,0.0,0.0,0.0,0.0,0.0,0.0,0.0,0.0,0.0,-3.4203,-3.3741,-3.294,-3.3458,-3.2907,-3.1202,-3.0778,-3.0241,-2.9668,-2.8838,-2.8249,-2.7892,-2.7074,0.0,0.0,0.0,0.0,0.0,-2.5452,-2.4458,-2.323,-2.309,-2.3175,-2.3339,-2.3125,-2.3527,-2.4155,-2.3954,-2.3816,-2.3542,-2.2491,-2.1909,-2.1481,-2.0605,-2.0937,-2.1602,-2.1435,-2.1514,-2.1641,-2.1641,-2.1641,-2.168,-2.1846,-2.209,-2.2324,-2.248,-2.2715,-2.2949,-2.3105,-2.3135,-2.296,-2.2492,-2.2403,-2.1854,-2.0215,-1.9314,-1.8411,-1.7131,-1.6292,-1.5832,-1.5832,-1.5832,-1.5832,-1.5832,-1.5832,-1.5832,-1.5832,-1.5832,-1.5832,-1.5832,-1.5832,-1.5832,-1.5832,-1.5832,-1.5832,-1.5832,-1.5832,-1.5832,-1.5832,-1.5832,-1.5832,0.0,2.1167,0.0,0.0,0.0,0.0,0.0,0.0,0.0,0.0,0.0,-0.3102,-0.9545,-1.5787,-2.1104,-2.4512,-2.8931,0.0,0.0,0.0,0.0,0.0,0.0,0.0,0.0,0.0,0.0,0.0,0.0,0.0,0.0,-3.2032,-3.1387,-3.0432,-3.1297,-3.1189,-2.9968,-2.953,-2.9128,-2.8738,-2.7661,-2.7147,-2.7118,-2.5942,0.0,0.0,0.0,0.0,0.0,-2.3575,-2.2738,-2.143,-2.1481,-2.1782,-2.2133,-2.1656,-2.2133,-2.2877,-2.2435,-2.2053,-2.1776,-2.1271,-2.0568,-1.9873,-1.9873,-2.0488,-2.1103,-2.0684,-2.0869,-2.1182,-2.1182,-2.1182,-2.1289,-2.1689,-2.1816,-2.1943,-2.2344,-2.2441,-2.2588,-2.2834,-2.2911,-2.2551,-2.1382,-2.1203,-2.0395,-1.8048,-1.7692,-1.7225,-1.592,-1.5832,-1.5832,-1.5832,-1.5832,-1.5832,-1.5832,-1.5832,-1.5832,-1.5832,-1.5832,-1.5832,-1.5832,-1.5832,-1.5832,-1.5832,-1.5832,-1.5832,-1.5832,-1.5832,-1.5832,-1.5832,-1.5832,-1.5832,2.064,0.0,2.0047,1.8486,1.6793,1.4778,0.0,0.0,0.0,0.0,0.0,-0.717,-1.2731,-1.8253,-2.2791,-2.5408,-2.8821,0.0,0.0,0.0,0.0,0.0,0.0,0.0,0.0,0.0,0.0,0.0,0.0,0.0,0.0,-3.1827,-3.0992,-2.8544,-2.9282,-2.9029,-2.7607,-2.7701,-2.7276,-2.642,-2.7247,-2.6945,-2.5678,-2.544,0.0,0.0,0.0,0.0,-2.2862,-2.3395,-2.255,-2.0903,-2.133,-2.1305,-2.1091,-2.138,-2.1656,-2.1857,-2.1732,-2.1489,-2.1096,-2.0434,-1.9889,-1.9434,-1.9434,-2.0039,-2.0703,-2.0596,-2.0644,-2.0723,-2.0723,-2.0723,-2.0752,-2.085,-2.1133,-2.1416,-2.1514,-2.1797,-2.1897,-2.1404,-2.1296,-2.095,-2.0073,-1.9943,-1.9405,-1.7963,-1.7692,-1.7225,-1.592,-1.5832,-1.5832,-1.5832,-1.5832,-1.5832,-1.5832,-1.5832,-1.5832,-1.5832,-1.5832,-1.5832,-1.5832,-1.5832,-1.5832,-1.5832,-1.5832,-1.5832,-1.5832,-1.5832,-1.5832,-1.5832,-1.5832,-1.5832,1.9685,2.0005,1.9884,1.8204,1.6306,1.3915,0.0,0.0,0.0,0.0,0.0,0.0,-1.673,-2.1844,0.0,0.0,-2.9783,0.0,0.0,0.0,0.0,0.0,0.0,0.0,0.0,0.0,0.0,0.0,0.0,0.0,0.0,-3.0362,-2.9588,-2.7586,-2.7401,-2.705,-2.6433,-2.6423,-2.6051,-2.5333,-2.5993,-2.556,-2.4239,-2.4275,-2.3709,0.0,0.0,0.0,-2.1745,-2.186,-2.1148,-1.9964,-2.0242,-2.0326,-2.0313,-2.0602,-2.1041,-2.1455,-2.1204,-2.0698,-2.0053,-1.9436,-1.9008,-1.874,-1.8926,-1.9453,-2.0019,-2.0215,-2.0273,-2.0312,-2.0508,-2.0566,-2.0566,-2.0566,-2.0752,-2.0986,-2.1191,-2.1416,-2.1361,-2.0629,-2.0589,-2.0193,-1.854,-1.8316,-1.8016,-1.6627,-1.6551,-1.6364,-1.5725,-1.5745,-1.5832,-1.5832,-1.5712,-1.5685,-1.5818,-1.5705,-1.5691,-1.5818,-1.5832,-1.5832,-1.5832,-1.5832,-1.5832,-1.5832,-1.5832,-1.5832,-1.5832,-1.5698,-1.5631,-1.5631,-1.5631,-1.5631,1.6432,1.6994,1.7354,1.6493,1.4525,1.1552,0.0,0.0,0.0,0.0,0.0,0.0,0.0,0.0,0.0,0.0,0.0,0.0,0.0,0.0,0.0,0.0,0.0,0.0,0.0,0.0,0.0,0.0,0.0,0.0,0.0,-2.8527,-2.7916,-2.7005,-2.5968,-2.5539,-2.5718,-2.5454,-2.5165,-2.4832,-2.459,-2.3982,-2.3047,-2.2978,-2.2394,0.0,0.0,0.0,-2.0511,-2.0075,-1.9534,-1.8996,-1.89,-1.9221,-1.9685,-1.9685,-2.0338,-2.1179,-2.0682,-1.9808,-1.8899,-1.8542,-1.8187,-1.7978,-1.833,-1.875,-1.918,-1.96,-1.9766,-1.9902,-2.0273,-2.042,-2.0469,-2.0469,-2.0518,-2.0674,-2.1045,-2.1133,-2.0838,-1.9958,-2.0045,-1.9488,-1.6976,-1.6729,-1.6472,-1.5176,-1.517,-1.5331,-1.5331,-1.5545,-1.5712,-1.5758,-1.5545,-1.5518,-1.5805,-1.5605,-1.5565,-1.5812,-1.5832,-1.5832,-1.5832,-1.5832,-1.5805,-1.5765,-1.5765,-1.5745,-1.5698,-1.5451,-1.5331,-1.5331,-1.5331,-1.5259,0.5047,0.4793,0.5752,0.8628,0.7823,0.4188,0.0,0.0,0.0,0.0,0.0,0.0,0.0,0.0,0.0,0.0,0.0,0.0,0.0,0.0,0.0,0.0,0.0,0.0,0.0,0.0,0.0,0.0,0.0,0.0,0.0,0.0,-2.7127,-2.5982,-2.5744,-2.5282,-2.4479,-2.4474,-2.4322,-2.4071,-2.4351,-2.3905,-2.2752,-2.2425,-2.1618,0.0,0.0,-2.0465,-1.9855,-1.9908,-1.9534,-1.8957,-1.8516,-1.8668,-1.9096,-1.9096,-1.9535,-2.0007,-1.9721,-1.9111,-1.8342,-1.7994,-1.7731,-1.749,-1.7559,-1.7871,-1.8291,-1.8711,-1.9102,-1.9394,-1.9463,-1.9746,-2.0019,-2.0019,-2.0303,-2.0586,-2.0654,-2.0664,-2.022,-1.8479,-1.8179,-1.7616,-1.5623,-1.5349,-1.528,-1.506,-1.5003,-1.503,-1.503,-1.507,-1.519,-1.5438,-1.5424,-1.5518,-1.5805,-1.5792,-1.5785,-1.5825,-1.5832,-1.5832,-1.5832,-1.5832,-1.5712,-1.5471,-1.5464,-1.5344,-1.5097,-1.505,-1.503,-1.503,-1.503,-1.4591,0.1551,0.1807,0.156,-0.0796,-0.1249,-0.2746,0.0,0.0,0.0,0.0,0.0,0.0,0.0,0.0,0.0,0.0,0.0,0.0,0.0,0.0,0.0,0.0,0.0,0.0,0.0,0.0,0.0,0.0,0.0,0.0,0.0,0.0,-2.6388,-2.5351,-2.5153,-2.4834,-2.4375,-2.41,-2.3827,-2.3508,-2.3532,-2.3021,-2.2106,-2.1698,-2.1049,-2.0296,0.0,-1.9975,-1.9675,-1.9469,-1.9017,-1.8486,-1.8278,-1.8168,-1.8216,-1.8807,-1.9183,-1.9409,-1.9568,-1.9125,-1.8495,-1.8145,-1.7704,-1.7274,-1.7081,-1.7334,-1.7715,-1.791,-1.8428,-1.8994,-1.9228,-1.9434,-1.9639,-1.9863,-2.0068,-2.012,-1.9788,-1.9756,-1.917,-1.7054,-1.6737,-1.636,-1.4829,-1.4616,-1.4669,-1.4516,-1.4623,-1.4723,-1.4723,-1.4863,-1.5017,-1.515,-1.5017,-1.5104,-1.5558,-1.5304,-1.5257,-1.5578,-1.5591,-1.5524,-1.5364,-1.5357,-1.5297,-1.5164,-1.5164,-1.5097,-1.4963,-1.4803,-1.4723,-1.4723,-1.4084,-1.3505,-0.3427,-0.2984,-0.4081,-1.0102,0.0,0.0,0.0,0.0,0.0,0.0,0.0,0.0,0.0,0.0,0.0,0.0,0.0,0.0,0.0,0.0,0.0,0.0,0.0,0.0,0.0,0.0,0.0,0.0,0.0,0.0,0.0,0.0,-2.575,-2.503,-2.4747,-2.4591,-2.4495,-2.4098,-2.3656,-2.3189,-2.2873,-2.2378,-2.1764,-2.1337,-2.0878,-2.0449,-2.0035,-1.9782,-1.9639,-1.9132,-1.8574,-1.8108,-1.8024,-1.7769,-1.7501,-1.848,-1.8783,-1.8907,-1.9434,-1.9019,-1.8247,-1.8148,-1.7604,-1.6898,-1.6651,-1.6953,-1.7383,-1.7383,-1.792,-1.8564,-1.8906,-1.9062,-1.9209,-1.9541,-1.9697,-1.9657,-1.9288,-1.8979,-1.8276,-1.6421,-1.6065,-1.558,-1.4284,-1.4269,-1.4342,-1.4122,-1.4275,-1.4422,-1.4422,-1.4616,-1.4783,-1.4856,-1.4656,-1.473,-1.5251,-1.4883,-1.479,-1.5164,-1.519,-1.5124,-1.497,-1.4963,-1.493,-1.4863,-1.4863,-1.483,-1.4756,-1.4529,-1.4422,-1.4416,-1.3517,-1.2838,-1.5642,-1.641,-1.6823,-1.8312,0.0,0.0,0.0,0.0,0.0,0.0,0.0,0.0,0.0,0.0,0.0,0.0,0.0,0.0,0.0,0.0,0.0,0.0,0.0,0.0,0.0,0.0,0.0,0.0,0.0,0.0,0.0,0.0,0.0,-2.5022,-2.4986,-2.4818,-2.4512,-2.4461,-2.4023,-2.3189,-2.2873,-2.252,-2.2237,-2.1764,-2.1337,-2.0926,-2.0449,-2.0019,-1.9639,-1.9132,-1.8574,-1.8066,-1.7557,-1.7394,-1.7451,-1.8053,-1.8267,-1.8342,-1.8894,-1.8127,-1.7028,-1.7466,-1.6979,-1.6186,-1.6164,-1.6709,-1.7383,-1.7383,-1.7705,-1.8057,-1.8086,-1.8389,-1.8691,-1.8721,-1.9043,-1.9443,-1.9788,-1.903,-1.8117,-1.7357,-1.6378,-1.5409,-1.425,-1.4108,-1.4115,-1.4088,-1.4108,-1.4122,-1.4122,-1.4135,-1.4255,-1.4522,-1.4529,-1.4649,-1.497,-1.4957,-1.483,-1.4596,-1.4583,-1.4696,-1.495,-1.4963,-1.4836,-1.4556,-1.4556,-1.4422,-1.4148,-1.4128,-1.4122,-1.4122,-1.403,-1.2942,-1.7639,-1.7841,-1.8099,-1.9082,0.0,0.0,0.0,0.0,0.0,0.0,0.0,0.0,0.0,0.0,0.0,0.0,0.0,0.0,0.0,0.0,0.0,0.0,0.0,0.0,0.0,0.0,0.0,0.0,0.0,0.0,0.0,0.0,0.0,-2.5253,-2.5083,-2.4949,-2.4818,-2.4604,-2.4229,-2.3689,-2.3223,-2.2865,-2.2537,-2.1878,-2.1521,-2.1337,-2.0616,-2.0212,-2.0035,-1.9573,-1.908,-1.8496,-1.7626,-1.7135,-1.6911,-1.7488,-1.7689,-1.7765,-1.8329,-1.8154,-1.7611,-1.7228,-1.6863,-1.6413,-1.586,-1.6084,-1.6562,-1.6562,-1.707,-1.7676,-1.7939,-1.8125,-1.8311,-1.8574,-1.876,-1.8778,-1.8592,-1.7756,-1.6715,-1.5772,-1.4948,-1.4289,-1.389,-1.3968,-1.4088,-1.4088,-1.4088,-1.4088,-1.4088,-1.4088,-1.4128,-1.4242,-1.4409,-1.4489,-1.4422,-1.4583,-1.4563,-1.4269,-1.4422,-1.4489,-1.4422,-1.4422,-1.4362,-1.4255,-1.4249,-1.4195,-1.4088,-1.3379,-1.2942,-1.2942,-1.1569,-1.0405,-1.7848,-1.8071,-1.8507,0.0,0.0,0.0,0.0,0.0,0.0,0.0,0.0,0.0,0.0,0.0,0.0,0.0,0.0,0.0,0.0,0.0,0.0,0.0,0.0,0.0,0.0,0.0,0.0,0.0,0.0,0.0,0.0,0.0,0.0,0.0,-2.5216,-2.5083,-2.501,-2.4762,-2.4487,-2.4155,-2.3687,-2.32,-2.2695,-2.2186,-2.1832,-2.1552,-2.0846,-2.0449,-2.028,-1.9874,-1.9369,-1.8779,-1.7706,-1.7076,-1.6761,-1.7049,-1.7112,-1.7187,-1.7752,-1.7647,-1.7219,-1.6769,-1.6403,-1.6062,-1.5392,-1.5615,-1.6125,-1.6125,-1.6602,-1.7246,-1.7529,-1.7803,-1.8047,-1.8203,-1.834,-1.8344,-1.8026,-1.6968,-1.587,-1.5227,-1.4216,-1.3534,-1.3627,-1.3734,-1.3841,-1.3935,-1.3948,-1.3948,-1.3948,-1.4028,-1.4088,-1.4088,-1.4262,-1.4302,-1.4108,-1.4269,-1.4302,-1.4095,-1.4275,-1.4295,-1.4095,-1.4088,-1.4088,-1.4088,-1.4088,-1.3906,-1.3555,-1.2674,-1.2151,-1.1724,-1.0183,-0.9235,-1.7451,-1.8401,-1.957,0.0,0.0,0.0,0.0,0.0,0.0,0.0,0.0,0.0,0.0,0.0,0.0,0.0,0.0,0.0,0.0,0.0,0.0,0.0,0.0,0.0,0.0,0.0,0.0,0.0,0.0,0.0,0.0,0.0,0.0,0.0,-2.5398,-2.5262,-2.4991,-2.4991,-2.4812,-2.4476,-2.4155,-2.3548,-2.2721,-2.2695,-2.2307,-2.1582,-2.1181,-2.0748,-2.028,-1.9874,-1.9369,-1.8779,-1.7706,-1.7312,-1.7229,-1.671,-1.6522,-1.6597,-1.7174,-1.6489,-1.5397,-1.6009,-1.5574,-1.4775,-1.4785,-1.5381,-1.6115,-1.6115,-1.6377,-1.6665,-1.6719,-1.7353,-1.79,-1.748,-1.7705,-1.8115,-1.8475,-1.7009,-1.5716,-1.607,-1.4562,-1.33,-1.3587,-1.34,-1.3307,-1.3594,-1.3641,-1.3641,-1.3559,-1.3901,-1.4082,-1.4082,-1.4088,-1.4088,-1.4082,-1.4088,-1.4088,-1.4088,-1.4088,-1.4088,-1.4088,-1.4088,-1.4088,-1.4088,-1.4088,-1.347,-1.2328,-1.2322,-1.1724,-1.0611,-1.0611,-0.9923,-1.7813,-1.8168,0.0,0.0,0.0,0.0,0.0,0.0,0.0,0.0,0.0,0.0,0.0,0.0,0.0,0.0,0.0,0.0,0.0,0.0,0.0,0.0,0.0,0.0,0.0,0.0,0.0,0.0,0.0,0.0,0.0,0.0,0.0,0.0,-2.5453,-2.5093,-2.443,-2.4251,-2.4031,-2.3787,-2.3549,-2.3417,-2.3392,-2.2923,-2.2591,-2.2351,-2.1715,-2.1181,-2.0731,-2.0015,-1.9369,-1.8817,-1.8145,-1.7626,-1.7229,-1.671,-1.6522,-1.6547,-1.671,-1.6207,-1.5533,-1.553,-1.5096,-1.4531,-1.4755,-1.4961,-1.5225,-1.5518,-1.5918,-1.6191,-1.5889,-1.6455,-1.7158,-1.7344,-1.748,-1.7542,-1.7232,-1.6175,-1.5137,-1.4587,-1.3629,-1.2913,-1.2999,-1.312,-1.324,-1.3327,-1.334,-1.3414,-1.3621,-1.3721,-1.3774,-1.3774,-1.3961,-1.4001,-1.3794,-1.3968,-1.4088,-1.4088,-1.4088,-1.4088,-1.4088,-1.4088,-1.4088,-1.4088,-1.4088,-1.3913,-1.3555,-1.1906,-1.095,-1.0524,-0.8877,-0.7925,-1.7784,0.0,0.0,0.0,0.0,0.0,0.0,0.0,0.0,0.0,0.0,0.0,0.0,0.0,0.0,0.0,0.0,0.0,0.0,0.0,0.0,0.0,0.0,0.0,0.0,0.0,0.0,0.0,0.0,0.0,0.0,0.0,0.0,0.0,-2.4667,-2.4355,-2.4159,-2.3659,-2.3473,-2.3606,-2.3093,-2.2908,-2.303,-2.2934,-2.2648,-2.2186,-2.1595,-2.1118,-2.0665,-1.998,-1.953,-1.9132,-1.838,-1.7907,-1.7544,-1.6795,-1.6522,-1.6522,-1.6522,-1.5964,-1.5232,-1.5081,-1.4596,-1.4074,-1.4218,-1.4521,-1.4834,-1.5088,-1.5469,-1.5742,-1.5478,-1.5811,-1.6318,-1.6758,-1.678,-1.6571,-1.6254,-1.5256,-1.4253,-1.3693,-1.3022,-1.2605,-1.2802,-1.2806,-1.2893,-1.3013,-1.3026,-1.3133,-1.3434,-1.3467,-1.3467,-1.3467,-1.3634,-1.3667,-1.3487,-1.3741,-1.3908,-1.3908,-1.4021,-1.4088,-1.4088,-1.3646,-1.3379,-1.3379,-1.2948,-1.2522,-1.2003,-1.0616,-0.9662,-0.9139,-0.7749,-0.7139,-1.7757,0.0,0.0,0.0,0.0,0.0,0.0,0.0,0.0,0.0,0.0,0.0,0.0,0.0,0.0,0.0,0.0,0.0,0.0,0.0,0.0,0.0,0.0,0.0,0.0,0.0,0.0,0.0,0.0,0.0,0.0,0.0,0.0,0.0,-2.3419,-2.3295,-2.3876,-2.3083,-2.2988,0.0,-2.2634,-2.2079,-2.1919,-2.2767,-2.2582,-2.16,-2.121,-2.0749,-2.027,-1.9914,-1.9717,-1.9528,-1.8507,-1.8106,-1.7987,-1.6909,-1.6522,-1.6522,-1.6522,-1.5744,-1.4789,-1.4709,-1.4158,-1.3498,-1.3496,-1.4053,-1.4687,-1.4766,-1.5059,-1.5361,-1.54,-1.541,-1.5508,-1.5908,-1.5813,-1.5542,-1.5377,-1.4338,-1.3354,-1.3145,-1.2627,-1.2345,-1.2694,-1.2465,-1.2392,-1.2741,-1.2782,-1.2819,-1.3126,-1.3166,-1.3166,-1.3166,-1.3193,-1.32,-1.3173,-1.3434,-1.3519,-1.3519,-1.3881,-1.4048,-1.4048,-1.3014,-1.2498,-1.2498,-1.13,-1.0265,-0.9235,-0.8978,-0.8368,-0.7228,-0.7139,-0.7139,0.0,-1.9339,0.0,0.0,0.0,0.0,0.0,0.0,0.0,0.0,0.0,0.0,0.0,0.0,0.0,0.0,0.0,0.0,0.0,0.0,0.0,0.0,0.0,0.0,0.0,0.0,0.0,0.0,0.0,0.0,0.0,0.0,0.0,-2.3456,-2.3143,-2.2777,-2.2296,-2.1959,-2.1805,0.0,-2.1464,-2.1197,-2.1094,-2.2169,-2.2557,-2.2418,-2.1749,-2.0936,-2.0051,-2.0131,-1.968,-1.8852,-1.8299,-1.8106,-1.7987,-1.6909,-1.6522,-1.6522,-1.6522,-1.6008,-1.532,-1.4835,-1.4266,-1.371,-1.355,-1.3633,-1.3916,-1.46,-1.4844,-1.5,-1.5322,-1.541,-1.5439,-1.5527,-1.5759,-1.5651,-1.4612,-1.4148,-1.3538,-1.206,-1.1898,-1.1984,-1.2051,-1.2198,-1.2325,-1.2385,-1.2398,-1.2505,-1.2806,-1.2923,-1.2923,-1.2923,-1.3066,-1.3113,-1.2866,-1.3126,-1.3307,-1.3307,-1.3574,-1.3741,-1.3741,-1.3703,-1.373,-1.373,-1.2504,-1.1809,-1.1552,-0.9749,-0.8803,-0.8452,-0.7577,-0.7139,0.0,0.0,0.0,0.0,0.0,0.0,0.0,0.0,0.0,0.0,0.0,0.0,0.0,0.0,0.0,0.0,0.0,0.0,0.0,0.0,0.0,0.0,0.0,0.0,0.0,0.0,0.0,0.0,0.0,0.0,0.0,-2.3863,-2.3325,-2.2554,-2.2055,-2.1786,-2.175,-2.1202,-2.1082,-2.1383,-2.0802,-2.0615,-2.0815,-2.1061,-2.1322,-2.1547,-2.0838,-2.013,-1.9455,-1.9342,-1.9058,-1.8629,-1.7895,-1.7804,-1.7987,-1.6909,-1.6522,-1.6522,-1.6522,-1.6095,-1.5499,-1.488,-1.4468,-1.4104,-1.3421,-1.3531,-1.3982,-1.4149,-1.4316,-1.457,-1.5,-1.5107,-1.5156,-1.5361,-1.5281,-1.4878,-1.3781,-1.3381,-1.2775,-1.1477,-1.157,-1.187,-1.187,-1.2111,-1.2305,-1.2305,-1.2305,-1.2358,-1.2512,-1.2532,-1.2532,-1.2532,-1.2679,-1.2712,-1.2545,-1.2812,-1.2986,-1.2986,-1.3267,-1.3185,-1.2687,-1.2833,-1.2773,-1.2425,-1.1305,-1.0346,-0.9822,-0.8619,-0.8013,-0.8013,-0.7401,-0.7139,0.0,0.0,0.0,0.0,0.0,0.0,0.0,0.0,0.0,0.0,0.0,0.0,0.0,0.0,0.0,0.0,0.0,0.0,0.0,0.0,0.0,0.0,0.0,0.0,0.0,0.0,0.0,0.0,0.0,0.0,-2.3971,-2.3331,-2.2563,-2.16,-2.0877,-2.0826,-2.1488,-2.0701,-2.0624,-2.1278,-2.0384,-2.0119,-2.0369,-1.9777,-1.9872,-2.046,-1.9798,-1.9225,-1.8719,-1.8434,-1.8343,-1.8272,-1.7531,-1.7498,-1.7836,-1.6954,-1.6595,-1.6522,-1.6522,-1.6194,-1.5676,-1.5062,-1.488,-1.4652,-1.342,-1.3626,-1.4208,-1.368,-1.376,-1.4141,-1.4658,-1.4785,-1.4893,-1.5312,-1.4817,-1.4123,-1.3356,-1.2734,-1.2111,-1.1293,-1.1485,-1.1737,-1.1784,-1.2037,-1.2225,-1.2225,-1.2271,-1.2305,-1.2305,-1.2305,-1.2305,-1.2305,-1.2305,-1.2305,-1.2305,-1.2525,-1.2741,-1.2741,-1.2797,-1.2482,-1.1677,-1.1478,-1.1035,-1.0233,-0.9302,-0.836,-0.732,-0.7176,-0.7102,-0.7105,-0.7129,-0.7139,0.0,0.0,0.0,0.0,0.0,0.0,0.0,0.0,0.0,0.0,0.0,0.0,0.0,0.0,0.0,0.0,0.0,0.0,0.0,0.0,0.0,0.0,0.0,0.0,0.0,0.0,0.0,0.0,0.0,0.0,-2.2899,-2.2927,-2.229,-2.072,-2.0565,-2.0545,-2.0658,-2.0415,-2.034,-2.0463,-2.0022,-1.9442,-1.872,-1.875,-1.9522,-2.0802,-2.0174,-1.9214,-1.807,-1.8594,-1.8095,-1.7022,-1.756,-1.7548,-1.7235,-1.7195,-1.6909,-1.6522,-1.6522,-1.6436,-1.6281,-1.5688,-1.5499,-1.5276,-1.405,-1.3773,-1.3813,-1.359,-1.3545,-1.3769,-1.458,-1.4785,-1.4893,-1.5312,-1.507,-1.4611,-1.4141,-1.3467,-1.2645,-1.1839,-1.1388,-1.1189,-1.1443,-1.173,-1.1924,-1.1924,-1.2138,-1.2305,-1.2305,-1.2305,-1.2305,-1.2305,-1.2305,-1.2305,-1.2305,-1.2338,-1.2365,-1.2365,-1.1796,-1.1403,-1.1247,-1.0737,-0.9897,-0.8721,-0.8556,-0.8391,-0.823,-0.7392,-0.6956,-0.6959,-0.7085,-0.7139,-2.489,0.0,0.0,0.0,0.0,0.0,0.0,0.0,0.0,0.0,0.0,0.0,0.0,0.0,0.0,0.0,0.0,0.0,0.0,0.0,0.0,0.0,0.0,0.0,0.0,0.0,0.0,0.0,0.0,-2.3125,-2.1943,-2.2127,-2.1714,-2.0477,-2.0526,-2.0515,-2.0441,-2.0398,-2.033,-2.0294,-1.9963,-1.9567,-1.9157,-1.8346,-1.8339,-1.8937,-1.8824,-1.8309,-1.7564,-1.7679,-1.7443,-1.7061,-1.7267,-1.7427,-1.7539,-1.737,-1.7146,-1.6909,-1.6595,-1.6522,-1.638,-1.582,-1.582,-1.582,-1.4272,-1.405,-1.415,-1.3381,-1.3154,-1.3301,-1.3906,-1.4072,-1.417,-1.46,-1.4551,-1.4311,-1.3914,-1.3236,-1.2406,-1.1545,-1.1156,-1.1089,-1.1376,-1.153,-1.1677,-1.1844,-1.1977,-1.2118,-1.2278,-1.2305,-1.2305,-1.2305,-1.2305,-1.2305,-1.2305,-1.2305,-1.2305,-1.2305,-1.1971,-1.1577,-1.0965,-1.0153,-0.9194,-0.8098,-0.8295,-0.8078,-0.7432,-0.7014,-0.6844,-0.6929,-0.6993,-0.7065,0.0,0.0,0.0,0.0,0.0,0.0,0.0,0.0,0.0,0.0,0.0,0.0,0.0,0.0,0.0,0.0,0.0,0.0,0.0,0.0,0.0,0.0,0.0,0.0,0.0,0.0,0.0,0.0,0.0,-2.2133,-2.1265,-2.1539,-2.1297,-2.043,-2.0537,-2.0539,-2.0391,-2.0381,-2.0346,-2.0285,-1.9743,-1.9386,-1.9149,-1.7809,-1.7046,-1.6818,-1.7312,-1.7327,-1.7009,-1.6862,-1.688,-1.702,-1.6907,-1.7199,-1.7641,-1.7495,-1.7383,-1.7229,-1.6837,-1.6595,-1.6423,-1.5964,-1.6051,-1.6008,-1.4457,-1.4236,-1.4247,-1.32,-1.2881,-1.2978,-1.3398,-1.3506,-1.3613,-1.398,-1.4,-1.3844,-1.3405,-1.2705,-1.1887,-1.104,-1.0822,-1.0862,-1.1156,-1.1269,-1.139,-1.161,-1.171,-1.1837,-1.2051,-1.2144,-1.2191,-1.2191,-1.2258,-1.2305,-1.2305,-1.2305,-1.2305,-1.2305,-1.1848,-1.1174,-1.0415,-0.9216,-0.8161,-0.7403,-0.7732,-0.7465,-0.659,-0.6624,-0.6702,-0.6814,-0.6854,-0.6949,0.0,0.0,0.0,0.0,0.0,0.0,0.0,0.0,0.0,0.0,0.0,0.0,0.0,0.0,0.0,0.0,0.0,0.0,0.0,0.0,0.0,0.0,0.0,0.0,0.0,0.0,0.0,0.0,0.0,-2.1941,-2.1073,-2.1439,-2.1297,-2.043,-2.0537,-2.0539,-2.0391,-2.0334,-2.03,-2.0285,-1.9182,-1.8256,-1.7491,-1.6708,-1.5897,-1.5196,-1.6267,-1.6557,-1.6295,-1.6643,-1.6623,-1.6397,-1.6608,-1.6811,-1.7033,-1.7663,-1.7647,-1.7312,-1.7271,-1.6909,-1.6466,-1.6466,-1.6095,-1.5543,-1.488,-1.4283,-1.3732,-1.3055,-1.2881,-1.2978,-1.3398,-1.3506,-1.3613,-1.398,-1.3828,-1.3342,-1.2611,-1.187,-1.1203,-1.0703,-1.0354,-1.0254,-1.0555,-1.0835,-1.1022,-1.1035,-1.1269,-1.1456,-1.147,-1.1717,-1.1891,-1.1891,-1.2138,-1.2305,-1.2305,-1.2305,-1.2305,-1.2305,-1.0501,-0.9448,-0.9372,-0.748,-0.6412,-0.6416,-0.643,-0.6359,-0.6285,-0.642,-0.6488,-0.6502,-0.6644,-0.6793,0.0,0.0,0.0,0.0,0.0,0.0,0.0,0.0,0.0,0.0,0.0,0.0,0.0,0.0,0.0,0.0,0.0,0.0,0.0,0.0,0.0,0.0,0.0,0.0,0.0,0.0,0.0,0.0,0.0,0.0,-2.1853,-2.1748,-2.1569,-2.1239,-2.0829,-2.0539,-2.0391,-2.0319,-2.0294,-2.0285,-1.9667,-1.9216,-1.8877,-1.7233,-1.652,-1.6586,-1.632,-1.6319,-1.6524,-1.6436,-1.6515,-1.6644,-1.6959,-1.6954,-1.684,-1.7603,-1.7595,-1.7193,-1.7262,-1.6951,-1.6522,-1.6522,-1.6095,-1.5499,-1.488,-1.4283,-1.3684,-1.3065,-1.2881,-1.291,-1.3066,-1.3105,-1.3035,-1.2688,-1.2337,-1.192,-1.1217,-1.0826,-1.0594,-1.0356,-1.0187,-1.0214,-1.0571,-1.0712,-1.0782,-1.0962,-1.1082,-1.1216,-1.1403,-1.1516,-1.1583,-1.1583,-1.1677,-1.1817,-1.2011,-1.2024,-1.2104,-1.2291,-1.1019,-1.0265,-1.0265,-0.8309,-0.7249,-0.7249,-0.6641,-0.6338,-0.6338,-0.6312,-0.6383,-0.6474,-0.6529,-0.6634,-2.5059,0.0,0.0,0.0,0.0,0.0,0.0,0.0,0.0,0.0,0.0,0.0,0.0,0.0,0.0,0.0,0.0,0.0,0.0,0.0,0.0,0.0,0.0,0.0,0.0,0.0,0.0,0.0,0.0,0.0,-2.2305,-2.2111,-2.192,-2.1749,-2.0949,-2.0502,-2.0435,-2.0337,-2.0302,-2.0299,-1.9736,-1.9309,-1.8933,-1.7401,-1.6676,-1.6638,-1.615,-1.6237,-1.6695,-1.6603,-1.6654,-1.6811,-1.6921,-1.6861,-1.6754,-1.729,-1.7192,-1.6876,-1.7128,-1.679,-1.6271,-1.6459,-1.5964,-1.5231,-1.4835,-1.4154,-1.342,-1.3017,-1.2881,-1.2881,-1.2881,-1.2725,-1.2403,-1.1922,-1.1311,-1.0666,-1.0249,-1.0024,-0.9932,-0.9991,-0.9893,-0.9947,-1.0341,-1.0414,-1.0508,-1.0802,-1.0848,-1.0915,-1.1109,-1.1223,-1.1283,-1.1283,-1.1369,-1.151,-1.1703,-1.1724,-1.1655,-1.1558,-1.068,-0.9983,-0.9686,-0.8121,-0.7326,-0.7326,-0.6644,-0.6338,-0.6338,-0.6338,-0.6308,-0.6403,-0.6403,-0.6481,0.0,0.0,0.0,0.0,0.0,0.0,0.0,0.0,0.0,0.0,0.0,0.0,0.0,0.0,0.0,0.0,0.0,0.0,0.0,0.0,0.0,0.0,0.0,0.0,0.0,0.0,0.0,0.0,0.0,-2.2171,-2.2362,-2.2552,-2.2383,-2.1803,-2.0914,-2.0467,-2.051,-2.0366,-2.0294,-2.0288,-1.93,-1.8364,-1.7463,-1.7107,-1.6292,-1.5157,-1.5784,-1.6312,-1.6762,-1.7123,-1.7109,-1.6789,-1.6463,-1.6478,-1.6682,-1.6712,-1.6525,-1.6366,-1.6885,-1.6467,-1.5781,-1.6321,-1.5688,-1.4698,-1.4698,-1.3836,-1.2881,-1.2881,-1.2881,-1.2881,-1.2881,-1.2344,-1.1814,-1.1765,-1.0762,-0.9814,-0.9762,-0.9442,-0.9312,-0.9613,-0.9439,-0.9369,-1.0,-1.01,-1.02,-1.0488,-1.0598,-1.0604,-1.0611,-1.0795,-1.0969,-1.0982,-1.1229,-1.1403,-1.141,-1.141,-1.0998,-1.017,-0.9246,-0.8422,-0.7556,-0.6692,-0.6251,-0.6254,-0.6254,-0.6254,-0.6338,-0.6338,-0.6338,-0.6338,-0.6338,-0.6335,-2.4171,0.0,0.0,0.0,0.0,0.0,0.0,0.0,0.0,0.0,0.0,0.0,0.0,0.0,0.0,0.0,0.0,0.0,0.0,0.0,0.0,0.0,0.0,0.0,0.0,0.0,0.0,0.0,-2.3583,-2.3902,-2.411,-2.3841,-2.3089,-2.1761,-2.1513,-2.1108,-2.0428,-2.0399,-2.0342,-2.0288,-1.9879,-1.9477,-1.9103,-1.8347,-1.796,-1.7873,-1.7429,-1.7434,-1.7755,-1.7117,-1.698,-1.7126,-1.6773,-1.6573,-1.6416,-1.6623,-1.6218,-1.5662,-1.6302,-1.6175,-1.5718,-1.5869,-1.5389,-1.4698,-1.4698,-1.3836,-1.2881,-1.2881,-1.2881,-1.2881,-1.2881,-1.2344,-1.1665,-1.1216,-1.0415,-0.9666,-0.9159,-0.8971,-0.9011,-0.9305,-0.9236,-0.9303,-0.974,-0.98,-0.9833,-0.9913,-0.9927,-1.0,-1.0214,-1.0307,-1.0441,-1.0655,-1.0755,-1.0882,-1.1096,-1.1109,-1.0792,-1.0158,-0.9173,-0.8284,-0.736,-0.6408,-0.5983,-0.6091,-0.6095,-0.6149,-0.6338,-0.6338,-0.6338,-0.6338,-0.6338,-0.6281,0.0,0.0,0.0,0.0,0.0,0.0,-2.4157,-2.4517,0.0,0.0,0.0,0.0,0.0,0.0,0.0,0.0,0.0,0.0,0.0,0.0,0.0,0.0,0.0,0.0,0.0,0.0,0.0,-2.3671,-2.4001,-2.4353,-2.4775,-2.4285,-2.3581,-2.2718,-2.2066,-2.1477,-2.0991,-2.0598,-2.0377,-2.0337,-2.019,-1.983,-1.9292,-1.9068,-1.8786,-1.8443,-1.8317,-1.8235,-1.8153,-1.7576,-1.7305,-1.7272,-1.6926,-1.6581,-1.6292,-1.6099,-1.5587,-1.5043,-1.5475,-1.5535,-1.5392,-1.5618,-1.527,-1.4698,-1.4698,-1.3836,-1.2881,-1.2881,-1.2881,-1.2881,-1.2881,-1.2147,-1.1266,-1.0914,-1.0064,-0.9256,-0.891,-0.8804,-0.8858,-0.9025,-0.9058,-0.9152,-0.9446,-0.9499,-0.9539,-0.9666,-0.9686,-0.9746,-0.9913,-0.9933,-1.0047,-1.0341,-1.0374,-1.0494,-1.0788,-1.0815,-1.0549,-0.9843,-0.9258,-0.8413,-0.7168,-0.6612,-0.6234,-0.6027,-0.603,-0.6105,-0.6338,-0.6338,-0.6338,-0.6338,-0.6338,-0.6291,0.0,0.0,0.0,0.0,0.0,0.0,-2.3523,-2.3927,-2.4327,0.0,0.0,0.0,0.0,0.0,0.0,0.0,0.0,0.0,0.0,0.0,0.0,0.0,0.0,0.0,0.0,-2.278,-2.288,-2.3482,-2.3653,-2.4042,-2.4746,-2.4208,-2.3962,-2.4061,-2.2634,-2.1876,-2.194,-2.1109,-2.0636,-2.0546,-2.0482,-1.9858,-1.8777,-1.9481,-1.9112,-1.7948,-1.871,-1.8716,-1.8249,-1.8249,-1.7854,-1.7272,-1.6926,-1.6581,-1.6203,-1.5389,-1.4845,-1.4507,-1.4586,-1.4704,-1.4903,-1.5354,-1.5095,-1.4619,-1.4619,-1.3794,-1.2881,-1.2881,-1.2881,-1.2881,-1.2881,-1.1891,-1.0914,-1.0813,-0.9814,-0.891,-0.8804,-0.8804,-0.8804,-0.8804,-0.8804,-0.8891,-0.909,-0.9137,-0.9279,-0.9546,-0.9586,-0.9599,-0.9633,-0.9659,-0.9793,-1.0087,-1.0147,-1.0274,-1.0598,-1.0498,-1.011,-0.9204,-0.9211,-0.8451,-0.6771,-0.6859,-0.661,-0.5976,-0.5996,-0.6081,-0.6237,-0.6251,-0.6338,-0.6338,-0.6338,-0.6329,0.0,0.0,0.0,0.0,0.0,0.0,-2.3132,-2.3404,-2.3764,0.0,0.0,0.0,0.0,0.0,0.0,0.0,0.0,0.0,0.0,0.0,0.0,0.0,0.0,0.0,0.0,-2.2113,-2.2289,-2.2407,-2.3356,-2.4118,-2.4526,-2.4595,-2.4372,-2.3864,-2.3602,-2.3234,-2.2777,-2.2586,-2.2143,-2.1446,-2.139,-2.0788,-1.9726,-1.9771,-1.9595,-1.923,-1.925,-1.8964,-1.8528,-1.8528,-1.8048,-1.7272,-1.6926,-1.6581,-1.6203,-1.5389,-1.4845,-1.4452,-1.4152,-1.4145,-1.4261,-1.4374,-1.4261,-1.4071,-1.4071,-1.3495,-1.2881,-1.2881,-1.2881,-1.2881,-1.2881,-1.2246,-1.1466,-1.0914,-1.0167,-0.9465,-0.891,-0.8804,-0.8804,-0.8804,-0.8804,-0.8824,-0.8884,-0.8891,-0.8911,-0.8965,-0.8978,-0.9065,-0.9299,-0.9532,-0.9793,-1.0087,-1.0327,-1.0557,-1.0618,-0.9983,-0.9198,-0.8291,-0.7606,-0.6775,-0.5733,-0.5698,-0.5723,-0.5674,-0.5786,-0.5922,-0.6074,-0.62,-0.6338,-0.6338,-0.6338,-0.6352,0.0,0.0,0.0,-2.3103,0.0,0.0,0.0,-2.2877,-2.3147,0.0,0.0,0.0,0.0,0.0,0.0,0.0,0.0,0.0,0.0,0.0,0.0,0.0,0.0,0.0,0.0,-2.1437,-2.142,-2.2051,-2.3193,-2.3966,-2.4247,-2.4489,-2.4542,-2.4321,-2.4011,-2.3707,-2.3456,-2.3151,-2.2789,-2.2348,-2.2306,-2.174,-2.0696,-2.0519,-2.0151,-1.9601,-1.938,-1.9031,-1.8585,-1.8585,-1.7988,-1.7027,-1.6866,-1.6581,-1.6176,-1.5166,-1.4658,-1.4406,-1.3769,-1.3782,-1.4085,-1.4085,-1.4232,-1.4284,-1.397,-1.3432,-1.2881,-1.2881,-1.2881,-1.2881,-1.2881,-1.2344,-1.1616,-1.0965,-1.0269,-0.9614,-0.8962,-0.8804,-0.8804,-0.8804,-0.8804,-0.8804,-0.8804,-0.8804,-0.8804,-0.8804,-0.8804,-0.8858,-0.9005,-0.9152,-0.9359,-0.9646,-0.9569,-0.9549,-0.9681,-0.9053,-0.8484,-0.8027,-0.7567,-0.6985,-0.6075,-0.6075,-0.5892,-0.5586,-0.5728,-0.584,-0.5915,-0.6071,-0.6186,-0.6338,-0.6338,-0.6338,0.0,0.0,0.0,0.0,0.0,-2.309,0.0,0.0,0.0,-2.2695,0.0,0.0,0.0,0.0,0.0,0.0,0.0,0.0,0.0,0.0,0.0,0.0,0.0,0.0,0.0,-2.0703,-2.0638,-2.1995,-2.2895,-2.3556,-2.3929,-2.4211,-2.4476,-2.4731,-2.4252,-2.4041,-2.413,-2.3702,-2.3394,-2.3241,-2.3244,-2.2696,-2.1683,-2.1287,-2.0646,-1.986,-1.9438,-1.8999,-1.8603,-1.8547,-1.7881,-1.6892,-1.6815,-1.6554,-1.6065,-1.5015,-1.4564,-1.4406,-1.3615,-1.3579,-1.3934,-1.3934,-1.4092,-1.4243,-1.374,-1.3186,-1.2773,-1.2852,-1.2881,-1.2881,-1.2881,-1.2452,-1.1823,-1.0965,-1.0364,-0.9762,-0.8956,-0.8804,-0.8804,-0.8804,-0.8804,-0.8804,-0.8804,-0.8804,-0.8804,-0.8804,-0.8804,-0.8804,-0.8804,-0.8858,-0.8978,-0.9157,-0.878,-0.8568,-0.8772,-0.8143,-0.7767,-0.7767,-0.7572,-0.7181,-0.6461,-0.6461,-0.614,-0.5542,-0.5657,-0.5732,-0.5762,-0.5884,-0.604,-0.6217,-0.6247,-0.6338,0.0,0.0,0.0,0.0,-2.329,0.0,0.0,0.0,-2.2398,-2.266,0.0,0.0,0.0,0.0,0.0,0.0,0.0,0.0,0.0,0.0,0.0,0.0,0.0,0.0,0.0,0.0,-2.034,-2.1967,-2.2218,-2.272,-2.3696,-2.3777,-2.4002,-2.4528,-2.4637,-2.4784,-2.4966,-2.5124,-2.4856,-2.416,-2.4144,-2.3655,-2.2688,-2.1596,-2.1041,-2.0872,-1.9601,-1.8861,-1.8585,-1.8351,-1.7854,-1.7224,-1.6917,-1.6394,-1.5784,-1.5225,-1.4814,-1.4438,-1.4,-1.3586,-1.3286,-1.3286,-1.3021,-1.2626,-1.2467,-1.2348,-1.2383,-1.2773,-1.2881,-1.2881,-1.2881,-1.2822,-1.2461,-1.1124,-1.0762,-1.0364,-0.9061,-0.8804,-0.8804,-0.8804,-0.8804,-0.8804,-0.8804,-0.8804,-0.8804,-0.8804,-0.8804,-0.8804,-0.8804,-0.9031,-0.915,-0.9183,-0.8946,-0.876,-0.879,-0.7629,-0.685,-0.685,-0.6141,-0.5624,-0.5557,-0.5557,-0.5502,-0.5456,-0.547,-0.5477,-0.5613,-0.5633,-0.5783,-0.6061,-0.6196,-0.6338,0.0,0.0,0.0,0.0,0.0,0.0,-2.2525,0.0,-2.2321,0.0,0.0,0.0,0.0,0.0,0.0,0.0,0.0,0.0,0.0,0.0,0.0,0.0,0.0,0.0,0.0,0.0,0.0,0.0,0.0,-2.23,-2.2745,-2.3374,-2.3798,-2.404,-2.4538,-2.4836,-2.4924,-2.5302,-2.5336,-2.5005,-2.5,-2.455,-2.3664,-2.2373,-2.1544,-2.1029,-1.9622,-1.8861,-1.8566,-1.831,-1.7721,-1.7018,-1.6866,-1.6501,-1.5996,-1.5344,-1.4845,-1.4438,-1.4019,-1.3581,-1.3248,-1.3609,-1.3128,-1.2523,-1.3032,-1.2562,-1.1982,-1.2686,-1.2695,-1.2559,-1.2812,-1.2559,-1.199,-1.1015,-1.0517,-0.9961,-0.9008,-0.8804,-0.8804,-0.8804,-0.8804,-0.8804,-0.8804,-0.8804,-0.8804,-0.8804,-0.8804,-0.8646,-0.8209,-0.8255,-0.816,-0.7718,-0.7406,-0.7189,-0.7189,-0.6429,-0.5943,-0.5943,-0.5624,-0.5428,-0.5428,-0.5428,-0.5428,-0.5428,-0.5428,-0.5459,-0.5457,-0.5545,-0.5694,-0.5901,-0.6054,-0.6129,-2.4625,0.0,0.0,0.0,0.0,0.0,0.0,0.0,0.0,0.0,0.0,0.0,0.0,0.0,0.0,0.0,0.0,0.0,0.0,0.0,0.0,0.0,0.0,0.0,0.0,0.0,0.0,-2.0766,-2.1404,-2.1898,-2.2096,-2.2919,-2.3486,-2.3692,-2.442,-2.4804,-2.4804,-2.5263,-2.5493,-2.5493,-2.5496,-2.5182,-2.4574,-2.3235,-2.2187,-2.135,-1.9851,-1.8985,-1.8566,-1.8229,-1.7693,-1.7068,-1.6866,-1.6659,-1.634,-1.5565,-1.4968,-1.447,-1.4181,-1.3682,-1.3226,-1.3398,-1.2906,-1.233,-1.2933,-1.2306,-1.1587,-1.2351,-1.2383,-1.2305,-1.2617,-1.226,-1.1616,-1.0965,-1.0269,-0.9614,-0.8962,-0.8804,-0.8804,-0.8804,-0.8804,-0.8804,-0.8804,-0.8804,-0.8804,-0.8804,-0.8804,-0.8533,-0.7777,-0.7723,-0.7402,-0.6696,-0.6236,-0.5992,-0.5992,-0.5634,-0.5428,-0.5428,-0.5428,-0.5428,-0.5428,-0.5428,-0.5428,-0.5428,-0.5428,-0.5428,-0.5428,-0.5474,-0.5579,-0.5688,-0.5922,-0.6054,0.0,0.0,0.0,-2.3765,0.0,0.0,0.0,0.0,-2.231,0.0,0.0,0.0,0.0,0.0,0.0,0.0,0.0,0.0,0.0,0.0,0.0,0.0,0.0,0.0,0.0,0.0,0.0,-2.178,-2.1328,-2.1336,-2.2068,-2.2435,-2.2957,-2.3671,-2.442,-2.4804,-2.4804,-2.5263,-2.5493,-2.5493,-2.5496,-2.5493,-2.5425,-2.4066,-2.3024,-2.218,-2.0499,-1.9333,-1.8547,-1.8035,-1.7811,-1.7704,-1.7043,-1.6789,-1.6686,-1.6039,-1.5225,-1.4501,-1.4501,-1.3934,-1.306,-1.2161,-1.1833,-1.17,-1.1176,-1.0937,-1.1025,-1.1518,-1.1904,-1.219,-1.22,-1.1996,-1.1616,-1.0965,-1.0269,-0.9614,-0.8962,-0.8804,-0.8804,-0.8804,-0.8804,-0.8804,-0.8804,-0.8804,-0.8804,-0.8804,-0.8804,-0.8533,-0.7777,-0.7723,-0.7402,-0.6696,-0.6236,-0.5992,-0.5992,-0.5634,-0.5428,-0.5428,-0.5428,-0.5428,-0.5428,-0.5428,-0.5428,-0.5428,-0.5428,-0.5428,-0.5428,-0.5432,-0.5435,-0.5452,-0.5827,-0.6108,0.0,0.0,-2.5253,-2.3765,0.0,0.0,0.0,0.0,0.0,0.0,0.0,0.0,0.0,0.0,0.0,0.0,0.0,0.0,0.0,0.0,0.0,0.0,0.0,0.0,0.0,0.0,0.0,-2.077,-2.0791,-2.1044,0.0,-2.2079,-2.26,-2.3346,-2.3968,-2.4452,-2.4804,-2.5129,-2.5368,-2.5493,-2.5496,-2.5493,-2.5445,-2.4105,-2.3062,-2.2218,-2.0535,-1.9332,-1.8547,-1.8035,-1.7681,-1.7415,-1.6993,-1.6659,-1.6394,-1.5955,-1.5255,-1.4406,-1.3835,-1.3459,-1.3094,-1.2473,-1.2066,-1.1752,-1.1496,-1.0995,-1.0645,-1.14,-1.1714,-1.1855,-1.2148,-1.1986,-1.1616,-1.0965,-1.0269,-0.9614,-0.8962,-0.8804,-0.8804,-0.8804,-0.8804,-0.8804,-0.8804,-0.8804,-0.8804,-0.8804,-0.8804,-0.8374,-0.7128,-0.6966,-0.6529,-0.5336,-0.5155,-0.5159,-0.5268,-0.5382,-0.5428,-0.5428,-0.5428,-0.5428,-0.5428,-0.5428,-0.5428,-0.5428,-0.5428,-0.5428,-0.5428,-0.5428,-0.5413,-0.5515,-0.5667,-0.5817,-2.5084,-2.5423,0.0,-2.4154,-2.4045,0.0,-2.2941,0.0,0.0,0.0,0.0,0.0,0.0,0.0,0.0,0.0,0.0,0.0,0.0,-1.8143,0.0,0.0,0.0,0.0,0.0,0.0,-1.9903,-2.0756,-2.0784,-2.108,0.0,0.0,-2.2548,-2.3189,-2.383,-2.4368,-2.4804,-2.5063,-2.5299,-2.5493,-2.5496,-2.5459,-2.5368,-2.4396,-2.3277,-2.2023,-2.0771,-1.954,-1.843,-1.7992,-1.7595,-1.7272,-1.6926,-1.6581,-1.6274,-1.5926,-1.5255,-1.4374,-1.348,-1.3198,-1.3094,-1.2473,-1.2174,-1.194,-1.1376,-1.0882,-1.0625,-1.103,-1.1253,-1.1436,-1.1875,-1.1809,-1.1496,-1.1232,-1.0669,-0.9961,-0.9309,-0.9159,-0.9061,-0.8857,-0.8804,-0.8804,-0.8804,-0.8804,-0.8804,-0.8804,-0.8804,-0.8268,-0.6804,-0.6588,-0.6046,-0.4625,-0.4599,-0.4772,-0.4975,-0.522,-0.5428,-0.5428,-0.5428,-0.5428,-0.5428,-0.5428,-0.5456,-0.5443,-0.5456,-0.5456,-0.5443,-0.5456,-0.5413,-0.5511,-0.5566,-0.564]},{"header":{"parameterUnit":"m.s-1","parameterCategory":1,"la1":30.6,"la2":29.2853,"lo1":-89.7004,"lo2":-87.6739,"dy":0.0162,"dx":0.0183,"nx":112,"ny":82,"refTime":"2023-05-02T18:00:00:Z","depth":0,"parameterNumber":3,"parameterNumberName":"V-component_of_WINDS"},"data":[0.0,0.0,0.0,0.0,0.0,0.0,0.0,0.0,0.0,0.0,0.0,0.0,0.0,0.0,0.0,0.0,0.0,0.0,0.0,0.0,0.0,0.0,0.0,0.0,0.0,0.0,0.0,0.0,0.0,0.0,0.0,0.0,0.0,0.0,0.0,0.0,0.0,0.0,0.0,0.0,0.0,0.0,0.0,0.0,0.0,0.0,0.0,0.0,0.0,0.0,0.0,0.0,0.0,0.0,0.0,0.0,0.0,0.0,0.0,0.0,0.0,0.0,0.0,0.0,0.0,0.0,0.0,0.0,0.0,0.0,0.0,0.0,0.0,0.0,0.0,0.0,0.0,0.0,0.0,0.0,0.0,0.0,0.0,0.0,0.0,0.0,0.0,0.0,0.0,0.0,-4.3792,-4.6257,-4.6727,-4.6633,-4.6144,-4.615,-4.3961,-3.8908,0.0,0.0,0.0,0.0,0.0,0.0,0.0,0.0,0.0,0.0,0.0,0.0,0.0,0.0,0.0,0.0,0.0,0.0,0.0,0.0,0.0,0.0,0.0,0.0,0.0,0.0,0.0,0.0,0.0,0.0,0.0,0.0,0.0,0.0,0.0,0.0,0.0,0.0,0.0,0.0,0.0,0.0,0.0,0.0,0.0,0.0,0.0,0.0,0.0,0.0,0.0,0.0,0.0,0.0,0.0,0.0,0.0,0.0,0.0,0.0,0.0,0.0,0.0,0.0,0.0,0.0,0.0,0.0,0.0,0.0,0.0,0.0,0.0,0.0,0.0,0.0,0.0,0.0,0.0,0.0,0.0,0.0,0.0,0.0,0.0,0.0,0.0,0.0,0.0,0.0,0.0,0.0,0.0,0.0,0.0,0.0,0.0,0.0,0.0,0.0,0.0,0.0,0.0,0.0,-4.2983,-4.5149,-4.5864,-4.635,-4.6578,-4.587,-4.4116,-4.1098,0.0,0.0,0.0,0.0,0.0,0.0,0.0,0.0,0.0,0.0,0.0,0.0,0.0,0.0,0.0,0.0,0.0,0.0,0.0,0.0,0.0,0.0,0.0,0.0,0.0,0.0,0.0,0.0,0.0,0.0,0.0,0.0,0.0,0.0,0.0,0.0,0.0,0.0,0.0,0.0,0.0,0.0,0.0,0.0,0.0,0.0,0.0,0.0,0.0,0.0,0.0,0.0,0.0,0.0,0.0,0.0,0.0,0.0,0.0,0.0,0.0,0.0,0.0,0.0,0.0,0.0,0.0,0.0,0.0,0.0,0.0,0.0,0.0,0.0,0.0,0.0,0.0,0.0,0.0,0.0,0.0,0.0,0.0,0.0,0.0,0.0,0.0,0.0,0.0,0.0,0.0,0.0,0.0,0.0,0.0,0.0,0.0,0.0,0.0,0.0,0.0,0.0,0.0,-4.2176,-4.3288,-4.3973,-4.5447,-4.6481,-4.664,-4.6501,-4.4945,-4.1594,-4.0487,0.0,0.0,0.0,0.0,0.0,0.0,0.0,0.0,0.0,0.0,0.0,0.0,0.0,0.0,0.0,0.0,0.0,0.0,0.0,0.0,0.0,0.0,0.0,0.0,0.0,0.0,0.0,0.0,0.0,0.0,0.0,0.0,0.0,0.0,0.0,0.0,0.0,0.0,0.0,0.0,0.0,0.0,0.0,0.0,0.0,0.0,0.0,0.0,0.0,0.0,0.0,0.0,0.0,0.0,0.0,0.0,0.0,0.0,0.0,0.0,0.0,0.0,0.0,0.0,0.0,0.0,0.0,0.0,0.0,0.0,0.0,0.0,0.0,0.0,0.0,0.0,0.0,0.0,0.0,0.0,0.0,0.0,0.0,0.0,0.0,0.0,0.0,0.0,0.0,0.0,0.0,0.0,0.0,0.0,0.0,0.0,0.0,0.0,0.0,0.0,0.0,0.0,-4.233,-4.3589,-4.3056,-4.527,-4.6623,-4.6401,-4.6471,-4.511,-4.1609,-4.0322,0.0,0.0,0.0,0.0,0.0,0.0,0.0,0.0,0.0,0.0,0.0,0.0,0.0,0.0,0.0,0.0,0.0,0.0,0.0,0.0,0.0,0.0,0.0,0.0,0.0,0.0,0.0,0.0,0.0,0.0,0.0,0.0,0.0,0.0,0.0,0.0,0.0,0.0,0.0,0.0,0.0,0.0,0.0,0.0,0.0,0.0,0.0,0.0,0.0,0.0,0.0,0.0,0.0,0.0,0.0,0.0,0.0,0.0,0.0,0.0,0.0,0.0,0.0,0.0,0.0,0.0,0.0,0.0,0.0,0.0,0.0,0.0,0.0,0.0,0.0,0.0,0.0,0.0,0.0,0.0,0.0,0.0,0.0,0.0,0.0,0.0,0.0,0.0,0.0,0.0,0.0,0.0,0.0,0.0,0.0,0.0,0.0,0.0,0.0,0.0,0.0,0.0,-4.1765,-4.3088,-4.2861,-4.5133,-4.6337,-4.544,-4.4811,-4.3629,-4.1504,-3.902,0.0,0.0,0.0,0.0,0.0,0.0,0.0,0.0,0.0,0.0,0.0,0.0,0.0,0.0,0.0,0.0,0.0,0.0,0.0,0.0,0.0,0.0,0.0,0.0,0.0,0.0,0.0,0.0,0.0,0.0,0.0,0.0,0.0,0.0,0.0,0.0,0.0,0.0,0.0,0.0,0.0,0.0,0.0,0.0,0.0,0.0,0.0,0.0,0.0,0.0,0.0,0.0,0.0,0.0,0.0,0.0,0.0,0.0,0.0,0.0,0.0,0.0,0.0,0.0,0.0,0.0,0.0,0.0,0.0,0.0,0.0,0.0,0.0,0.0,0.0,0.0,0.0,0.0,0.0,0.0,0.0,0.0,0.0,0.0,0.0,0.0,0.0,0.0,0.0,0.0,0.0,0.0,0.0,0.0,0.0,0.0,0.0,0.0,0.0,0.0,0.0,0.0,-4.0664,-4.2173,0.0,-4.4327,-4.5656,-4.5289,-4.5843,-4.4811,-4.1579,0.0,0.0,0.0,0.0,0.0,0.0,0.0,0.0,0.0,0.0,0.0,0.0,0.0,0.0,0.0,0.0,0.0,0.0,0.0,0.0,0.0,0.0,0.0,0.0,0.0,0.0,0.0,0.0,0.0,0.0,0.0,0.0,0.0,0.0,0.0,0.0,0.0,0.0,0.0,0.0,0.0,0.0,0.0,0.0,0.0,0.0,0.0,0.0,0.0,0.0,0.0,0.0,0.0,0.0,0.0,0.0,0.0,0.0,0.0,0.0,0.0,0.0,0.0,0.0,0.0,0.0,0.0,0.0,0.0,0.0,0.0,0.0,0.0,0.0,0.0,0.0,0.0,0.0,0.0,0.0,0.0,0.0,0.0,0.0,0.0,0.0,0.0,0.0,0.0,0.0,0.0,0.0,0.0,0.0,0.0,0.0,0.0,0.0,0.0,0.0,0.0,0.0,-3.7702,-4.0047,-4.1759,0.0,-4.3955,-4.5394,-4.5603,-4.5873,-4.4788,-4.1912,0.0,0.0,0.0,0.0,0.0,0.0,0.0,0.0,0.0,0.0,0.0,0.0,0.0,0.0,0.0,0.0,0.0,0.0,0.0,0.0,0.0,0.0,0.0,0.0,0.0,0.0,0.0,0.0,0.0,0.0,0.0,0.0,0.0,0.0,0.0,0.0,0.0,0.0,0.0,0.0,0.0,0.0,0.0,0.0,0.0,0.0,0.0,0.0,0.0,0.0,0.0,0.0,0.0,0.0,0.0,0.0,0.0,0.0,0.0,0.0,0.0,0.0,0.0,0.0,0.0,0.0,0.0,0.0,0.0,0.0,0.0,0.0,0.0,0.0,0.0,0.0,0.0,0.0,0.0,0.0,0.0,0.0,0.0,0.0,0.0,0.0,0.0,0.0,0.0,0.0,0.0,0.0,0.0,0.0,0.0,0.0,0.0,0.0,0.0,0.0,0.0,0.0,-3.7702,-4.0047,-4.1933,-4.2453,-4.4164,-4.5574,-4.6262,-4.4511,-4.3072,0.0,0.0,0.0,0.0,0.0,0.0,0.0,0.0,0.0,0.0,0.0,0.0,0.0,0.0,0.0,0.0,0.0,0.0,0.0,0.0,0.0,0.0,0.0,0.0,0.0,0.0,0.0,0.0,0.0,0.0,0.0,0.0,0.0,0.0,0.0,0.0,0.0,0.0,0.0,0.0,0.0,0.0,0.0,0.0,0.0,0.0,0.0,0.0,0.0,0.0,0.0,0.0,0.0,0.0,0.0,0.0,0.0,0.0,0.0,0.0,0.0,0.0,0.0,0.0,0.0,0.0,0.0,0.0,0.0,0.0,0.0,0.0,0.0,0.0,0.0,0.0,0.0,0.0,0.0,0.0,0.0,0.0,0.0,0.0,0.0,0.0,0.0,0.0,0.0,0.0,0.0,0.0,0.0,0.0,0.0,0.0,0.0,0.0,0.0,0.0,0.0,0.0,0.0,-3.7576,-3.9971,-4.1868,-4.2364,-4.4148,-4.5574,-4.6262,-4.6355,-4.5263,-4.2705,0.0,0.0,0.0,0.0,0.0,0.0,0.0,0.0,0.0,0.0,0.0,0.0,0.0,0.0,0.0,0.0,0.0,0.0,0.0,0.0,0.0,0.0,0.0,0.0,0.0,0.0,0.0,0.0,0.0,0.0,0.0,0.0,0.0,0.0,0.0,0.0,0.0,0.0,0.0,0.0,0.0,0.0,0.0,0.0,0.0,0.0,0.0,0.0,0.0,0.0,0.0,0.0,0.0,0.0,0.0,0.0,0.0,0.0,0.0,0.0,0.0,0.0,0.0,0.0,0.0,0.0,0.0,0.0,0.0,0.0,0.0,0.0,0.0,0.0,0.0,0.0,0.0,0.0,0.0,0.0,0.0,0.0,0.0,0.0,0.0,0.0,0.0,0.0,0.0,0.0,0.0,0.0,0.0,0.0,0.0,0.0,0.0,0.0,0.0,0.0,0.0,0.0,-3.7908,-4.0165,-4.2108,-4.3289,-4.4947,-4.6509,-4.7865,-4.7948,-4.6721,-4.3791,0.0,0.0,0.0,0.0,0.0,0.0,0.0,0.0,0.0,0.0,0.0,0.0,0.0,0.0,0.0,0.0,0.0,0.0,0.0,0.0,0.0,0.0,0.0,0.0,0.0,0.0,0.0,0.0,0.0,0.0,0.0,0.0,0.0,0.0,0.0,0.0,0.0,0.0,0.0,0.0,0.0,0.0,0.0,0.0,0.0,0.0,0.0,0.0,0.0,0.0,0.0,0.0,0.0,0.0,0.0,0.0,0.0,0.0,0.0,0.0,0.0,0.0,0.0,0.0,0.0,0.0,0.0,0.0,0.0,0.0,0.0,0.0,0.0,0.0,0.0,0.0,0.0,0.0,0.0,0.0,0.0,0.0,0.0,0.0,0.0,0.0,0.0,0.0,0.0,0.0,0.0,0.0,0.0,0.0,0.0,0.0,0.0,0.0,0.0,0.0,0.0,0.0,-3.8771,-4.0593,-4.2703,-4.4861,-4.6251,-4.7964,-5.0208,-4.9176,-4.7545,-4.5406,0.0,0.0,0.0,0.0,0.0,0.0,0.0,0.0,0.0,0.0,0.0,0.0,0.0,0.0,0.0,0.0,0.0,0.0,0.0,0.0,0.0,0.0,0.0,0.0,0.0,0.0,0.0,0.0,0.0,0.0,0.0,0.0,0.0,0.0,0.0,0.0,0.0,0.0,0.0,0.0,0.0,0.0,0.0,0.0,0.0,0.0,0.0,0.0,0.0,0.0,0.0,0.0,0.0,0.0,0.0,0.0,0.0,0.0,0.0,0.0,-3.4106,0.0,0.0,0.0,0.0,0.0,0.0,0.0,0.0,0.0,0.0,0.0,0.0,0.0,0.0,0.0,0.0,0.0,0.0,0.0,0.0,0.0,0.0,0.0,0.0,0.0,0.0,0.0,0.0,0.0,0.0,0.0,0.0,0.0,0.0,0.0,0.0,0.0,0.0,0.0,0.0,0.0,-4.0345,-4.1863,-4.3848,-4.651,-4.7495,-4.8636,-5.0285,-4.9783,-4.8486,-4.6258,-4.499,0.0,0.0,0.0,0.0,0.0,0.0,0.0,0.0,0.0,0.0,0.0,0.0,0.0,0.0,0.0,0.0,0.0,0.0,0.0,0.0,0.0,0.0,0.0,0.0,0.0,0.0,0.0,0.0,0.0,0.0,0.0,0.0,0.0,0.0,0.0,0.0,0.0,0.0,0.0,0.0,0.0,0.0,0.0,0.0,0.0,0.0,0.0,0.0,0.0,0.0,0.0,0.0,0.0,0.0,0.0,0.0,0.0,0.0,0.0,0.0,-3.5235,0.0,0.0,0.0,0.0,0.0,0.0,0.0,0.0,0.0,0.0,0.0,0.0,0.0,0.0,0.0,0.0,0.0,0.0,0.0,0.0,0.0,0.0,0.0,0.0,0.0,0.0,0.0,0.0,0.0,0.0,0.0,0.0,0.0,0.0,0.0,0.0,0.0,0.0,0.0,0.0,-4.1354,-4.2489,-4.4227,-4.7163,-4.8085,-4.9235,-5.1119,-5.0753,-4.9642,-4.7808,-4.6077,0.0,0.0,0.0,0.0,0.0,0.0,0.0,0.0,0.0,0.0,0.0,0.0,0.0,0.0,0.0,0.0,0.0,0.0,0.0,0.0,0.0,0.0,0.0,0.0,0.0,0.0,0.0,0.0,0.0,0.0,0.0,0.0,0.0,0.0,0.0,0.0,0.0,0.0,0.0,0.0,0.0,0.0,0.0,0.0,0.0,0.0,0.0,0.0,0.0,0.0,0.0,0.0,0.0,-3.4047,-3.4659,-3.456,-3.4525,-3.5913,-3.8189,-3.8238,-3.8433,-3.8676,0.0,0.0,0.0,0.0,0.0,0.0,0.0,0.0,0.0,0.0,0.0,0.0,0.0,0.0,0.0,0.0,0.0,0.0,0.0,0.0,0.0,0.0,0.0,0.0,0.0,-4.1966,-4.2567,0.0,0.0,0.0,0.0,0.0,0.0,0.0,0.0,0.0,0.0,0.0,0.0,-4.2145,-4.2989,-4.4544,-4.7602,-4.8514,-4.9793,-5.193,-5.1437,-5.0439,-4.9086,-4.6921,-4.4807,0.0,0.0,0.0,0.0,0.0,0.0,0.0,0.0,0.0,0.0,0.0,0.0,0.0,0.0,0.0,0.0,0.0,0.0,0.0,0.0,0.0,0.0,0.0,0.0,0.0,0.0,0.0,0.0,0.0,0.0,0.0,0.0,-1.8156,-1.7397,0.0,0.0,0.0,0.0,0.0,0.0,0.0,0.0,0.0,0.0,0.0,0.0,0.0,0.0,-3.2962,-3.5487,-3.6108,-3.4826,-3.8074,-3.8587,-3.6709,-3.8128,-3.9234,-4.0235,-4.1297,0.0,-4.0038,-3.8781,0.0,0.0,0.0,0.0,0.0,0.0,0.0,0.0,0.0,0.0,0.0,0.0,0.0,0.0,0.0,0.0,0.0,0.0,0.0,0.0,0.0,0.0,-4.1981,-4.2021,-4.3201,-4.4185,0.0,-4.3331,-4.2658,-4.1085,-4.0392,0.0,0.0,0.0,0.0,0.0,0.0,0.0,-4.2934,-4.3895,-4.5571,-4.854,-4.9502,-5.0295,-5.1285,-5.0676,-4.9881,-4.9052,-4.6921,-4.528,-4.4316,-4.2016,0.0,0.0,0.0,0.0,0.0,0.0,0.0,0.0,0.0,0.0,0.0,0.0,0.0,0.0,0.0,0.0,0.0,0.0,0.0,0.0,0.0,0.0,0.0,0.0,0.0,0.0,0.0,0.0,0.0,-1.788,-1.5293,-1.5551,-1.7338,-1.8845,0.0,0.0,0.0,0.0,0.0,0.0,0.0,0.0,0.0,-3.1656,-3.3129,-3.4114,-3.4589,-3.6365,-3.6916,-3.6363,-3.8194,-3.8558,-3.7646,-3.8337,-3.9401,-4.0696,-4.2064,-4.2624,-4.2509,-4.123,-4.0232,-3.9514,0.0,0.0,0.0,0.0,-3.7195,-3.7195,-3.7644,-3.8003,0.0,0.0,0.0,0.0,0.0,0.0,0.0,0.0,0.0,0.0,0.0,0.0,0.0,-4.4627,-4.5884,-4.7032,-4.7064,-4.6481,-4.5382,0.0,-4.2828,-4.2236,-4.1052,0.0,0.0,0.0,0.0,-4.1525,-4.3775,-4.4739,-4.6194,-4.8731,-4.9289,-4.9779,-5.0524,-5.0287,-4.9949,-4.9644,-4.7936,-4.643,-4.5263,-4.3031,-4.1627,0.0,0.0,0.0,0.0,0.0,0.0,0.0,0.0,0.0,0.0,0.0,0.0,0.0,0.0,0.0,0.0,0.0,0.0,0.0,0.0,0.0,0.0,0.0,0.0,0.0,0.0,0.0,0.0,-1.5248,-1.4042,-1.4581,-1.6976,-1.8833,0.0,0.0,0.0,0.0,0.0,0.0,-2.7995,-2.9186,-3.0903,-3.3303,-3.4794,-3.583,-3.6383,-3.7349,-3.7826,-3.7826,-3.8241,-3.8429,-3.8429,-3.8429,-3.9153,-4.037,-4.195,-4.316,-4.391,-4.3197,-4.2372,-4.1504,-4.0187,-3.926,-3.8721,-3.923,-3.92,-3.905,-4.0053,-4.0397,-4.0336,-4.0051,0.0,-3.8812,-3.7634,0.0,0.0,0.0,0.0,-4.2075,-4.3564,-4.4959,-4.6161,-4.6762,-4.7977,-4.9001,-4.9001,-4.8426,-4.7378,0.0,-4.4993,-4.4384,-4.2844,0.0,0.0,0.0,0.0,-4.2151,-4.4045,-4.5128,-4.6397,-4.824,-4.8781,-4.9221,-4.9763,-4.9813,-4.9813,-4.9813,-4.8612,-4.7344,-4.6041,-4.3978,-4.2439,-4.1508,0.0,0.0,0.0,0.0,0.0,0.0,0.0,0.0,0.0,0.0,0.0,0.0,0.0,0.0,0.0,0.0,0.0,0.0,0.0,0.0,0.0,0.0,0.0,0.0,0.0,0.0,0.0,0.0,0.0,-1.4736,-1.7476,0.0,0.0,0.0,0.0,-2.4428,-2.5643,-2.7049,-2.8679,-3.0997,-3.2889,-3.4074,-3.6554,-3.8115,-3.8693,-3.9283,-3.9572,-3.9572,-3.9597,-3.9609,-3.9609,-3.9609,-3.9333,-3.9158,-4.1489,-4.2606,-4.2865,-4.3807,-4.3464,-4.2177,-4.0861,-3.9948,-3.9364,-3.9409,-3.9783,-4.0307,-4.0382,-4.0397,-4.0487,-4.113,-4.0963,-4.0337,-3.9647,-4.0068,0.0,0.0,-4.2712,-4.3656,-4.5172,-4.6194,-4.6938,-4.7656,-4.8399,-4.9001,-4.9001,-4.8426,-4.7682,0.0,-4.6126,-4.5162,-4.3623,0.0,-4.3047,-4.2286,-4.2202,-4.254,-4.3369,-4.4773,-4.6007,-4.6819,-4.8156,-4.9018,-4.9052,-4.9069,-4.9069,-4.9069,-4.8342,-4.7564,-4.6769,-4.528,-4.3758,-4.2269,-4.1283,0.0,0.0,0.0,0.0,0.0,0.0,0.0,0.0,0.0,0.0,0.0,0.0,0.0,0.0,0.0,0.0,0.0,0.0,0.0,0.0,0.0,0.0,0.0,0.0,0.0,0.0,0.0,0.0,-1.5752,-1.7992,0.0,-2.1016,-2.2706,-2.4312,-2.5972,-2.6794,-2.8116,-3.0147,-3.1392,-3.3162,-3.5734,-3.6976,-3.8209,-3.9396,-3.9597,-3.9697,-3.9697,-3.9697,-3.9509,-3.917,-3.917,-3.8856,-3.8502,-4.0911,-4.2026,-4.2167,-4.4159,-4.4676,-4.4122,-4.2806,-4.1878,-4.1369,-4.1788,-4.1818,-4.1728,-4.2132,-4.2297,-4.2117,-4.1085,-4.0347,-3.9813,-3.9662,-3.9825,-4.0341,-4.1626,-4.221,-4.2782,-4.4297,-4.5313,-4.6262,-4.7414,-4.8392,-4.8883,-4.8409,-4.8477,-4.8392,-4.7665,-4.6921,-4.6075,-4.506,-4.4485,-4.3741,-4.2472,-4.2709,-4.3301,-4.4062,-4.5077,-4.6177,-4.7394,-4.7986,-4.8494,-4.8968,-4.9001,-4.8798,-4.8342,-4.8071,-4.7378,-4.6143,-4.4637,-4.3352,-4.2303,-4.0543,-4.004,0.0,0.0,0.0,0.0,0.0,0.0,0.0,0.0,0.0,0.0,0.0,0.0,0.0,0.0,0.0,0.0,0.0,0.0,0.0,0.0,0.0,0.0,0.0,0.0,0.0,0.0,-1.6567,-1.6567,-1.924,-2.1399,-2.2064,-2.4251,-2.6153,-2.7522,-2.8193,-2.9183,-3.0595,-3.1704,-3.3279,-3.542,-3.6849,-3.8019,-3.8908,-3.9465,-3.9697,-3.9697,-3.9697,-3.9496,-3.9145,-3.8956,-3.8555,-3.8088,-3.992,-4.1014,-4.1543,-4.3297,-4.4406,-4.487,-4.4003,-4.3269,-4.2746,-4.3165,-4.306,-4.2746,-4.318,-4.3045,-4.2462,-4.116,-4.0292,-3.9691,-3.9534,-4.004,-4.0882,-4.1929,-4.2563,-4.3275,-4.4509,-4.5471,-4.6401,-4.7062,-4.8122,-4.8731,-4.775,-4.8308,-4.8781,-4.8054,-4.7716,-4.731,-4.6583,-4.5821,-4.4976,-4.3961,-4.3809,-4.4096,-4.4857,-4.5399,-4.6075,-4.7073,-4.7614,-4.8003,-4.824,-4.8494,-4.8325,-4.7581,-4.731,-4.6616,-4.5382,-4.4096,-4.2946,-4.1948,-3.9914,-3.9462,-4.0682,0.0,0.0,0.0,0.0,0.0,0.0,0.0,0.0,0.0,0.0,0.0,0.0,0.0,0.0,0.0,0.0,0.0,0.0,0.0,0.0,0.0,0.0,0.0,-1.8897,-1.7901,-1.7318,-1.7345,-2.1086,-2.3599,-2.3021,-2.6571,-2.8865,-2.8984,-2.9746,-3.0215,-3.0215,-3.2055,-3.3077,-3.3077,-3.5934,-3.7465,-3.7465,-3.8908,-3.9697,-3.9697,-3.9697,-3.9672,-3.9622,-3.9082,-3.8517,-3.8013,-3.8652,-3.957,-4.0849,-4.1397,-4.2655,-4.4287,-4.4287,-4.3898,-4.3329,-4.3329,-4.3329,-4.3329,-4.3329,-4.2491,-4.1414,-4.1414,-4.095,-4.0292,-3.9694,-4.0994,-4.2695,-4.2767,-4.3859,-4.517,-4.5911,-4.6767,-4.7292,-4.6618,-4.7738,-4.8528,-4.7073,-4.7902,-4.8714,-4.7986,-4.8443,-4.8714,-4.8037,-4.731,-4.6802,-4.6769,-4.5534,0.0,-4.5585,-4.5703,-4.572,-4.5737,-4.7039,-4.7631,-4.6887,-4.7496,-4.7581,-4.6769,-4.6058,-4.5314,-4.4536,-4.3758,-4.2658,-4.1187,-3.9512,-3.9241,-4.0347,0.0,0.0,0.0,0.0,0.0,0.0,0.0,0.0,0.0,0.0,0.0,0.0,0.0,0.0,0.0,0.0,0.0,0.0,0.0,0.0,0.0,0.0,-2.1078,-1.9551,-1.9769,-1.9847,-1.9421,-2.1671,-2.374,-2.5085,-2.714,-2.9016,-3.0227,-3.0566,-3.0703,-3.0703,-3.1265,-3.1988,-3.3077,-3.4947,-3.6379,-3.7465,-3.8908,-3.9697,-3.9697,-3.9697,-3.927,-3.8467,-3.8316,-3.7713,-3.6905,-3.7885,-3.8979,-4.0207,-4.124,-4.2392,-4.3599,-4.3599,-4.3494,-4.3329,-4.3329,-4.3329,-4.3329,-4.3329,-4.2791,-4.2087,-4.2087,-4.1324,-4.0546,-4.1324,-4.1686,-4.1821,-4.238,-4.2788,-4.3182,-4.3425,-4.4228,-4.5105,-4.5427,-4.648,-4.7141,-4.621,-4.6735,-4.7192,-4.6464,-4.6904,-4.7513,-4.7851,-4.775,-4.7242,-4.616,-4.5652,0.0,-4.4942,-4.5365,-4.5906,-4.643,-4.7344,-4.7834,-4.7631,-4.78,-4.7141,-4.5297,-4.4993,-4.4299,-4.298,-4.2202,-4.1356,-4.0409,-4.0315,-4.0639,0.0,0.0,0.0,0.0,0.0,0.0,0.0,0.0,0.0,0.0,0.0,0.0,0.0,0.0,0.0,0.0,0.0,0.0,0.0,0.0,0.0,0.0,-2.3631,-2.3394,-2.2625,-2.2466,-2.2276,-2.1506,-2.3672,-2.552,-2.596,-2.8059,-2.9893,-3.0889,-3.0889,-3.0889,-3.0889,-3.0703,-3.1126,-3.2197,-3.3996,-3.5511,-3.6595,-3.8687,-3.9697,-3.9697,-3.9459,-3.9007,-3.8354,-3.7877,-3.7312,0.0,-3.716,-3.803,-3.9183,-3.9858,-4.0647,0.0,0.0,0.0,0.0,0.0,-4.2761,-4.2506,-4.2506,-4.2087,-4.1534,-4.1534,-4.1025,-4.0487,-4.098,-4.125,-4.1399,-4.1504,-4.1728,-4.1953,-4.1953,-4.3046,-4.4141,-4.417,-4.553,-4.6498,-4.5466,-4.6058,-4.6583,-4.5838,-4.6295,0.0,-4.7378,-4.7192,-4.6802,-4.6244,-4.5635,-4.5196,-4.506,-4.5162,-4.5399,-4.5821,-4.6549,-4.687,-4.6549,-4.6802,0.0,0.0,0.0,-4.2946,-4.1424,-4.0967,0.0,0.0,0.0,-4.0377,-4.0972,0.0,0.0,0.0,-4.2898,-4.28,0.0,0.0,0.0,0.0,0.0,0.0,0.0,0.0,0.0,0.0,0.0,0.0,0.0,0.0,0.0,0.0,-2.5635,-2.6509,-2.6783,-2.5778,-2.4705,-2.3528,-2.6396,-2.7811,-2.6461,-2.9048,-3.0889,-3.0889,-3.0889,-3.0869,-3.081,0.0,0.0,0.0,0.0,-3.4739,-3.512,-3.8194,-3.9634,-3.9496,-3.9069,-3.8806,-3.8642,-3.7638,-3.7149,-3.7061,-3.6571,-3.707,-3.8107,-3.8041,-3.8445,-3.9327,-4.1931,-4.2947,-4.3045,-4.2462,-4.1878,-4.1384,-4.1384,0.0,0.0,-4.0487,-4.0412,-4.0202,-3.9768,-4.0397,-4.116,-4.0651,-4.0935,-4.146,-4.152,-4.276,-4.3837,-4.3263,-4.4913,-4.6177,-4.4857,-4.5618,-4.6346,-4.5703,-4.6092,-4.6532,-4.6532,-4.6143,-4.6024,-4.6583,-4.5551,-4.4925,-4.55,-4.506,-4.4705,-4.4705,0.0,0.0,-4.4773,-4.5314,-4.5043,-4.3521,-4.2642,-4.1542,-4.0138,-4.007,-3.9766,-3.9123,-3.9188,-3.9474,-4.0051,-4.0641,-4.1564,-4.2788,-4.3286,-4.3497,0.0,0.0,0.0,0.0,0.0,0.0,0.0,0.0,0.0,0.0,0.0,0.0,0.0,0.0,0.0,-2.5254,-2.6279,-2.726,-2.8276,-2.8535,-2.776,-2.5674,-2.7159,-2.8298,-2.7931,-2.9776,-3.0889,-3.0889,-3.0889,-3.0723,-3.0351,-3.0244,0.0,-2.9834,-3.2996,-3.4403,-3.4101,-3.783,-3.9233,-3.8329,0.0,0.0,-3.75,-3.7287,-3.6935,-3.6521,-3.6408,-3.707,-3.8081,-3.7606,-3.8341,-3.9742,-4.0285,-4.1003,-4.1743,-4.1624,-4.1489,-4.1384,-4.1384,-4.095,-4.0487,-4.101,-4.0472,-3.9783,-4.0711,-4.0816,0.0,-4.107,-4.128,-4.1596,-4.2276,-4.2808,-4.3345,-4.3956,-4.4564,-4.4925,-4.4637,-4.4807,-4.4959,-4.4823,-4.4908,-4.501,-4.501,-4.5872,-4.643,-4.5974,-4.5669,-4.5314,-4.4857,-4.5213,-4.5483,-4.5483,-4.6143,-4.6295,-4.5551,-4.5618,-4.5043,-4.3521,-4.2168,-4.1018,-4.0121,-4.007,-4.0003,-3.9868,-4.0323,-4.0833,-4.141,-4.2029,-4.2663,-4.3339,-4.3444,-4.3497,0.0,0.0,0.0,0.0,0.0,0.0,0.0,0.0,0.0,0.0,0.0,-2.5123,0.0,0.0,-2.4932,-2.6455,-2.706,-2.7705,-2.8769,-2.9111,-2.8634,-2.7068,-2.8546,-2.9285,-2.8536,-2.9903,-3.0889,-3.0889,-3.0674,-3.0439,-3.0205,-2.9795,-2.956,-2.957,-3.2448,-3.3821,-3.381,-3.7176,-3.8567,-3.8002,-3.8015,-3.7726,-3.7174,-3.6897,-3.6471,-3.5956,-3.5956,-3.6138,-3.6354,-3.5787,-3.6708,-3.839,-3.8145,-3.9199,-4.0891,-4.0891,-4.0681,-4.0397,-4.0397,-4.0187,-3.9963,-4.0292,-3.9963,-3.9544,-4.0202,-4.0172,-3.9978,-4.0307,-4.0397,-4.0603,-4.1463,-4.2133,-4.2719,-4.3588,-4.4215,-4.4587,-4.4587,-4.4587,-4.4587,-4.4587,-4.4587,-4.4587,-4.4587,-4.5196,-4.5551,-4.5196,-4.5145,-4.501,-4.4621,-4.4908,-4.5145,-4.5145,-4.5466,-4.5534,-4.5179,-4.479,-4.4062,-4.2929,-4.1813,-4.0865,-4.0104,-4.007,-4.007,-4.007,-4.0368,-4.0797,-4.1358,-4.1937,-4.2541,-4.3105,-4.3375,-4.3497,0.0,0.0,0.0,0.0,0.0,0.0,0.0,0.0,-3.1442,-3.1157,-2.8769,-2.6886,-2.7535,-2.6455,-2.5928,-2.7422,-2.7734,-2.8027,-2.8701,-2.8867,-2.8718,-2.8118,-2.9526,-3.0142,-2.879,-2.989,-3.0635,-3.0635,-3.0283,-3.0039,-2.9951,-2.9297,-2.9043,-2.9316,-3.19,-3.3342,-3.3529,-3.6533,-3.7902,-3.7688,-3.7349,-3.7123,-3.701,-3.6571,-3.6056,-3.5449,-3.5429,-3.5077,-3.4525,-3.4085,-3.5142,-3.6916,-3.6405,-3.7873,-4.0217,-4.0217,-3.9783,-3.923,-3.9364,-3.9245,-3.9065,-3.9334,-3.9334,-3.9245,-3.9379,-3.9424,-3.9424,-3.9424,-3.9424,-3.961,-4.069,-4.1478,-4.2252,-4.3306,-4.4064,-4.4587,-4.4587,-4.4468,-4.4401,-4.4553,-4.4451,-4.4401,-4.4553,-4.4587,-4.4587,-4.4587,-4.4587,-4.4587,-4.4587,-4.4587,-4.4587,-4.4587,-4.4587,-4.4519,-4.4367,-4.3639,-4.2878,-4.2117,-4.1525,-4.0865,-4.0104,-4.007,-4.007,-4.007,-4.0204,-4.0546,-4.1087,-4.1664,-4.2284,-4.2864,-4.3286,-4.3497,-3.487,-3.5337,-3.6729,-3.8093,-3.7461,-3.697,0.0,0.0,-3.4747,-3.3028,-3.1097,-2.9259,-2.7832,-2.7195,-2.6982,-2.7568,-2.7978,-2.8252,-2.835,-2.8682,-2.8846,-2.8823,-2.9332,-2.9717,-2.9472,-2.9604,-2.9717,-2.9717,-2.9668,-2.9473,-2.9082,-2.8975,-2.8769,-2.8447,-3.1556,-3.3005,-3.2499,-3.6169,-3.7513,-3.6546,-3.6973,-3.6923,-3.6458,-3.6383,-3.6056,-3.5424,-3.5027,-3.45,-3.3985,-3.3922,-3.4881,-3.6294,-3.6225,-3.7539,-3.9529,-3.9529,-3.9095,-3.8601,-3.92,-3.8631,-3.7838,-3.9035,-3.9005,-3.8616,-3.923,-3.9424,-3.9424,-3.9424,-3.9424,-3.9809,-4.1412,-4.1933,-4.2379,-4.4064,-4.4514,-4.4587,-4.4587,-4.4045,-4.3758,-4.4451,-4.4012,-4.3775,-4.4468,-4.4587,-4.4587,-4.4587,-4.4587,-4.4587,-4.4587,-4.4587,-4.4587,-4.4587,-4.4587,-4.4299,-4.3606,-4.2844,-4.21,-4.1373,-4.1255,-4.0865,-4.0104,-4.007,-4.007,-4.007,-4.0577,-4.1087,-4.1707,-4.2302,-4.2884,-4.341,-4.3479,-4.3497,-3.8568,-3.8038,0.0,0.0,-3.886,-3.8213,-3.7818,-3.6222,-3.4693,-3.4182,-3.2016,-3.0037,-2.9443,-2.8423,-2.7633,0.0,-2.8018,-2.8203,-2.7959,-2.8086,-2.8096,-2.7842,-2.7969,-2.8476,-2.9473,-2.957,-2.957,-2.957,-2.9336,-2.9111,-2.8926,-2.8682,-2.8476,-2.8301,-3.0412,-3.1738,-3.2331,-3.4691,-3.6111,-3.6358,-3.6596,-3.642,-3.5893,-3.5893,-3.5416,-3.4562,-3.401,-3.3633,-3.342,-3.342,-3.4275,-3.5742,-3.6073,-3.7025,-3.8287,-3.8676,-3.8631,-3.8377,-3.8272,-3.7883,-3.7494,-3.8063,-3.8063,-3.7868,-3.8153,-3.8257,-3.8257,-3.8257,-3.8527,-3.9204,-4.0942,-4.1693,-4.2442,-4.4196,-4.4587,-4.4451,-4.3995,-4.3656,-4.3386,-4.3267,-4.298,-4.2861,-4.3183,-4.325,-4.325,-4.325,-4.4012,-4.4587,-4.4587,-4.4181,-4.3741,-4.3301,-4.325,-4.3115,-4.2794,-4.2472,-4.1982,-4.1255,-4.1204,-4.0985,-4.0563,-4.0577,-4.0703,-4.1076,-4.1313,-4.1707,-4.2342,-4.2577,-4.2976,-4.3497,-4.3497,-4.3497,-3.9295,0.0,0.0,-3.9435,-3.9751,-3.9312,-3.74,-3.6324,-3.5611,-3.5268,-3.3303,-3.1325,-3.062,-2.9198,-2.8042,-2.753,-2.7842,-2.8018,-2.7715,-2.7559,-2.7373,-2.7051,-2.6914,-2.7373,-2.873,-2.8867,-2.8867,-2.8867,-2.8682,-2.8574,-2.8574,-2.8398,-2.8242,-2.8125,-2.9434,-3.067,-3.1939,-3.3243,-3.4629,-3.5906,-3.5906,-3.5705,-3.5316,-3.5165,-3.4575,-3.3658,-3.3257,-3.2993,-3.2855,-3.3322,-3.4252,-3.5397,-3.6108,-3.6776,-3.7449,-3.7749,-3.7868,-3.7823,-3.7509,-3.718,-3.6941,-3.73,-3.73,-3.718,-3.736,-3.7404,-3.7473,-3.7662,-3.8077,-3.8818,-4.0591,-4.1332,-4.2106,-4.3631,-4.3944,-4.3792,-4.3234,-4.2946,-4.2709,-4.2354,-4.2134,-4.2049,-4.2252,-4.2286,-4.2286,-4.2286,-4.3234,-4.3944,-4.3944,-4.3453,-4.2895,-4.2354,-4.2117,-4.1999,-4.1999,-4.1796,-4.1457,-4.0933,-4.0899,-4.0898,-4.0874,-4.0903,-4.1161,-4.181,-4.1979,-4.2244,-4.2711,-4.2864,-4.3142,-4.3497,-4.3497,-4.3497,0.0,0.0,-3.745,-3.8701,-3.9804,-4.0246,-3.9068,-3.9276,-3.9037,-3.6526,-3.5496,-3.3996,-3.0592,-2.9351,-2.8398,-2.7159,-2.7402,-2.7685,-2.7666,-2.7305,-2.7031,-2.7012,-2.666,-2.6592,0.0,-2.709,-2.709,-2.709,-2.7471,-2.7705,-2.7705,-2.8076,-2.8105,-2.7695,-2.8973,-3.0138,-3.093,-3.2277,-3.3526,-3.4776,-3.4776,-3.4763,-3.4726,-3.4198,-3.3633,-3.3106,-3.3081,-3.2754,-3.2361,-3.3944,-3.4875,-3.5432,-3.6404,-3.701,-3.7345,-3.6761,-3.6552,-3.6626,-3.721,-3.6596,-3.5774,-3.7,-3.7,-3.6626,-3.7225,-3.7404,-3.7526,-3.8365,-3.8577,-3.8949,-4.0577,-4.1017,-4.1279,-4.2176,-4.2354,-4.2354,-4.2337,-4.1762,-4.1474,-4.2168,-4.1728,-4.1457,-4.2168,-4.2286,-4.2286,-4.2286,-4.2337,-4.2354,-4.2354,-4.2337,-4.232,-4.2286,-4.166,-4.1238,-4.1238,-4.0561,-4.0138,-4.0104,-4.0104,-4.0353,-4.0856,-4.0903,-4.1161,-4.181,-4.2382,-4.2655,-4.2711,-4.3214,-4.3479,-4.3497,-4.3497,-4.3497,-3.5681,0.0,-3.9016,-3.9527,-3.9733,-3.961,-3.8874,-3.8586,-3.8196,-3.7163,-3.5257,-3.2932,-3.0391,-2.8647,-2.6914,-2.46,-2.4904,-2.5096,-2.4269,-2.3947,-2.3762,-2.3498,-2.3349,0.0,0.0,0.0,0.0,-2.5722,-2.5852,-2.5927,-2.5927,-2.6929,-2.7383,-2.7236,-2.7617,-2.843,-2.9622,-3.0886,-3.223,-3.3477,-3.3978,-3.4173,-3.4148,-3.3206,-3.2679,-3.2478,-3.2114,-3.1851,-3.1675,-3.2263,-3.308,-3.4093,-3.4929,-3.5597,-3.6178,-3.6402,-3.6207,-3.5863,-3.6073,-3.5863,-3.5579,-3.6013,-3.6013,-3.5863,-3.6088,-3.6481,-3.695,-3.7187,-3.8013,-3.8973,-4.0091,-4.068,-4.1213,-4.2109,-4.2286,-4.2168,-4.1677,-4.139,-4.1136,-4.0865,-4.0629,-4.0544,-4.0781,-4.0815,-4.0815,-4.0815,-4.166,-4.2117,-4.1627,-4.1576,-4.1373,-4.0865,-4.0612,-4.046,-4.046,-4.0223,-4.0237,-4.0625,-4.0607,-4.1059,-4.2062,-4.208,-4.2364,-4.2903,-4.3124,-4.3214,-4.3214,-4.341,-4.3497,-4.3497,-4.3497,-4.3497,-3.679,-3.8375,-3.9629,-4.0045,-4.0008,-3.9711,-3.9172,-3.8713,-3.8218,-3.7786,-3.5742,-3.3203,-3.0529,-2.8492,-2.6193,-2.3038,-2.2963,-2.3019,-2.1988,-2.1712,-2.1369,-2.0969,-2.1208,-2.1293,0.0,0.0,0.0,-2.3806,-2.436,-2.476,-2.476,-2.618,-2.6943,-2.6797,-2.6641,-2.7053,-2.8219,-2.8888,-3.0111,-3.1788,-3.2369,-3.2736,-3.298,-3.2252,-3.1825,-3.1637,-3.1461,-3.1286,-3.1122,-3.169,-3.2565,-3.3473,-3.4301,-3.4963,-3.5549,-3.5983,-3.5863,-3.5504,-3.5504,-3.5504,-3.5504,-3.5504,-3.5504,-3.5554,-3.5846,-3.6212,-3.6722,-3.7306,-3.8094,-3.9056,-3.9868,-4.0396,-4.0838,-4.1386,-4.1491,-4.1373,-4.0899,-4.0798,-4.0663,-4.0172,-4.007,-4.007,-4.007,-4.007,-4.007,-4.007,-4.0899,-4.1322,-4.0865,-4.0798,-4.0612,-4.0121,-4.007,-4.0171,-4.0368,-4.0385,-4.0642,-4.1178,-4.1223,-4.1664,-4.2655,-4.2711,-4.2939,-4.3479,-4.3497,-4.3497,-4.3497,-4.3497,-4.3497,-4.3497,-4.3497,-4.3497,-3.7413,-3.8521,-3.9287,-4.0167,-4.0533,-4.0525,-3.9932,-3.9629,-3.9218,-3.833,-3.6895,-3.46,0.0,0.0,-2.6151,-2.23,-2.1438,-2.1145,-2.0645,-2.0169,-1.9734,0.0,0.0,0.0,0.0,0.0,0.0,-2.1322,0.0,-2.4131,-2.4131,-2.585,-2.6627,-2.6338,-2.5898,-2.6024,-2.6762,-2.6494,-2.7491,-2.9773,-3.0176,-3.0761,-3.1386,-3.1361,-3.1085,-3.0645,-3.111,-3.1035,-3.0687,-3.2189,-3.3037,-3.3449,-3.4484,-3.5151,-3.5504,-3.5504,-3.5504,-3.5504,-3.5504,-3.5504,-3.5504,-3.5504,-3.5504,-3.5619,-3.6399,-3.66,-3.6948,-3.8453,-3.8908,-3.9139,-3.9901,-4.007,-4.007,-4.007,-4.007,-4.007,-4.007,-4.007,-4.007,-4.007,-4.007,-4.007,-4.007,-4.007,-4.007,-4.007,-4.007,-4.007,-4.007,-4.007,-4.007,-4.007,-4.007,-4.0336,-4.0856,-4.0955,-4.123,-4.181,-4.1853,-4.2121,-4.2711,-4.275,-4.2976,-4.3479,-4.3497,-4.3497,-4.3497,-4.3497,-4.3497,-4.3497,-4.3497,-4.3497,-3.8005,-3.9078,-4.0092,-4.0226,-4.0222,-4.0145,-3.997,-4.0109,-3.9736,-3.8026,-3.62,-3.3653,0.0,0.0,0.0,-1.901,-1.7131,0.0,-1.505,-1.4898,0.0,-1.4624,0.0,-1.5617,-1.6324,-1.6455,0.0,0.0,-1.9869,-2.128,-2.23,-2.3448,-2.4412,-2.541,-2.498,-2.479,-2.5033,-2.5885,-2.7491,-2.9773,-2.9904,-3.0493,-3.1373,-3.0984,-3.0746,-3.0608,-3.0319,-3.0131,-3.0018,-3.0443,-3.1487,-3.2828,-3.3113,-3.4185,-3.5504,-3.5504,-3.5504,-3.5504,-3.5504,-3.5504,-3.5504,-3.5504,-3.5504,-3.5619,-3.6399,-3.7024,-3.7674,-3.8619,-3.9315,-3.9833,-4.007,-4.007,-4.007,-4.007,-4.007,-4.007,-4.007,-4.007,-4.007,-4.007,-4.007,-4.007,-4.007,-4.007,-4.007,-4.007,-4.007,-4.007,-4.007,-4.007,-4.007,-4.007,-4.007,-4.0336,-4.0856,-4.092,-4.1375,-4.24,-4.248,-4.2732,-4.325,-4.3286,-4.3375,-4.3497,-4.3497,-4.3497,-4.3497,-4.3497,-4.3497,-4.3497,-4.3497,-4.3497,-3.9117,-3.9971,-4.0636,-4.0501,-4.0024,-3.9399,-3.8637,-3.8516,-3.8022,-3.6122,-3.463,0.0,0.0,0.0,0.0,0.0,0.0,0.0,-1.2432,-1.2329,-1.2283,0.0,-1.2639,0.0,-1.3283,-1.4444,-1.5439,0.0,-1.8214,-1.9953,-2.118,-2.2267,-2.3416,-2.4785,-2.4365,-2.4053,-2.3857,-2.4736,-2.629,-2.8324,-2.8544,-2.9379,-3.0683,-3.0394,-3.0256,-3.0231,0.0,-2.9792,-2.9792,-2.9792,-3.0921,-3.2593,-3.2593,-3.3754,-3.5504,-3.5504,-3.5504,-3.5504,-3.5504,-3.5504,-3.5504,-3.5504,-3.5733,-3.6117,-3.6919,-3.7674,-3.8414,-3.9209,-3.9782,-4.007,-4.007,-4.007,-4.007,-4.007,-4.007,-4.007,-4.007,-4.007,-4.007,-4.007,-4.007,-4.007,-4.007,-4.007,-4.007,-4.007,-4.007,-4.0221,-4.0417,-4.0254,-4.007,-4.007,-4.0336,-4.0672,-4.1268,-4.1534,-4.2103,-4.2976,-4.305,-4.3178,-4.3497,-4.3497,-4.3497,-4.3497,-4.3497,-4.3497,-4.3497,-4.3497,-4.3497,-4.3497,-4.3497,-4.3497,-4.0244,-4.0714,-4.0755,-4.0654,-3.9779,-3.851,-3.676,-3.6281,-3.5685,-3.382,0.0,-3.1996,-3.0314,-2.5377,-2.0671,-1.7863,0.0,-1.1108,-1.0688,-1.0798,-1.0694,-1.035,-1.1453,-1.1779,-1.085,-1.2899,-1.4422,-1.4696,-1.7129,-1.9094,-2.0297,-2.1587,-2.2879,-2.4156,-2.3896,-2.3525,-2.3144,-2.3516,-2.462,-2.6483,-2.6814,-2.7976,-2.9792,-2.9792,-2.9792,-2.9792,0.0,0.0,-2.9792,-2.9934,-3.0983,-3.2593,-3.2749,-3.3905,-3.5504,-3.5504,-3.5504,-3.5504,-3.5504,-3.5504,-3.5504,-3.5504,-3.5943,-3.6615,-3.7515,-3.8262,-3.8924,-3.985,-4.007,-4.007,-4.007,-4.007,-4.007,-4.007,-4.007,-4.007,-4.007,-4.007,-4.007,-4.007,-4.007,-4.007,-4.007,-4.007,-4.007,-4.007,-4.007,-4.0286,-4.0733,-4.0449,-4.0254,-4.0303,-4.075,-4.1251,-4.1853,-4.2382,-4.2939,-4.3463,-4.3497,-4.3497,-4.3497,-4.3497,-4.3497,-4.3497,-4.3497,-4.3497,-4.3497,-4.3497,-4.3497,-4.3497,-4.3497,-4.3497,-4.0216,-4.0,-3.9676,-3.9642,-3.8903,-3.7757,-3.6064,-3.6246,0.0,0.0,-3.308,-3.2249,-2.9527,-2.402,-1.8845,-1.5476,0.0,0.0,0.0,0.0,-0.7172,0.0,0.0,0.0,0.0,0.0,0.0,0.0,0.0,-1.6242,-1.892,-1.9908,-2.1292,-2.3281,-2.3291,-2.3213,-2.3135,-2.3213,-2.4303,-2.6483,-2.6561,-2.7719,-2.9792,-2.9792,-2.9792,-2.9792,-2.9792,0.0,-2.9869,-3.062,-3.1609,-3.2664,-3.3449,-3.4476,-3.5504,-3.5504,-3.5504,-3.5504,-3.5504,-3.5504,-3.5504,-3.5504,-3.5554,-3.5958,-3.7354,-3.7863,-3.8262,-3.9679,-4.007,-4.007,-4.007,-4.007,-4.007,-4.007,-4.007,-4.007,-4.007,-4.007,-4.007,-4.007,-4.007,-4.007,-4.007,-4.007,-4.007,-4.007,-4.007,-4.0121,-4.0254,-4.0528,-4.0967,-4.1464,-4.1578,-4.1895,-4.248,-4.2655,-4.2939,-4.3463,-4.3497,-4.3497,-4.3497,-4.3497,-4.3497,-4.3497,-4.3497,-4.3497,-4.3497,-4.3497,-4.3497,-4.3497,-4.3497,-4.3497,-3.8927,-3.9142,-3.9248,-3.9084,-3.8357,-3.6948,-3.4068,0.0,0.0,0.0,-3.1197,-3.1198,-2.9096,0.0,0.0,0.0,0.0,0.0,0.0,0.0,0.0,0.0,0.0,0.0,0.0,0.0,0.0,0.0,0.0,-1.5969,-1.8044,-1.975,-2.1032,-2.183,-2.2448,-2.2705,-2.249,-2.2705,-2.376,-2.571,-2.5957,-2.7076,-2.8913,-2.8913,-2.8913,-2.8913,-2.8913,0.0,-2.8988,-2.9874,-3.0841,-3.1723,-3.2634,-3.3601,-3.4457,-3.4457,-3.4457,-3.4517,-3.4846,-3.4741,-3.4577,-3.528,-3.6022,-3.6829,-3.7589,-3.8374,-3.9172,-3.9901,-4.007,-4.007,-4.007,-4.007,-4.007,-4.007,-4.007,-4.007,-4.007,-4.007,-4.007,-4.007,-4.007,-4.007,-4.007,-4.007,-4.007,-4.007,-4.0336,-4.0625,-4.0938,-4.1508,-4.1725,-4.1358,-4.1895,-4.24,-4.2673,-4.2939,-4.3214,-4.3479,-4.3497,-4.3497,-4.3497,-4.3497,-4.3497,-4.3497,-4.3497,-4.3497,-4.3497,-4.3497,-4.3497,-4.3497,-4.3497,-4.3497,-3.6912,-3.7598,-3.8153,-3.7863,-3.7098,-3.5476,-3.1924,-3.1814,0.0,0.0,-2.948,-3.025,-2.9183,0.0,0.0,0.0,0.0,0.0,0.0,0.0,0.0,0.0,0.0,0.0,0.0,0.0,0.0,0.0,0.0,0.0,-1.7479,-1.9298,-2.0457,-2.0598,-2.1475,-2.1955,-2.1894,-2.2207,-2.3238,-2.5004,-2.5306,-2.638,-2.8109,-2.8109,-2.8109,-2.8109,-2.8109,0.0,0.0,-2.9254,-3.0132,-3.0932,-3.2012,-3.2819,-3.3499,-3.3499,-3.3499,-3.3574,-3.4083,-3.3918,-3.3726,-3.4901,-3.6199,-3.7382,-3.77,-3.8778,-3.9901,-4.007,-4.007,-4.007,-4.007,-4.007,-4.007,-4.007,-4.007,-4.007,-4.007,-4.007,-4.007,-4.007,-4.007,-4.007,-4.007,-4.007,-4.007,-4.007,-4.0449,-4.0967,-4.1534,-4.2121,-4.2203,-4.1358,-4.2244,-4.2864,-4.2864,-4.325,-4.3497,-4.3497,-4.3497,-4.3497,-4.3497,-4.3497,-4.3497,-4.3497,-4.3497,-4.3497,-4.3497,-4.3497,-4.3497,-4.3497,-4.3497,-4.3497,-3.4128,-3.4539,-3.5054,-3.4833,-3.4011,-3.2639,-3.0374,0.0,0.0,-2.9115,-2.9679,-3.0452,-3.0272,0.0,0.0,0.0,0.0,0.0,0.0,0.0,0.0,0.0,0.0,0.0,0.0,0.0,0.0,0.0,0.0,0.0,-1.71,-1.7189,-1.8135,-2.0165,-2.0343,-2.0857,-2.1885,-2.1924,-2.2941,-2.4993,-2.5049,-2.613,-2.8109,-2.8109,-2.8109,-2.8109,-2.8109,0.0,0.0,-2.9994,-3.073,-3.0999,-3.2679,-3.3423,-3.3499,-3.3499,-3.3499,-3.3499,-3.3559,-3.3544,-3.3622,-3.4329,-3.5115,-3.6032,-3.7382,-3.8374,-3.9139,-3.9901,-4.007,-4.007,-4.007,-4.007,-4.007,-4.007,-4.007,-4.007,-4.007,-4.007,-4.007,-4.007,-4.007,-4.007,-4.007,-4.007,-4.007,-4.007,-4.0121,-4.0368,-4.0903,-4.149,-4.2038,-4.248,-4.3087,-4.341,-4.341,-4.3479,-4.3497,-4.3497,-4.3497,-4.3497,-4.3497,-4.3497,-4.3497,-4.3497,-4.3497,-4.3497,-4.3497,-4.3497,-4.3497,-4.3497,-4.3497,-4.3497,-3.1264,-3.2059,-3.2689,-3.2747,-3.226,-3.1183,-2.8883,0.0,0.0,-2.8165,-2.9103,-2.9883,-2.8894,0.0,0.0,0.0,0.0,0.0,0.0,0.0,0.0,0.0,0.0,0.0,0.0,0.0,0.0,0.0,0.0,0.0,-1.545,-1.6382,-1.7361,-1.8692,-1.9436,-2.0244,-2.1094,-2.1094,-2.1713,-2.2853,-2.3375,-2.4241,-2.5322,-2.5841,-2.6302,-2.6578,-2.6264,0.0,0.0,-2.8538,-2.9245,-2.9435,-3.1057,-3.1943,-3.2258,-3.1854,-3.1958,-3.2362,-3.2766,-3.2647,-3.2556,-3.4032,-3.4748,-3.5403,-3.7219,-3.8649,-3.9662,-4.002,-4.007,-4.007,-4.007,-4.007,-4.007,-4.007,-4.007,-4.007,-4.007,-4.007,-4.007,-4.007,-4.007,-4.007,-4.007,-4.007,-4.007,-4.007,-4.0672,-4.1196,-4.1402,-4.2248,-4.2903,-4.3178,-4.3375,-4.3497,-4.3497,-4.3497,-4.3497,-4.3497,-4.3497,-4.3497,-4.3497,-4.3497,-4.3497,-4.3497,-4.3497,-4.3497,-4.3497,-4.3497,-4.3497,-4.3497,-4.3497,-4.3497,-2.7827,-2.9046,-2.9852,-2.9794,-2.9748,-2.9237,0.0,0.0,0.0,-2.7457,-2.851,-2.9267,-2.806,-2.2704,0.0,0.0,0.0,-0.2422,0.0,0.0,0.0,0.0,0.0,0.0,0.0,0.0,0.0,0.0,0.0,0.0,0.0,-1.4979,-1.6124,-1.6988,-1.81,-1.8955,-1.9793,-2.0109,-2.0537,-2.1229,-2.1925,-2.2662,-2.3501,-2.4245,-2.487,-2.5347,0.0,0.0,0.0,-2.7277,-2.801,-2.8369,-2.969,-3.0522,-3.0896,-3.0417,-3.0537,-3.1031,-3.1495,-3.1345,-3.1291,-3.3299,-3.413,-3.4768,-3.6849,-3.8405,-3.9478,-3.9698,-3.9749,-3.9749,-3.9749,-3.9749,-3.9817,-4.002,-4.007,-4.007,-4.007,-4.007,-4.007,-4.007,-4.007,-4.007,-4.007,-4.007,-4.0171,-4.0336,-4.1013,-4.1664,-4.2021,-4.279,-4.3321,-4.3479,-4.3497,-4.3497,-4.3497,-4.3497,-4.3497,-4.3497,-4.3497,-4.3497,-4.3497,-4.3497,-4.3497,-4.3497,-4.3497,-4.3497,-4.3497,-4.3497,-4.3497,-4.3497,-4.3497,-4.3497,-2.3738,-2.5119,-2.6332,-2.5481,-2.5917,-2.6375,0.0,0.0,0.0,-2.7361,-2.8108,-2.8742,-2.8446,-2.2654,-1.6878,-1.3701,0.0,0.0,0.0,0.0,0.0,0.0,0.0,0.0,0.0,0.0,0.0,0.0,0.0,0.0,0.0,-1.2657,-1.3898,-1.5298,-1.5902,-1.6783,-1.7942,-1.8848,-1.9785,-2.0836,-2.1092,-2.2044,-2.349,-2.385,-2.4305,0.0,0.0,0.0,0.0,-2.6835,-2.7619,-2.8397,-2.9292,-2.9594,-2.9609,-2.9594,-2.9594,-2.9609,-2.9609,-2.9609,-2.9954,-3.195,-3.3123,-3.4117,-3.6192,-3.733,-3.8091,-3.8802,-3.9005,-3.9005,-3.9005,-3.9005,-3.9191,-3.9918,-4.007,-4.007,-4.007,-4.007,-4.007,-4.007,-4.007,-4.007,-4.007,-4.007,-4.0286,-4.0827,-4.0903,-4.1358,-4.2537,-4.2711,-4.2902,-4.3444,-4.3497,-4.3497,-4.3497,-4.3497,-4.3497,-4.3497,-4.3497,-4.3497,-4.3497,-4.3497,-4.3497,-4.3497,-4.3497,-4.3497,-4.3497,-4.3497,-4.3497,-4.3497,-4.3497,-4.3497,-2.0462,-2.1297,-2.2159,-2.2672,-2.3327,-2.3902,-2.4199,0.0,0.0,-2.7007,-2.7965,-2.8155,-2.6048,-2.0455,-1.4951,-1.1286,-0.5577,0.0,0.0,0.0,0.0,0.0,0.0,0.0,0.0,0.0,0.0,0.0,0.0,0.0,0.0,-1.1636,-1.268,-1.4614,-1.5631,-1.6519,-1.7124,-1.798,-1.84,-1.8509,-1.911,-2.0006,-2.1055,-2.1651,0.0,0.0,0.0,0.0,0.0,-2.6294,-2.6807,-2.7198,-2.8447,-2.8906,-2.8906,-2.8906,-2.9205,-2.9579,-2.9579,-2.9579,-2.9939,-3.1918,-3.2736,-3.3355,-3.5341,-3.6891,-3.7956,-3.8176,-3.8261,-3.8261,-3.8261,-3.8261,-3.8311,-3.8531,-3.8971,-3.9343,-3.9343,-3.9732,-4.007,-4.007,-4.007,-4.007,-4.007,-4.007,-4.0286,-4.0827,-4.1268,-4.181,-4.2616,-4.3014,-4.3286,-4.3479,-4.3497,-4.3497,-4.3497,-4.3497,-4.3497,-4.3497,-4.3497,-4.3497,-4.3497,-4.3497,-4.3497,-4.3497,-4.3497,-4.3497,-4.3497,-4.3497,-4.3497,-4.3497,-4.3497,-4.3497,0.0,-1.9182,-1.9838,-2.0499,-2.1362,0.0,0.0,0.0,0.0,0.0,-2.6564,-2.5868,-2.3313,-1.7801,-1.2485,-0.9021,-0.4403,0.0,0.0,0.0,0.0,0.0,0.0,0.0,0.0,0.0,0.0,0.0,0.0,0.0,0.0,-1.0375,-1.1371,-1.2562,-1.4202,-1.5345,-1.5813,-1.6624,-1.711,-1.7129,-1.7758,-1.8609,-1.9621,-2.0217,0.0,0.0,0.0,0.0,0.0,-2.5121,-2.5661,-2.6257,-2.7155,-2.7619,-2.7814,-2.756,-2.8038,-2.8786,-2.8547,-2.8763,-2.9465,-3.1242,-3.2481,-3.3557,-3.4807,-3.6265,-3.7415,-3.7127,-3.7263,-3.7483,-3.7483,-3.7483,-3.755,-3.7838,-3.8261,-3.8667,-3.8937,-3.9343,-3.9749,-4.002,-4.007,-4.0171,-4.0368,-4.0417,-4.0672,-4.1446,-4.1895,-4.2342,-4.2939,-4.3286,-4.3497,-4.3497,-4.3497,-4.3497,-4.3497,-4.3497,-4.3497,-4.3497,-4.3497,-4.3497,-4.3497,-4.3497,-4.3497,-4.3497,-4.3497,-4.3497,-4.3497,-4.3497,-4.3497,-4.3497,-4.3497,-4.3497,0.0,-1.84,0.0,0.0,0.0,0.0,0.0,0.0,0.0,0.0,0.0,-2.2423,-2.0353,-1.4916,-0.9785,-0.6913,-0.3488,0.0,0.0,0.0,0.0,0.0,0.0,0.0,0.0,0.0,0.0,0.0,0.0,0.0,0.0,-0.9034,-0.9896,-0.9741,-1.1936,-1.34,-1.3974,-1.4965,-1.5815,-1.6592,-1.6951,-1.7798,-1.8988,-1.9284,0.0,0.0,0.0,0.0,0.0,-2.3575,-2.4383,-2.554,-2.56,-2.5959,-2.6378,-2.5809,-2.6378,-2.7385,-2.6737,-2.7354,-2.8637,-3.0098,-3.2286,-3.4421,-3.4421,-3.5487,-3.6552,-3.5825,-3.6146,-3.6688,-3.6688,-3.6688,-3.6874,-3.7567,-3.7787,-3.8007,-3.87,-3.887,-3.9123,-3.9951,-4.0086,-4.0268,-4.0856,-4.0949,-4.1358,-4.2519,-4.2711,-4.2902,-4.3444,-4.3497,-4.3497,-4.3497,-4.3497,-4.3497,-4.3497,-4.3497,-4.3497,-4.3497,-4.3497,-4.3497,-4.3497,-4.3497,-4.3497,-4.3497,-4.3497,-4.3497,-4.3497,-4.3497,-4.3497,-4.3497,-4.3497,-4.3497,-1.6345,0.0,-1.6673,-1.7774,-1.9148,-2.0623,0.0,0.0,0.0,0.0,0.0,-2.143,-1.7523,-1.2545,-0.7959,-0.4595,-0.1952,0.0,0.0,0.0,0.0,0.0,0.0,0.0,0.0,0.0,0.0,0.0,0.0,0.0,0.0,-0.8602,-0.9254,-0.9968,-1.0803,-1.1728,-1.28,-1.4038,-1.4887,-1.5254,-1.597,-1.6919,-1.798,-1.7979,0.0,0.0,0.0,0.0,-2.2962,-2.3395,-2.4077,-2.4911,-2.542,-2.539,-2.5136,-2.548,-2.5809,-2.6048,-2.5899,-2.6655,-2.8123,-3.0437,-3.2297,-3.366,-3.366,-3.4709,-3.5859,-3.5673,-3.5757,-3.5893,-3.5893,-3.5893,-3.5943,-3.6113,-3.6603,-3.7094,-3.7263,-3.7753,-3.8506,-3.9628,-3.9841,-4.0245,-4.1385,-4.1578,-4.1853,-4.2577,-4.2711,-4.2902,-4.3444,-4.3497,-4.3497,-4.3497,-4.3497,-4.3497,-4.3497,-4.3497,-4.3497,-4.3497,-4.3497,-4.3497,-4.3497,-4.3497,-4.3497,-4.3497,-4.3497,-4.3497,-4.3497,-4.3497,-4.3497,-4.3497,-4.3497,-4.3497,-1.254,-1.3685,-1.6318,-1.7503,-1.8924,-2.0534,0.0,0.0,0.0,0.0,0.0,0.0,-1.3071,-0.8495,0.0,0.0,0.0325,0.0,0.0,0.0,0.0,0.0,0.0,0.0,0.0,0.0,0.0,0.0,0.0,0.0,0.0,-0.764,-0.8345,-0.883,-0.9569,-1.0519,-1.17,-1.2745,-1.3489,-1.4042,-1.4781,-1.5817,-1.6972,-1.6919,-1.7704,0.0,0.0,0.0,-2.1091,-2.167,-2.2285,-2.2966,-2.3911,-2.4223,-2.4208,-2.4552,-2.5076,-2.557,-2.527,-2.6137,-2.7727,-2.9786,-3.1324,-3.2459,-3.278,-3.3694,-3.4675,-3.5013,-3.5115,-3.5182,-3.552,-3.5622,-3.5622,-3.5622,-3.5943,-3.6349,-3.6705,-3.7094,-3.7755,-3.9002,-3.9552,-4.0062,-4.0918,-4.1381,-4.1683,-4.1942,-4.2287,-4.2631,-4.2913,-4.3259,-4.3497,-4.3497,-4.3167,-4.3094,-4.3461,-4.3149,-4.3112,-4.3461,-4.3497,-4.3497,-4.3497,-4.3497,-4.3497,-4.3497,-4.3497,-4.3497,-4.3497,-4.313,-4.2947,-4.2947,-4.2947,-4.2947,-0.6975,-0.8015,-1.2264,-1.5448,-1.7158,-1.8668,0.0,0.0,0.0,0.0,0.0,0.0,0.0,0.0,0.0,0.0,0.0,0.0,0.0,0.0,0.0,0.0,0.0,0.0,0.0,0.0,0.0,0.0,0.0,0.0,0.0,-0.6586,-0.735,-0.7426,-0.85,-0.9549,-1.0587,-1.14,-1.2206,-1.2996,-1.3771,-1.4768,-1.5914,-1.6014,-1.6723,0.0,0.0,0.0,-1.9043,-1.9642,-2.0316,-2.1005,-2.2129,-2.2906,-2.346,-2.346,-2.4238,-2.5241,-2.4867,-2.5815,-2.7371,-2.869,-2.9972,-3.114,-3.1749,-3.2476,-3.322,-3.3947,-3.4235,-3.4472,-3.5115,-3.5368,-3.5453,-3.5453,-3.5537,-3.5808,-3.6451,-3.6603,-3.7019,-3.8339,-3.9129,-3.9736,-4.0237,-4.089,-4.1288,-4.1137,-4.168,-4.2121,-4.2121,-4.2708,-4.3167,-4.3296,-4.2708,-4.2635,-4.3424,-4.2873,-4.2763,-4.3442,-4.3497,-4.3497,-4.3497,-4.3497,-4.3424,-4.3314,-4.3314,-4.3259,-4.313,-4.2451,-4.2121,-4.2121,-4.2121,-4.2209,0.0564,0.8261,0.7916,-0.5684,-0.8804,-0.9573,0.0,0.0,0.0,0.0,0.0,0.0,0.0,0.0,0.0,0.0,0.0,0.0,0.0,0.0,0.0,0.0,0.0,0.0,0.0,0.0,0.0,0.0,0.0,0.0,0.0,0.0,-0.6889,-0.8006,-0.8241,-0.8582,-0.9092,-1.0769,-1.1928,-1.2597,-1.3637,-1.4292,-1.4705,-1.5197,-1.5635,0.0,0.0,-1.7868,-1.8515,-1.9478,-2.0316,-2.0961,-2.1584,-2.2248,-2.2858,-2.2858,-2.3281,-2.4056,-2.5017,-2.5827,-2.6687,-2.7974,-2.9221,-3.0294,-3.0412,-3.0954,-3.1681,-3.2408,-3.3085,-3.3592,-3.3711,-3.4201,-3.4675,-3.4675,-3.5165,-3.5656,-3.5774,-3.5791,-3.629,-3.8099,-3.8545,-3.9106,-4.0698,-4.1052,-4.1141,-4.1097,-4.1222,-4.1295,-4.1295,-4.1405,-4.1735,-4.2415,-4.2378,-4.2635,-4.3424,-4.3387,-4.3369,-4.3479,-4.3497,-4.3497,-4.3497,-4.3497,-4.3167,-4.2506,-4.2488,-4.2158,-4.1479,-4.135,-4.1295,-4.1295,-4.1295,-4.1783,0.9147,1.4989,1.5488,0.5095,-0.0765,-0.4954,0.0,0.0,0.0,0.0,0.0,0.0,0.0,0.0,0.0,0.0,0.0,0.0,0.0,0.0,0.0,0.0,0.0,0.0,0.0,0.0,0.0,0.0,0.0,0.0,0.0,0.0,-0.6213,-0.6734,-0.751,-0.8009,-0.8215,-0.9798,-1.0921,-1.1593,-1.2447,-1.3291,-1.4083,-1.4704,-1.5223,-1.5644,0.0,-1.7061,-1.7407,-1.8156,-1.8852,-1.948,-2.0389,-2.1085,-2.171,-2.2413,-2.2862,-2.3233,-2.4164,-2.4813,-2.5456,-2.6775,-2.7789,-2.8607,-2.9289,-3.0023,-3.0683,-3.1021,-3.1918,-3.2899,-3.3305,-3.366,-3.4015,-3.4404,-3.4759,-3.5203,-3.5882,-3.6011,-3.6437,-3.7859,-3.8491,-3.9013,-3.9662,-4.0157,-4.0304,-3.9882,-4.0175,-4.0451,-4.0451,-4.0836,-4.1258,-4.1625,-4.1258,-4.1497,-4.2745,-4.2047,-4.1919,-4.28,-4.2837,-4.2653,-4.2213,-4.2194,-4.2029,-4.1662,-4.1662,-4.1479,-4.1111,-4.0671,-4.0451,-4.0451,-4.0615,-4.0956,1.6124,1.8076,1.822,1.359,0.0,0.0,0.0,0.0,0.0,0.0,0.0,0.0,0.0,0.0,0.0,0.0,0.0,0.0,0.0,0.0,0.0,0.0,0.0,0.0,0.0,0.0,0.0,0.0,0.0,0.0,0.0,0.0,-0.5297,-0.5492,-0.6573,-0.7343,-0.7723,-0.8771,-0.9799,-1.0813,-1.1466,-1.2404,-1.36,-1.419,-1.4824,-1.541,-1.6008,-1.638,-1.6552,-1.7076,-1.7626,-1.8187,-1.9244,-2.0084,-2.0857,-2.2024,-2.2484,-2.2532,-2.3161,-2.3804,-2.4547,-2.5679,-2.6596,-2.7441,-2.841,-2.9364,-3.0108,-3.0108,-3.1038,-3.2154,-3.2747,-3.3017,-3.3271,-3.3846,-3.4117,-3.4567,-3.571,-3.6074,-3.6457,-3.7542,-3.8311,-3.8805,-3.8719,-3.9203,-3.9405,-3.8799,-3.9221,-3.9625,-3.9625,-4.0157,-4.0616,-4.0818,-4.0267,-4.0469,-4.1901,-4.0891,-4.0634,-4.1662,-4.1735,-4.1552,-4.113,-4.1111,-4.102,-4.0836,-4.0836,-4.0744,-4.0543,-3.9918,-3.9625,-3.9606,-3.9819,-4.0105,1.9402,1.9298,1.844,1.7077,0.0,0.0,0.0,0.0,0.0,0.0,0.0,0.0,0.0,0.0,0.0,0.0,0.0,0.0,0.0,0.0,0.0,0.0,0.0,0.0,0.0,0.0,0.0,0.0,0.0,0.0,0.0,0.0,0.0,-0.5433,-0.5597,-0.6303,-0.767,-0.783,-0.8862,-1.0813,-1.1466,-1.2227,-1.2968,-1.36,-1.419,-1.4789,-1.541,-1.5996,-1.6552,-1.7076,-1.7626,-1.8145,-1.8745,-1.966,-2.0797,-2.1515,-2.1769,-2.1859,-2.2517,-2.3412,-2.4319,-2.5061,-2.6397,-2.7754,-2.7857,-2.8941,-3.0108,-3.0108,-3.0666,-3.1275,-3.1326,-3.185,-3.2374,-3.2425,-3.2983,-3.3677,-3.4447,-3.505,-3.5749,-3.7011,-3.7667,-3.8138,-3.8627,-3.8762,-3.8781,-3.8707,-3.8762,-3.8799,-3.8799,-3.8836,-3.9166,-3.99,-3.9918,-4.0249,-4.113,-4.1093,-4.0744,-4.0102,-4.0065,-4.0377,-4.1075,-4.1111,-4.0763,-3.9992,-3.9992,-3.9625,-3.8872,-3.8817,-3.8799,-3.8799,-3.8811,-3.9537,1.8507,1.8475,1.7863,1.6809,0.0,0.0,0.0,0.0,0.0,0.0,0.0,0.0,0.0,0.0,0.0,0.0,0.0,0.0,0.0,0.0,0.0,0.0,0.0,0.0,0.0,0.0,0.0,0.0,0.0,0.0,0.0,0.0,0.0,-0.4113,-0.5046,-0.576,-0.6303,-0.723,-0.8283,-0.9511,-1.0645,-1.1525,-1.2236,-1.3341,-1.3909,-1.419,-1.5186,-1.572,-1.6008,-1.657,-1.7105,-1.7706,-1.8574,-1.9367,-2.0154,-2.0842,-2.1081,-2.1171,-2.1844,-2.2319,-2.2848,-2.4153,-2.5001,-2.5763,-2.679,-2.7858,-2.8687,-2.8687,-2.9567,-3.0615,-3.1072,-3.1393,-3.1715,-3.2171,-3.2493,-3.3022,-3.4065,-3.4662,-3.5241,-3.6057,-3.6997,-3.7716,-3.7906,-3.8377,-3.8707,-3.8707,-3.8707,-3.8707,-3.8707,-3.8707,-3.8817,-3.9129,-3.9588,-3.9808,-3.9625,-4.0065,-4.001,-3.9203,-3.9625,-3.9808,-3.9625,-3.9625,-3.946,-3.9166,-3.9148,-3.9001,-3.8707,-3.8855,-3.8961,-3.8961,-3.9371,-3.9876,1.8004,1.7836,1.7183,0.0,0.0,0.0,0.0,0.0,0.0,0.0,0.0,0.0,0.0,0.0,0.0,0.0,0.0,0.0,0.0,0.0,0.0,0.0,0.0,0.0,0.0,0.0,0.0,0.0,0.0,0.0,0.0,0.0,0.0,0.0,-0.4333,-0.5046,-0.5487,-0.6519,-0.7486,-0.8376,-0.957,-1.0695,-1.1814,-1.2745,-1.3379,-1.3862,-1.4869,-1.541,-1.5632,-1.6238,-1.6837,-1.7435,-1.8496,-1.9132,-1.9538,-2.0139,-2.0393,-2.0483,-2.1156,-2.1598,-2.204,-2.3401,-2.4204,-2.4851,-2.6,-2.7046,-2.7789,-2.7789,-2.8755,-2.9871,-3.0362,-3.0835,-3.1258,-3.1529,-3.1765,-3.2258,-3.3373,-3.4032,-3.4622,-3.5229,-3.6321,-3.7184,-3.7441,-3.7734,-3.8028,-3.8285,-3.8322,-3.8322,-3.8322,-3.8542,-3.8707,-3.8707,-3.9184,-3.9294,-3.8762,-3.9203,-3.9294,-3.8726,-3.9221,-3.9276,-3.8726,-3.8707,-3.8707,-3.8707,-3.8707,-3.8732,-3.8815,-3.9008,-3.9133,-3.9264,-3.9731,-4.0002,1.847,1.7693,1.6421,0.0,0.0,0.0,0.0,0.0,0.0,0.0,0.0,0.0,0.0,0.0,0.0,0.0,0.0,0.0,0.0,0.0,0.0,0.0,0.0,0.0,0.0,0.0,0.0,0.0,0.0,0.0,0.0,0.0,0.0,0.0,-0.34,-0.4058,-0.5483,-0.5483,-0.6244,-0.7717,-0.8376,-0.9754,-1.1765,-1.1814,-1.2492,-1.3815,-1.4422,-1.5005,-1.5632,-1.6238,-1.6837,-1.7435,-1.8496,-1.8893,-1.8968,-1.9479,-1.969,-1.9779,-2.0468,-2.1296,-2.2194,-2.2863,-2.4213,-2.5592,-2.5609,-2.664,-2.7772,-2.7772,-2.8366,-2.9011,-2.8958,-3.0057,-3.1004,-3.0277,-3.0666,-3.1376,-3.2161,-3.3026,-3.3897,-3.4659,-3.5593,-3.6541,-3.7331,-3.6817,-3.656,-3.7349,-3.7477,-3.7477,-3.7507,-3.8193,-3.8689,-3.8689,-3.8707,-3.8707,-3.8689,-3.8707,-3.8707,-3.8707,-3.8707,-3.8707,-3.8707,-3.8707,-3.8707,-3.8707,-3.8707,-3.8844,-3.9099,-3.908,-3.9264,-3.9599,-3.9599,-3.9797,1.8285,1.7932,0.0,0.0,0.0,0.0,0.0,0.0,0.0,0.0,0.0,0.0,0.0,0.0,0.0,0.0,0.0,0.0,0.0,0.0,0.0,0.0,0.0,0.0,0.0,0.0,0.0,0.0,0.0,0.0,0.0,0.0,0.0,0.0,-0.2788,-0.3471,-0.3815,-0.4824,-0.5825,-0.6821,-0.7538,-0.8755,-1.0415,-1.1366,-1.2012,-1.2453,-1.3569,-1.4422,-1.5062,-1.6064,-1.6837,-1.7394,-1.8066,-1.8574,-1.8968,-1.9479,-1.969,-1.972,-1.9914,-2.0375,-2.0991,-2.2077,-2.2916,-2.3829,-2.5174,-2.5913,-2.637,-2.6877,-2.7571,-2.8044,-2.752,-2.8501,-2.9719,-3.004,-3.0277,-3.0692,-3.1737,-3.2441,-3.3024,-3.3548,-3.46,-3.5477,-3.5716,-3.6046,-3.6376,-3.6615,-3.6652,-3.6853,-3.7422,-3.7698,-3.7845,-3.7845,-3.8358,-3.8469,-3.79,-3.8377,-3.8707,-3.8707,-3.8707,-3.8707,-3.8707,-3.8707,-3.8707,-3.8707,-3.8707,-3.875,-3.8815,-3.9249,-3.9486,-3.9622,-4.0043,-4.0302,1.8988,0.0,0.0,0.0,0.0,0.0,0.0,0.0,0.0,0.0,0.0,0.0,0.0,0.0,0.0,0.0,0.0,0.0,0.0,0.0,0.0,0.0,0.0,0.0,0.0,0.0,0.0,0.0,0.0,0.0,0.0,0.0,0.0,0.0,-0.2212,-0.2936,-0.3234,-0.4278,-0.5204,-0.5995,-0.6622,-0.7554,-0.8783,-1.0573,-1.1478,-1.1734,-1.3429,-1.4514,-1.5152,-1.6107,-1.668,-1.7076,-1.7827,-1.8302,-1.865,-1.9406,-1.969,-1.969,-1.969,-2.007,-2.0679,-2.1438,-2.2263,-2.3193,-2.438,-2.5152,-2.5693,-2.6133,-2.6793,-2.7266,-2.681,-2.7385,-2.8264,-2.9025,-2.9508,-3.005,-3.0732,-3.163,-3.2393,-3.2655,-3.3704,-3.4633,-3.4935,-3.5183,-3.5422,-3.5752,-3.5789,-3.6083,-3.6909,-3.7,-3.7,-3.7,-3.7459,-3.7551,-3.7055,-3.7753,-3.8212,-3.8212,-3.8524,-3.8707,-3.8707,-3.8803,-3.8855,-3.8855,-3.898,-3.9119,-3.9261,-3.9618,-3.9861,-3.9984,-4.0336,-4.0489,1.9808,0.0,0.0,0.0,0.0,0.0,0.0,0.0,0.0,0.0,0.0,0.0,0.0,0.0,0.0,0.0,0.0,0.0,0.0,0.0,0.0,0.0,0.0,0.0,0.0,0.0,0.0,0.0,0.0,0.0,0.0,0.0,0.0,0.0,-0.1638,-0.2397,-0.3143,-0.3708,-0.4364,0.0,-0.5696,-0.6331,-0.7122,-0.9547,-1.0953,-1.1546,-1.3708,-1.4937,-1.5484,-1.6126,-1.6398,-1.6532,-1.7639,-1.8106,-1.8224,-1.9281,-1.969,-1.969,-1.969,-2.0243,-2.0926,-2.1007,-2.2012,-2.3262,-2.3376,-2.434,-2.5439,-2.5575,-2.6082,-2.6607,-2.6674,-2.6691,-2.686,-2.7554,-2.8528,-2.9385,-2.9538,-3.0747,-3.1845,-3.1931,-3.2894,-3.3917,-3.4642,-3.4247,-3.4045,-3.477,-3.488,-3.522,-3.6064,-3.6174,-3.6174,-3.6174,-3.6248,-3.6266,-3.6193,-3.6909,-3.7397,-3.7397,-3.8138,-3.8597,-3.8597,-3.8896,-3.9044,-3.9044,-3.9408,-3.969,-4.0002,-4.0081,-4.0233,-4.0473,-4.0489,-4.0489,0.0,1.8352,0.0,0.0,0.0,0.0,0.0,0.0,0.0,0.0,0.0,0.0,0.0,0.0,0.0,0.0,0.0,0.0,0.0,0.0,0.0,0.0,0.0,0.0,0.0,0.0,0.0,0.0,0.0,0.0,0.0,0.0,0.0,-0.0205,-0.1365,-0.1843,-0.1461,-0.3037,-0.3992,0.0,-0.5302,-0.6078,-0.6752,-0.8789,-1.0458,-1.1795,-1.3328,-1.4122,-1.4369,-1.5377,-1.5795,-1.603,-1.7517,-1.8106,-1.8224,-1.9281,-1.969,-1.969,-1.969,-2.0035,-2.0516,-2.0894,-2.1451,-2.2156,-2.3119,-2.3613,-2.4103,-2.5287,-2.571,-2.5981,-2.6539,-2.6691,-2.6742,-2.6894,-2.7572,-2.8528,-2.9793,-3.034,-3.0767,-3.1417,-3.225,-3.2926,-3.3109,-3.3513,-3.3862,-3.4027,-3.4064,-3.4357,-3.5183,-3.5265,-3.5265,-3.5265,-3.5899,-3.6028,-3.5349,-3.6064,-3.656,-3.656,-3.7294,-3.7753,-3.7753,-3.8431,-3.8773,-3.8773,-3.9063,-3.9238,-3.9314,-3.984,-4.012,-4.0195,-4.0389,-4.0489,0.0,0.0,0.0,0.0,0.0,0.0,0.0,0.0,0.0,0.0,0.0,0.0,0.0,0.0,0.0,0.0,0.0,0.0,0.0,0.0,0.0,0.0,0.0,0.0,0.0,0.0,0.0,0.0,0.0,0.0,0.0,0.1983,0.1273,0.0443,-0.0818,-0.1476,-0.1426,-0.265,-0.3481,-0.3915,-0.4707,-0.562,-0.6663,-0.8509,-1.0056,-1.1396,-1.2645,-1.3324,-1.3622,-1.451,-1.5228,-1.584,-1.7205,-1.7882,-1.8224,-1.9281,-1.969,-1.969,-1.969,-1.9965,-2.0382,-2.0862,-2.115,-2.1511,-2.2559,-2.2971,-2.3271,-2.4262,-2.4797,-2.5236,-2.5981,-2.6167,-2.6251,-2.6607,-2.7147,-2.7836,-2.8893,-2.9532,-3.0096,-3.0698,-3.1788,-3.2614,-3.2614,-3.3275,-3.3807,-3.3807,-3.3807,-3.3954,-3.4376,-3.4431,-3.4431,-3.4431,-3.4835,-3.4926,-3.4468,-3.5202,-3.5679,-3.5679,-3.645,-3.6977,-3.711,-3.7535,-3.8174,-3.9109,-3.9427,-3.9649,-3.9762,-4.012,-4.0285,-4.0285,-4.0422,-4.0489,0.0,0.0,0.0,0.0,0.0,0.0,0.0,0.0,0.0,0.0,0.0,0.0,0.0,0.0,0.0,0.0,0.0,0.0,0.0,0.0,0.0,0.0,0.0,0.0,0.0,0.0,0.0,0.0,0.0,0.0,0.3316,0.2607,0.1825,0.0943,-0.0273,-0.1183,-0.1786,-0.2404,-0.299,-0.3608,-0.424,-0.5203,-0.652,-0.8344,-0.9692,-1.0651,-1.1837,-1.2604,-1.3107,-1.3703,-1.4526,-1.5537,-1.6709,-1.7498,-1.8071,-1.9163,-1.9603,-1.969,-1.969,-1.9909,-2.0246,-2.0731,-2.0862,-2.1023,-2.1899,-2.2345,-2.2628,-2.3224,-2.3833,-2.4492,-2.5389,-2.5609,-2.5795,-2.6522,-2.6869,-2.713,-2.7689,-2.8602,-2.9421,-2.9807,-3.1132,-3.2247,-3.2375,-3.3073,-3.3587,-3.3587,-3.3715,-3.3807,-3.3807,-3.3807,-3.3807,-3.3807,-3.3807,-3.3807,-3.3807,-3.4412,-3.477,-3.477,-3.5643,-3.6251,-3.6477,-3.6684,-3.7553,-3.9214,-3.9505,-3.9755,-3.998,-4.0185,-4.0277,-4.0296,-4.0431,-4.0489,0.0,0.0,0.0,0.0,0.0,0.0,0.0,0.0,0.0,0.0,0.0,0.0,0.0,0.0,0.0,0.0,0.0,0.0,0.0,0.0,0.0,0.0,0.0,0.0,0.0,0.0,0.0,0.0,0.0,0.0,0.4089,0.2866,0.1803,0.095,-0.0269,-0.0942,-0.1037,-0.2146,-0.2768,-0.2876,-0.4439,-0.5392,-0.5903,-0.7863,-0.9155,-0.9922,-1.1183,-1.2006,-1.2535,-1.308,-1.3698,-1.4474,-1.602,-1.6946,-1.7539,-1.8602,-1.9281,-1.969,-1.969,-1.9762,-1.9839,-2.0261,-2.0382,-2.055,-2.143,-2.1724,-2.1999,-2.3072,-2.346,-2.3849,-2.5253,-2.5609,-2.5795,-2.6522,-2.6234,-2.609,-2.7165,-2.7766,-2.8235,-2.8582,-2.9667,-3.0742,-3.1439,-3.2228,-3.2761,-3.2761,-3.3348,-3.3807,-3.3807,-3.3807,-3.3807,-3.3807,-3.3807,-3.3807,-3.3807,-3.3899,-3.3972,-3.3972,-3.4999,-3.5622,-3.5671,-3.6541,-3.7263,-3.7776,-3.7813,-3.785,-3.7906,-3.8933,-3.945,-3.9469,-4.0181,-4.0489,0.2342,0.0,0.0,0.0,0.0,0.0,0.0,0.0,0.0,0.0,0.0,0.0,0.0,0.0,0.0,0.0,0.0,0.0,0.0,0.0,0.0,0.0,0.0,0.0,0.0,0.0,0.0,0.0,0.0,0.4968,0.4514,0.2962,0.19,0.1432,0.0224,-0.0716,-0.1385,-0.1919,-0.2541,-0.3214,-0.4609,-0.538,-0.5538,-0.7459,-0.8503,-0.8931,-1.0274,-1.1165,-1.1681,-1.2207,-1.2907,-1.3816,-1.5411,-1.6394,-1.7011,-1.8385,-1.9043,-1.9281,-1.9603,-1.969,-1.9782,-2.0158,-2.0158,-2.0158,-2.1259,-2.143,-2.1481,-2.2492,-2.2784,-2.3038,-2.4086,-2.4374,-2.4543,-2.5287,-2.5203,-2.5295,-2.6446,-2.6988,-2.77,-2.9123,-2.9838,-3.0467,-3.1256,-3.1678,-3.2082,-3.254,-3.2908,-3.3293,-3.3733,-3.3807,-3.3807,-3.3807,-3.3807,-3.3807,-3.3807,-3.3807,-3.3807,-3.3807,-3.4278,-3.4599,-3.4777,-3.5409,-3.5872,-3.6155,-3.7032,-3.7599,-3.7792,-3.8308,-3.8815,-3.9296,-3.9662,-4.0065,0.0,0.0,0.0,0.0,0.0,0.0,0.0,0.0,0.0,0.0,0.0,0.0,0.0,0.0,0.0,0.0,0.0,0.0,0.0,0.0,0.0,0.0,0.0,0.0,0.0,0.0,0.0,0.0,0.0,0.511,0.4958,0.3075,0.1957,0.1787,0.0627,-0.0583,-0.1784,-0.2097,-0.2724,-0.3622,-0.4694,-0.5149,-0.5131,-0.7015,-0.7903,-0.8022,-0.9498,-1.0411,-1.0888,-1.1535,-1.2321,-1.3238,-1.4697,-1.5691,-1.6451,-1.7803,-1.856,-1.8968,-1.9369,-1.9603,-1.9747,-2.007,-2.0,-2.0035,-2.1134,-2.1306,-2.1323,-2.2077,-2.231,-2.2479,-2.3207,-2.3393,-2.3579,-2.4337,-2.4371,-2.4594,-2.6028,-2.6637,-2.7502,-2.9527,-2.9732,-2.9843,-3.065,-3.0962,-3.1292,-3.1898,-3.2173,-3.2522,-3.3109,-3.3366,-3.3495,-3.3495,-3.3678,-3.3807,-3.3807,-3.3807,-3.3807,-3.3807,-3.3928,-3.4136,-3.4334,-3.4695,-3.4999,-3.5207,-3.6375,-3.7108,-3.7373,-3.7565,-3.8007,-3.8642,-3.8873,-3.9411,0.0,0.0,0.0,0.0,0.0,0.0,0.0,0.0,0.0,0.0,0.0,0.0,0.0,0.0,0.0,0.0,0.0,0.0,0.0,0.0,0.0,0.0,0.0,0.0,0.0,0.0,0.0,0.0,0.0,0.5879,0.5646,0.3348,0.1957,0.1787,0.0627,-0.0583,-0.1784,-0.2948,-0.3534,-0.3622,-0.4517,-0.4764,-0.4523,-0.6666,-0.7455,-0.7248,-0.8925,-0.9949,-1.0481,-1.1439,-1.2077,-1.2639,-1.3752,-1.4808,-1.5814,-1.6399,-1.757,-1.8893,-1.893,-1.9281,-1.9711,-1.9711,-1.9965,-2.0348,-2.0862,-2.1275,-2.1658,-2.2163,-2.231,-2.2479,-2.3207,-2.3393,-2.3579,-2.4337,-2.3951,-2.4069,-2.6292,-2.6977,-2.7556,-2.8819,-2.8448,-2.8172,-2.8998,-2.9769,-3.0283,-3.032,-3.0962,-3.1476,-3.1513,-3.2192,-3.2669,-3.2669,-3.3348,-3.3807,-3.3807,-3.3807,-3.3807,-3.3807,-3.4348,-3.4653,-3.4674,-3.519,-3.546,-3.5479,-3.5556,-3.5608,-3.5641,-3.6411,-3.6796,-3.6873,-3.768,-3.8527,0.0,0.0,0.0,0.0,0.0,0.0,0.0,0.0,0.0,0.0,0.0,0.0,0.0,0.0,0.0,0.0,0.0,0.0,0.0,0.0,0.0,0.0,0.0,0.0,0.0,0.0,0.0,0.0,0.0,0.0,0.5906,0.3396,0.1982,0.1952,0.0682,-0.0583,-0.1784,-0.263,-0.3214,-0.3622,-0.4676,-0.5104,-0.5014,-0.6443,-0.7312,-0.7734,-0.8495,-0.9233,-0.9929,-1.0623,-1.135,-1.2148,-1.319,-1.4038,-1.4833,-1.606,-1.7066,-1.796,-1.8674,-1.9244,-1.969,-1.969,-1.9965,-2.0382,-2.0862,-2.1275,-2.1688,-2.218,-2.231,-2.2361,-2.2632,-2.2699,-2.2807,-2.3247,-2.37,-2.4305,-2.5343,-2.5661,-2.6222,-2.7885,-2.7989,-2.8062,-2.8847,-2.9232,-2.9622,-3.0118,-3.0448,-3.0815,-3.1329,-3.1641,-3.1825,-3.1825,-3.2082,-3.2467,-3.2999,-3.3036,-3.3256,-3.377,-3.4165,-3.4379,-3.4379,-3.4944,-3.5239,-3.5239,-3.5398,-3.5493,-3.5493,-3.5795,-3.6199,-3.6719,-3.7026,-3.7623,-0.8751,0.0,0.0,0.0,0.0,0.0,0.0,0.0,0.0,0.0,0.0,0.0,0.0,0.0,0.0,0.0,0.0,0.0,0.0,0.0,0.0,0.0,0.0,0.0,0.0,0.0,0.0,0.0,0.0,0.0,0.6029,0.3949,0.2401,0.1712,0.0594,-0.0492,-0.1474,-0.2317,-0.2898,-0.3306,-0.4375,-0.4904,-0.5029,-0.6034,-0.695,-0.7714,-0.814,-0.8816,-0.9639,-1.0324,-1.1075,-1.1881,-1.2693,-1.3472,-1.4246,-1.5297,-1.6244,-1.7098,-1.8049,-1.8812,-1.939,-1.9615,-2.007,-2.0583,-2.0894,-2.1385,-2.1899,-2.2209,-2.231,-2.231,-2.231,-2.2377,-2.249,-2.266,-2.345,-2.4241,-2.4442,-2.4809,-2.5539,-2.7083,-2.7181,-2.7328,-2.8411,-2.8613,-2.887,-2.9677,-2.9806,-2.9989,-3.0522,-3.0834,-3.0999,-3.0999,-3.1237,-3.1623,-3.2155,-3.221,-3.2463,-3.3098,-3.3618,-3.3974,-3.406,-3.4827,-3.5223,-3.5223,-3.5417,-3.5493,-3.5493,-3.5493,-3.5776,-3.6315,-3.6315,-3.6757,0.0,0.0,0.0,0.0,0.0,0.0,0.0,0.0,0.0,0.0,0.0,0.0,0.0,0.0,0.0,0.0,0.0,0.0,0.0,0.0,0.0,0.0,0.0,0.0,0.0,0.0,0.0,0.0,0.0,0.6778,0.6044,0.4845,0.3245,0.119,0.0411,-0.0268,-0.0851,-0.2051,-0.2672,-0.2716,-0.3577,-0.4155,-0.4476,-0.5435,-0.6336,-0.7148,-0.7869,-0.8719,-0.9678,-1.0596,-1.1271,-1.1811,-1.2294,-1.3107,-1.406,-1.4085,-1.501,-1.6366,-1.7033,-1.7892,-1.8807,-1.945,-2.0261,-2.0991,-2.0991,-2.1615,-2.231,-2.231,-2.231,-2.231,-2.231,-2.25,-2.2695,-2.2721,-2.3212,-2.3692,-2.3714,-2.4598,-2.5585,-2.641,-2.5933,-2.5917,-2.7475,-2.775,-2.8026,-2.8815,-2.892,-2.8938,-2.8957,-2.9659,-3.0136,-3.0173,-3.0852,-3.1329,-3.1347,-3.1347,-3.1494,-3.1771,-3.2784,-3.3468,-3.3734,-3.4832,-3.5449,-3.5468,-3.5468,-3.5468,-3.5493,-3.5493,-3.5493,-3.5493,-3.5493,-3.593,-1.1659,0.0,0.0,0.0,0.0,0.0,0.0,0.0,0.0,0.0,0.0,0.0,0.0,0.0,0.0,0.0,0.0,0.0,0.0,0.0,0.0,0.0,0.0,0.0,0.0,0.0,0.0,0.0,0.8178,0.7194,0.646,0.458,0.2988,0.1808,0.1127,0.0461,-0.0223,-0.1426,-0.2273,-0.2716,-0.3774,-0.4542,-0.5074,-0.5522,-0.6448,-0.7679,-0.7624,-0.8362,-0.954,-0.9883,-1.0456,-1.1282,-1.1799,-1.2375,-1.3058,-1.3825,-1.4796,-1.5799,-1.6374,-1.7497,-1.8732,-1.8912,-1.9875,-2.0991,-2.0991,-2.1615,-2.231,-2.231,-2.231,-2.231,-2.231,-2.25,-2.2772,-2.2996,-2.3392,-2.3774,-2.4016,-2.4316,-2.4759,-2.5566,-2.555,-2.5733,-2.6759,-2.6924,-2.7016,-2.7236,-2.7273,-2.7475,-2.8062,-2.8319,-2.8686,-2.9274,-2.9549,-2.9898,-3.0485,-3.0522,-3.0904,-3.1734,-3.2256,-3.2617,-3.2858,-3.3355,-3.393,-3.4545,-3.4564,-3.4872,-3.5493,-3.5493,-3.5493,-3.5493,-3.5493,-3.5622,0.0,0.0,0.0,0.0,0.0,0.0,-0.636,-0.4988,0.0,0.0,0.0,0.0,0.0,0.0,0.0,0.0,0.0,0.0,0.0,0.0,0.0,0.0,0.0,0.0,0.0,0.0,0.0,0.9865,0.9033,0.7972,0.6696,0.5051,0.3682,0.2639,0.2125,0.1408,0.0458,-0.0539,-0.147,-0.2317,-0.3243,-0.4215,-0.5124,-0.5423,-0.6331,-0.7686,-0.7634,-0.831,-0.95,-0.9543,-1.0143,-1.1057,-1.1579,-1.2102,-1.2615,-1.3629,-1.4472,-1.5175,-1.5955,-1.7103,-1.8343,-1.8612,-1.9721,-2.0991,-2.0991,-2.1615,-2.231,-2.231,-2.231,-2.231,-2.231,-2.2607,-2.2972,-2.3141,-2.3566,-2.3958,-2.4151,-2.419,-2.4337,-2.4795,-2.4887,-2.5144,-2.5952,-2.6098,-2.6209,-2.6557,-2.6612,-2.6778,-2.7236,-2.7291,-2.7603,-2.8411,-2.8503,-2.8833,-2.9641,-2.9714,-2.9996,-3.0748,-3.1255,-3.1675,-3.2,-3.2498,-3.3229,-3.418,-3.4199,-3.4622,-3.5493,-3.5493,-3.5493,-3.5493,-3.5493,-3.568,0.0,0.0,0.0,0.0,0.0,0.0,-0.8971,-0.7832,-0.6632,0.0,0.0,0.0,0.0,0.0,0.0,0.0,0.0,0.0,0.0,0.0,0.0,0.0,0.0,0.0,0.0,1.1607,1.1408,1.021,0.9858,0.881,0.6804,0.5924,0.4875,0.365,0.3282,0.2444,0.1198,0.0415,-0.0585,-0.1798,-0.2424,-0.3457,-0.4856,-0.5174,-0.6026,-0.7297,-0.7654,-0.8431,-0.9399,-0.9399,-1.005,-1.1057,-1.1579,-1.2102,-1.2603,-1.3555,-1.4149,-1.4634,-1.5641,-1.6693,-1.7682,-1.8298,-1.9584,-2.0879,-2.0879,-2.1549,-2.231,-2.231,-2.231,-2.231,-2.231,-2.2721,-2.3141,-2.3189,-2.3692,-2.4151,-2.419,-2.419,-2.419,-2.419,-2.419,-2.4428,-2.5146,-2.5274,-2.5493,-2.6227,-2.6337,-2.6374,-2.6465,-2.6539,-2.6906,-2.7714,-2.7879,-2.8227,-2.892,-2.904,-2.9156,-2.9414,-3.0127,-3.0734,-3.1187,-3.1928,-3.2857,-3.3891,-3.4007,-3.4487,-3.5372,-3.5449,-3.5493,-3.5493,-3.5493,-3.5892,0.0,0.0,0.0,0.0,0.0,0.0,-1.042,-0.9694,-0.8885,0.0,0.0,0.0,0.0,0.0,0.0,0.0,0.0,0.0,0.0,0.0,0.0,0.0,0.0,0.0,0.0,1.2831,1.2483,1.2229,1.0156,0.8482,0.7557,0.6763,0.5908,0.4964,0.4374,0.3369,0.1843,0.0739,-0.0483,-0.1829,-0.239,-0.3339,-0.4509,-0.5067,-0.5711,-0.6481,-0.6959,-0.7807,-0.8837,-0.8837,-0.9697,-1.1057,-1.1579,-1.2102,-1.2603,-1.3555,-1.4149,-1.4578,-1.511,-1.5988,-1.6921,-1.7055,-1.8501,-2.019,-2.019,-2.1184,-2.231,-2.231,-2.231,-2.231,-2.231,-2.2554,-2.2873,-2.3141,-2.3522,-2.3876,-2.4151,-2.419,-2.419,-2.419,-2.419,-2.4245,-2.441,-2.4428,-2.4483,-2.463,-2.4667,-2.4905,-2.5548,-2.619,-2.6906,-2.7714,-2.8374,-2.881,-2.8975,-2.92,-2.9395,-2.9644,-2.9948,-3.0247,-3.0561,-3.0746,-3.1258,-3.2179,-3.2814,-3.3583,-3.4449,-3.5161,-3.5493,-3.5493,-3.5493,-3.557,0.0,0.0,0.0,-1.2544,0.0,0.0,0.0,-1.1282,-1.0671,0.0,0.0,0.0,0.0,0.0,0.0,0.0,0.0,0.0,0.0,0.0,0.0,0.0,0.0,0.0,0.0,1.3788,1.3778,1.286,1.057,0.896,0.8231,0.7545,0.6806,0.5951,0.5213,0.434,0.3192,0.1822,0.0448,-0.0829,-0.1853,-0.291,-0.3976,-0.4974,-0.5683,-0.6227,-0.6768,-0.7641,-0.8716,-0.8716,-0.9767,-1.1431,-1.17,-1.2102,-1.2638,-1.3776,-1.4342,-1.4596,-1.5225,-1.5995,-1.6712,-1.6712,-1.8053,-1.9751,-1.9951,-2.1085,-2.231,-2.231,-2.231,-2.231,-2.231,-2.25,-2.2797,-2.3117,-2.3477,-2.3795,-2.4132,-2.419,-2.419,-2.419,-2.419,-2.419,-2.419,-2.419,-2.419,-2.419,-2.419,-2.4337,-2.474,-2.5144,-2.5713,-2.6502,-2.7401,-2.813,-2.8519,-2.9154,-2.9589,-2.9696,-2.9796,-2.9958,-3.0196,-3.0196,-3.067,-3.1679,-3.2487,-3.3122,-3.3545,-3.443,-3.5084,-3.5493,-3.5493,-3.5493,0.0,0.0,0.0,0.0,0.0,-1.313,0.0,0.0,0.0,-1.1814,0.0,0.0,0.0,0.0,0.0,0.0,0.0,0.0,0.0,0.0,0.0,0.0,0.0,0.0,0.0,1.4564,1.4857,1.2956,1.129,0.9938,0.8947,0.8396,0.7717,0.6858,0.599,0.5165,0.4418,0.2805,0.1431,0.0203,-0.132,-0.2486,-0.3434,-0.4866,-0.5726,-0.6119,-0.6836,-0.7773,-0.8724,-0.8797,-0.9962,-1.1664,-1.1774,-1.2138,-1.2779,-1.394,-1.4438,-1.4596,-1.5389,-1.604,-1.6532,-1.6532,-1.7716,-1.9249,-1.9991,-2.1102,-2.2124,-2.226,-2.231,-2.231,-2.231,-2.2463,-2.2712,-2.3117,-2.3414,-2.3714,-2.4113,-2.419,-2.419,-2.419,-2.419,-2.419,-2.419,-2.419,-2.419,-2.419,-2.419,-2.419,-2.419,-2.4337,-2.4667,-2.5329,-2.6431,-2.7382,-2.8035,-2.9117,-2.9765,-2.9765,-2.9815,-2.9912,-3.0075,-3.0075,-3.0521,-3.1429,-3.2083,-3.2506,-3.2679,-3.3372,-3.4257,-3.5257,-3.543,-3.5493,0.0,0.0,0.0,0.0,-1.2319,0.0,0.0,0.0,-1.2608,-1.1922,0.0,0.0,0.0,0.0,0.0,0.0,0.0,0.0,0.0,0.0,0.0,0.0,0.0,0.0,0.0,0.0,1.5327,1.3004,1.257,1.1639,0.9755,0.9607,0.8974,0.7616,0.6832,0.5779,0.4402,0.2918,0.152,0.0158,-0.1318,-0.233,-0.3037,-0.4738,-0.554,-0.5641,-0.7134,-0.8152,-0.8716,-0.9199,-1.005,-1.1132,-1.1627,-1.2354,-1.3185,-1.3769,-1.4181,-1.4564,-1.5013,-1.5492,-1.5903,-1.5903,-1.6892,-1.8458,-2.0444,-2.1174,-2.1448,-2.2124,-2.231,-2.231,-2.231,-2.2321,-2.248,-2.3063,-2.3212,-2.3414,-2.4074,-2.419,-2.419,-2.419,-2.419,-2.419,-2.419,-2.419,-2.419,-2.419,-2.419,-2.419,-2.419,-2.4814,-2.5311,-2.5403,-2.6932,-2.7997,-2.809,-2.9236,-2.9969,-2.9969,-3.0182,-3.0343,-3.0355,-3.0355,-3.0424,-3.0552,-3.0629,-3.1064,-3.1833,-3.1948,-3.2795,-3.4372,-3.5141,-3.5493,0.0,0.0,0.0,0.0,0.0,0.0,-1.2939,0.0,-1.2822,0.0,0.0,0.0,0.0,0.0,0.0,0.0,0.0,0.0,0.0,0.0,0.0,0.0,0.0,0.0,0.0,0.0,0.0,0.0,0.0,1.2425,1.1589,1.0407,0.9555,0.8928,0.7385,0.6308,0.5697,0.3387,0.1938,0.131,-0.0982,-0.2202,-0.2435,-0.4654,-0.5622,-0.5585,-0.719,-0.8201,-0.8756,-0.9279,-1.0283,-1.1479,-1.17,-1.221,-1.2896,-1.3635,-1.4149,-1.4564,-1.4968,-1.5418,-1.5858,-1.6219,-1.7032,-1.8221,-1.9972,-2.05,-2.0754,-2.1972,-2.1989,-2.1752,-2.2192,-2.2426,-2.2669,-2.3093,-2.3346,-2.361,-2.4094,-2.419,-2.419,-2.419,-2.419,-2.419,-2.419,-2.419,-2.419,-2.419,-2.419,-2.4247,-2.4357,-2.4671,-2.4929,-2.5049,-2.6707,-2.7796,-2.7796,-2.9303,-3.0222,-3.0222,-3.0343,-3.0398,-3.0398,-3.0398,-3.0398,-3.0398,-3.0398,-3.0571,-3.0948,-3.1448,-3.2295,-3.3468,-3.4334,-3.4757,-1.4145,0.0,0.0,0.0,0.0,0.0,0.0,0.0,0.0,0.0,0.0,0.0,0.0,0.0,0.0,0.0,0.0,0.0,0.0,0.0,0.0,0.0,0.0,0.0,0.0,0.0,0.0,1.4406,1.3767,1.3158,1.2822,1.124,1.0151,0.9814,0.77,0.6588,0.6588,0.3663,0.2174,0.2174,-0.0779,-0.2148,-0.215,-0.4727,-0.579,-0.5671,-0.7472,-0.8403,-0.8756,-0.9439,-1.037,-1.1404,-1.17,-1.1993,-1.2425,-1.3353,-1.4019,-1.4533,-1.4814,-1.5329,-1.5902,-1.6545,-1.7127,-1.7856,-1.9264,-1.9694,-1.9968,-2.1285,-2.1448,-2.1312,-2.1854,-2.2346,-2.2797,-2.3117,-2.3477,-2.3795,-2.4132,-2.419,-2.419,-2.419,-2.419,-2.419,-2.419,-2.419,-2.419,-2.419,-2.419,-2.4266,-2.4478,-2.4495,-2.4594,-2.4775,-2.6483,-2.7599,-2.7599,-2.9327,-3.0398,-3.0398,-3.0398,-3.0398,-3.0398,-3.0398,-3.0398,-3.0398,-3.0398,-3.0398,-3.0398,-3.1044,-3.1641,-3.2256,-3.3583,-3.4334,0.0,0.0,0.0,-1.3721,0.0,0.0,0.0,0.0,-1.2881,0.0,0.0,0.0,0.0,0.0,0.0,0.0,0.0,0.0,0.0,0.0,0.0,0.0,0.0,0.0,0.0,0.0,0.0,1.1581,1.3522,1.4122,1.287,1.2055,1.1073,0.9865,0.77,0.6588,0.6588,0.3663,0.2174,0.2174,-0.0779,-0.2174,-0.228,-0.4951,-0.6062,-0.5891,-0.8126,-0.8913,-0.8797,-0.9843,-1.0283,-1.0428,-1.1442,-1.1811,-1.1957,-1.2873,-1.3769,-1.4501,-1.4501,-1.5074,-1.5913,-1.6586,-1.6821,-1.7104,-1.8509,-1.8944,-1.9096,-1.9849,-2.0619,-2.1221,-2.1237,-2.1979,-2.2797,-2.3117,-2.3477,-2.3795,-2.4132,-2.419,-2.419,-2.419,-2.419,-2.419,-2.419,-2.419,-2.419,-2.419,-2.419,-2.4266,-2.4478,-2.4495,-2.4594,-2.4775,-2.6483,-2.7599,-2.7599,-2.9327,-3.0398,-3.0398,-3.0398,-3.0398,-3.0398,-3.0398,-3.0398,-3.0398,-3.0398,-3.0398,-3.0398,-3.0417,-3.0436,-3.0533,-3.3045,-3.4641,0.0,0.0,-1.458,-1.3721,0.0,0.0,0.0,0.0,0.0,0.0,0.0,0.0,0.0,0.0,0.0,0.0,0.0,0.0,0.0,0.0,0.0,0.0,0.0,0.0,0.0,0.0,0.0,0.855,1.1113,1.2833,0.0,1.2812,1.1828,1.0517,0.8842,0.7534,0.6588,0.4149,0.2666,0.2174,-0.0779,-0.2174,-0.2282,-0.4959,-0.6072,-0.5901,-0.8141,-0.8963,-0.8797,-0.9843,-1.0467,-1.0829,-1.1516,-1.1993,-1.2354,-1.2978,-1.3735,-1.4596,-1.5165,-1.5551,-1.5885,-1.6328,-1.6607,-1.702,-1.8219,-1.8389,-1.8437,-1.9647,-2.0187,-2.0534,-2.1042,-2.1961,-2.2797,-2.3117,-2.3477,-2.3795,-2.4132,-2.419,-2.419,-2.419,-2.419,-2.419,-2.419,-2.419,-2.419,-2.419,-2.419,-2.4321,-2.4654,-2.47,-2.4799,-2.5103,-2.6217,-2.7171,-2.7746,-2.9394,-3.0398,-3.0398,-3.0398,-3.0398,-3.0398,-3.0398,-3.0398,-3.0398,-3.0398,-3.0398,-3.0398,-3.0398,-3.0698,-3.1275,-3.2141,-3.2987,-1.4482,-1.4678,0.0,-1.3945,-1.4093,0.0,-1.3312,0.0,0.0,0.0,0.0,0.0,0.0,0.0,0.0,0.0,0.0,0.0,0.0,-1.7985,0.0,0.0,0.0,0.0,0.0,0.0,0.0869,0.4554,0.7822,1.0683,0.0,0.0,1.1926,1.0813,0.9207,0.78,0.6588,0.4419,0.2938,0.2174,-0.0779,-0.2339,-0.2666,-0.5186,-0.6401,-0.6523,-0.8445,-0.9164,-0.9039,-0.9922,-1.0572,-1.1057,-1.1579,-1.2102,-1.2544,-1.3012,-1.3735,-1.4627,-1.5507,-1.5799,-1.5885,-1.6328,-1.6528,-1.6817,-1.7856,-1.7933,-1.7859,-1.8913,-1.9393,-1.9807,-2.0568,-2.1524,-2.2442,-2.2902,-2.3277,-2.361,-2.3937,-2.4016,-2.4074,-2.417,-2.419,-2.419,-2.419,-2.419,-2.419,-2.419,-2.419,-2.4358,-2.4746,-2.4804,-2.4942,-2.5264,-2.6082,-2.7063,-2.8217,-2.9602,-3.0398,-3.0398,-3.0398,-3.0398,-3.0398,-3.0398,-3.0552,-3.0871,-3.0552,-3.0552,-3.0871,-3.0552,-3.0698,-3.1256,-3.1564,-3.1987]}]]